GFSGBSN_500_spd_000.txt.gz
Wind_Speed
16 16 14 12 13 9 6 2 7 7 9 10 17 15 15 12 13 14 14 15 21 24 27 28 28 28 27 26 25 24 22 22 21 18 19 19 16 15 14 11 11 14 14 13 11 10 9
16 16 15 13 12 7 7 3 7 7 13 17 19 15 10 11 14 17 25 30 34 36 37 35 33 32 32 30 25 25 23 22 21 20 19 18 18 16 14 14 14 13 14 12 10 10 10
17 17 16 13 11 11 10 2 4 12 14 17 16 12 11 19 27 34 37 38 39 37 37 38 35 33 30 28 27 25 24 22 20 18 16 15 14 14 13 13 11 11 10 8 7 8 8
17 16 13 14 10 11 8 3 13 10 10 13 11 19 27 34 40 40 39 37 37 37 36 33 31 29 28 26 24 22 21 20 18 17 16 14 12 11 10 9 6 6 6 8 10 11 9
16 12 12 11 15 8 5 6 8 10 10 15 28 32 39 42 42 40 38 38 36 34 32 30 28 26 23 21 21 19 17 16 14 13 11 11 10 8 5 5 5 6 7 7 6 4 4
17 12 14 15 13 6 4 7 11 12 22 33 37 41 43 42 40 37 37 36 34 31 29 27 25 23 20 18 17 15 13 13 13 11 10 9 8 6 6 7 9 9 7 6 6 6 6
18 15 13 17 13 7 10 15 17 24 34 37 40 41 40 38 35 35 34 33 31 30 27 24 24 19 17 16 13 12 10 8 8 10 10 9 8 9 9 8 8 6 7 8 9 9 8
19 15 16 14 10 10 16 22 26 32 35 37 38 38 37 34 34 34 32 30 27 25 24 22 18 16 14 13 11 8 6 5 5 5 5 6 6 6 6 5 4 3 5 7 8 10 10
19 17 16 14 14 16 23 30 32 34 35 36 36 34 32 33 33 32 29 26 23 21 16 15 13 11 8 7 8 7 3 1 2 4 6 8 9 7 6 6 6 6 7 9 10 12 14
20 17 15 14 17 23 30 33 35 35 36 35 34 34 33 33 31 30 26 22 18 15 12 8 6 5 5 5 5 4 6 3 4 5 6 9 9 9 9 9 9 10 10 10 12 13 14
21 18 16 14 20 26 34 35 35 35 34 35 36 35 34 32 28 26 22 17 12 9 6 1 1 2 4 6 7 9 10 8 7 8 9 10 11 11 12 14 14 14 14 14 15 15 16
22 21 19 18 25 31 36 35 35 37 35 35 34 32 31 28 25 21 16 12 7 4 3 3 6 8 9 11 12 11 11 10 11 11 12 13 15 16 17 17 18 17 17 17 19 19 20
23 22 20 21 28 35 39 37 36 37 36 35 32 29 28 25 21 17 14 11 8 10 8 11 14 15 15 15 14 13 12 11 11 11 12 15 16 17 18 20 20 19 18 18 19 19 21
24 23 22 23 29 37 41 39 37 37 36 33 30 27 24 22 19 16 14 13 13 13 16 17 19 18 17 15 14 10 8 7 9 10 9 9 9 9 10 11 13 14 13 14 17 19 22
25 24 24 24 29 37 43 43 39 36 34 32 29 26 24 21 19 17 16 15 15 17 18 18 16 15 13 12 9 7 7 5 2 4 4 5 6 6 6 8 10 12 14 17 19 21 23
27 25 25 25 28 36 42 44 41 38 35 33 31 28 25 21 19 18 17 16 17 17 15 11 9 8 8 7 6 3 1 1 2 5 7 7 9 10 11 12 14 16 18 20 21 23 24
28 27 26 26 27 33 40 44 44 41 39 36 33 30 27 25 22 20 17 17 16 12 9 7 6 5 4 2 2 1 0 2 6 8 9 10 11 11 13 15 17 20 22 24 25 26 28
30 29 27 27 28 31 38 43 45 44 41 38 37 34 29 26 23 21 19 17 12 10 8 4 3 4 3 3 3 2 2 3 5 6 8 10 12 15 18 20 22 24 26 27 29 32 32
32 30 28 26 29 29 35 40 43 44 43 40 37 34 31 28 25 21 18 15 13 14 10 6 5 5 4 4 4 4 4 5 7 9 11 14 17 20 22 24 26 28 28 29 31 31 31
33 30 28 27 27 29 32 38 41 43 43 40 36 34 32 29 25 19 17 15 15 15 12 9 7 5 6 6 4 2 2 4 7 9 14 19 22 26 29 31 32 30 30 32 32 32 34
36 34 30 29 29 29 31 35 39 40 40 39 37 33 31 26 22 20 19 18 18 16 15 11 9 8 8 7 4 3 5 8 11 15 18 22 26 29 33 33 31 29 29 33 33 33 34
37 34 32 30 28 29 30 32 36 38 36 36 35 33 30 27 24 22 21 20 19 18 16 13 12 11 11 10 8 8 9 11 13 18 21 26 30 34 34 37 32 29 31 32 32 34 34
38 35 33 31 30 27 29 31 31 32 34 34 32 30 28 26 23 23 24 23 21 19 18 16 15 13 12 12 11 13 14 15 17 22 26 31 34 38 40 36 30 27 28 27 25 28 30
38 35 33 32 31 30 30 31 31 31 32 32 31 29 26 26 25 26 26 25 23 21 19 18 16 14 14 14 15 17 18 18 21 24 29 34 38 44 44 40 31 32 29 26 22 24 28
39 36 34 33 32 30 31 32 32 32 31 31 30 29 27 26 25 26 27 26 24 23 21 19 18 17 17 18 19 20 21 22 25 26 31 36 42 48 47 45 34 29 31 28 28 26 30
38 37 35 34 33 33 33 33 33 32 32 32 31 28 27 26 26 26 26 26 25 24 22 22 21 20 21 22 22 24 24 26 29 31 34 39 46 49 49 45 41 36 32 32 33 36 37
38 36 35 36 34 34 35 34 34 35 33 32 31 30 28 27 27 27 27 27 26 25 24 23 23 23 24 26 27 28 28 31 33 35 37 41 48 49 46 42 38 36 38 38 39 43 45
40 39 36 36 36 34 35 35 36 35 35 34 33 32 32 30 30 30 30 29 28 27 27 26 27 28 31 32 32 33 34 36 36 37 39 45 52 48 44 39 39 38 40 42 43 45 48
41 40 39 37 37 37 35 36 37 38 37 36 34 34 34 35 34 34 33 32 32 32 32 32 33 35 36 36 37 38 39 39 39 41 42 45 47 43 43 37 40 41 42 45 49 50 53

GFSGBSN_500_spd_003.txt.gz
Wind_Speed
23 21 19 16 17 14 14 11 10 10 13 15 15 16 11 12 13 15 16 15 15 14 18 21 22 24 25 23 29 27 26 24 23 22 20 20 17 17 12 10 9 10 12 11 11 10 9
21 21 18 16 16 13 11 11 12 15 12 13 15 18 19 17 15 15 16 17 22 25 27 26 26 25 30 30 26 24 22 19 17 19 19 19 16 14 15 14 12 13 12 10 7 7 7
21 20 17 17 16 13 11 11 13 5 13 16 20 19 14 15 17 18 24 27 30 32 32 32 32 31 29 29 25 23 22 20 21 19 21 20 19 18 16 16 13 9 7 5 4 5 6
19 19 17 18 18 14 13 9 4 11 12 21 19 15 15 18 26 32 35 40 40 39 37 35 34 32 31 29 28 26 23 21 19 18 18 16 15 15 15 12 10 9 5 4 5 7 8
19 17 17 17 16 12 11 8 12 13 15 20 19 19 23 32 36 39 41 41 40 37 35 32 31 29 27 25 24 23 21 19 17 16 14 13 12 11 9 8 5 2 1 7 7 8 8
18 17 16 14 14 13 9 10 11 13 12 21 25 29 36 40 40 40 41 40 37 35 33 31 28 27 23 23 21 20 19 17 15 13 12 11 10 8 6 4 4 11 7 8 9 8 7
18 17 17 14 15 11 10 13 16 15 25 30 35 40 41 40 40 41 39 36 33 31 27 27 24 21 20 17 15 13 12 12 12 11 11 9 8 10 6 7 9 11 10 11 14 11 10
19 18 17 18 15 10 13 17 21 31 36 40 41 41 39 38 39 37 36 33 31 28 26 25 22 20 18 15 13 10 8 8 8 8 8 7 9 10 9 8 9 9 10 12 11 11 12
20 19 18 19 14 12 17 24 33 39 40 42 41 37 35 36 35 34 33 29 29 26 23 20 17 15 13 13 11 9 6 5 4 4 7 10 9 8 8 10 10 11 10 10 11 10 12
21 21 21 19 14 16 24 32 38 39 40 40 38 34 34 35 33 32 30 27 25 22 19 14 12 11 9 7 6 5 5 2 2 5 7 9 10 11 12 12 11 13 12 12 12 11 8
22 22 21 19 18 22 31 36 38 38 38 39 36 34 34 34 34 30 26 22 18 17 13 8 6 4 3 4 5 5 5 4 4 5 8 9 10 12 13 14 14 16 15 15 16 16 17
23 23 21 20 21 28 36 39 38 38 38 37 35 34 35 34 30 26 22 17 13 10 7 4 1 3 6 8 9 8 7 7 8 8 9 10 12 13 15 17 17 17 17 17 18 18 18
24 25 22 21 26 33 38 41 40 38 37 37 35 34 34 31 28 24 19 13 8 3 1 3 7 10 12 12 11 9 9 8 9 9 8 10 12 13 14 16 17 17 17 16 16 17 13
26 26 23 23 31 38 41 42 41 38 37 37 36 36 33 30 26 21 17 12 8 5 8 11 13 14 13 11 10 9 6 5 5 7 7 6 6 6 6 7 8 9 10 12 14 17 16
26 26 23 25 34 40 43 42 41 39 37 37 35 33 31 27 23 19 15 11 10 11 12 14 14 12 10 9 7 5 4 4 2 1 1 1 2 4 6 7 9 10 12 14 17 19 21
27 26 22 26 33 40 45 43 41 40 38 36 34 31 28 25 22 18 15 13 13 13 13 12 10 8 7 5 4 4 6 5 3 1 1 3 5 6 7 9 11 13 16 17 18 22 22
29 27 23 25 31 39 45 45 43 41 39 37 35 31 28 25 22 20 17 16 15 13 12 7 8 6 5 4 7 7 7 4 2 1 2 4 5 6 8 11 14 16 17 19 21 22 23
29 28 25 25 29 37 45 46 45 42 40 38 35 33 30 28 24 21 20 17 15 13 9 7 4 4 5 7 8 8 6 5 4 3 3 5 6 8 12 15 19 21 24 25 24 26 25
30 29 27 25 28 32 41 46 48 45 42 40 37 34 32 30 26 23 22 19 17 14 11 8 6 6 7 7 8 8 7 6 5 2 2 6 8 12 17 22 25 25 27 27 27 27 25
32 30 29 26 27 30 36 42 45 47 45 42 40 38 35 30 28 26 24 21 18 16 14 11 8 9 9 9 9 9 8 5 3 3 6 10 14 17 21 26 31 32 31 32 32 30 27
35 32 31 29 27 28 31 38 41 44 44 44 42 39 34 32 30 28 25 22 19 18 17 15 13 12 11 11 10 9 9 8 6 8 12 14 18 20 21 27 31 32 33 33 32 32 29
38 34 32 30 29 30 29 33 37 40 42 42 40 38 36 33 31 29 27 23 21 20 18 18 18 16 15 13 12 11 11 9 9 11 15 18 20 23 23 29 34 34 35 33 32 29 29
40 37 33 31 30 29 29 30 33 37 39 39 39 38 37 33 30 29 26 24 23 22 21 22 21 19 17 15 14 13 13 13 13 16 19 23 25 27 27 31 37 41 35 33 30 31 26
41 38 35 32 29 29 28 28 30 33 36 37 36 36 34 32 30 29 28 28 27 25 24 24 23 21 19 17 17 17 16 15 16 20 24 29 32 34 34 36 41 44 37 31 31 29 28
41 39 36 34 31 30 29 28 29 31 33 35 36 34 33 32 31 31 30 30 29 28 28 27 26 24 22 21 20 19 19 19 21 24 29 33 36 39 40 42 45 38 36 32 30 27 31
42 40 37 34 31 30 29 29 29 31 32 33 35 34 33 33 33 33 32 31 32 31 30 29 27 27 27 25 23 23 23 25 27 30 33 36 38 40 42 47 48 44 36 32 33 33 35
41 41 39 36 33 33 32 31 32 32 33 33 33 34 34 36 35 35 34 32 32 32 31 30 30 30 29 27 26 27 28 30 33 35 36 39 40 39 44 47 46 41 37 34 36 35 41
40 40 40 38 36 34 34 34 33 33 34 34 33 34 34 35 35 36 35 34 33 32 32 31 32 31 30 31 30 32 33 35 37 38 40 41 41 40 44 47 48 45 40 38 39 42 44
37 37 38 37 37 36 35 35 35 35 36 36 35 35 35 35 35 35 35 34 34 33 33 34 34 33 34 34 35 37 38 40 41 42 42 38 40 41 47 46 43 44 45 44 45 46 50

GFSGBSN_500_spd_006.txt.gz
Wind_Speed
29 26 24 21 21 18 18 19 18 15 12 12 18 18 15 15 13 12 13 14 15 15 13 16 17 18 20 15 19 23 23 26 25 27 26 25 13 7 7 9 14 15 12 12 11 13 12
25 25 24 21 20 18 17 18 18 19 19 14 15 14 15 14 12 13 14 14 14 14 16 16 20 22 23 23 26 27 27 27 28 24 23 20 12 17 9 6 5 9 10 10 9 6 4
25 22 22 21 19 17 17 17 16 18 12 15 16 18 20 16 14 14 14 15 17 20 23 24 24 25 27 33 26 23 20 14 15 22 24 16 19 17 16 12 12 10 8 5 3 2 3
16 22 21 21 19 17 17 15 15 12 9 12 15 10 20 19 16 16 17 24 27 26 25 26 29 27 26 23 21 19 19 21 19 17 18 18 16 16 16 12 8 6 3 5 2 3 6
22 22 20 21 18 18 16 12 12 11 7 11 19 14 18 18 19 23 28 30 30 30 30 28 26 26 25 23 22 21 21 21 21 19 17 17 15 15 12 12 9 6 4 2 12 7 4
22 22 21 19 17 15 12 13 13 13 14 16 15 17 20 24 28 31 34 35 33 31 28 27 27 25 24 23 21 20 19 17 20 18 17 16 16 12 10 9 9 10 3 9 9 7 6
22 23 21 17 17 14 13 13 13 17 18 19 21 25 29 31 34 35 35 32 29 29 30 30 24 26 23 19 17 16 15 14 13 15 17 11 13 11 6 4 8 14 15 9 14 6 10
24 23 19 18 17 15 13 14 20 17 23 27 30 33 34 37 39 38 36 34 32 28 24 24 22 21 19 16 15 13 12 13 12 14 12 8 4 8 10 8 10 18 16 11 16 11 12
27 24 20 20 18 15 14 18 21 26 32 35 37 37 37 38 38 34 32 30 29 26 25 22 20 20 18 14 13 10 9 10 10 8 7 6 6 6 8 8 8 12 13 10 11 8 9
27 24 22 20 19 16 17 23 30 37 40 40 39 37 38 38 36 34 31 29 30 27 24 19 17 15 13 13 10 8 7 5 4 3 3 3 6 8 10 10 10 15 8 12 12 11 7
27 24 24 23 20 17 23 32 40 43 43 41 38 39 39 38 36 33 32 27 25 23 19 14 12 9 9 8 5 4 2 2 3 4 7 5 7 9 10 10 12 15 15 15 15 14 16
28 24 25 25 21 22 30 40 44 45 44 41 39 39 37 35 32 31 28 23 21 17 10 10 7 4 3 3 3 2 1 2 5 6 7 8 9 10 11 13 15 17 18 17 17 18 17
29 26 27 25 23 27 36 44 45 45 44 39 37 37 36 34 33 28 24 21 16 11 6 4 1 5 6 7 6 5 5 5 6 6 5 5 7 9 10 11 12 12 12 13 11 10 11
29 29 28 26 26 32 40 46 45 45 43 39 37 37 37 35 30 27 24 18 13 7 3 4 6 9 9 7 6 6 4 2 1 2 3 2 1 2 3 5 5 5 6 7 9 11 13
29 31 29 27 28 35 43 46 46 44 43 39 37 38 37 34 30 25 21 16 11 7 3 8 10 9 7 6 5 4 3 3 4 4 2 2 0 2 3 5 7 7 9 11 13 16 17
31 32 30 28 31 38 44 45 45 44 42 39 37 37 35 32 28 24 19 15 6 7 8 10 10 6 3 4 5 6 6 7 5 4 3 2 1 1 2 4 7 10 12 15 16 19 17
33 32 29 29 33 39 46 46 45 44 41 39 37 36 34 31 27 22 17 13 8 9 11 11 7 5 3 5 7 9 9 8 7 5 4 3 3 2 3 7 13 16 19 19 20 22 22
35 33 30 30 34 41 47 47 46 44 42 40 37 36 34 30 25 20 20 12 10 11 12 9 5 4 5 9 10 10 9 8 7 6 5 4 2 3 6 8 13 16 19 22 24 24 25
36 34 31 31 35 41 46 47 46 45 43 41 38 36 32 29 25 22 17 14 14 14 12 10 6 5 7 8 10 10 10 8 7 6 2 2 4 7 10 13 18 23 27 31 26 24 24
37 35 31 30 33 39 45 47 47 47 44 43 40 36 34 30 26 23 21 19 18 16 13 12 10 8 9 11 11 12 10 9 7 4 2 4 7 10 13 16 21 25 30 34 34 32 27
38 35 32 31 31 35 43 47 48 47 46 43 41 38 35 31 28 27 24 22 20 17 14 15 14 12 14 14 13 13 12 11 9 9 8 9 10 13 15 19 23 28 32 37 35 32 30
39 36 33 31 30 31 37 43 47 47 47 46 43 39 37 33 33 29 26 24 23 22 18 18 18 16 17 17 17 14 13 14 12 12 12 14 15 16 20 25 27 28 34 38 37 32 28
39 36 34 32 30 29 31 38 43 45 47 48 44 40 40 37 34 32 27 26 25 19 21 21 22 21 20 16 15 15 16 17 17 16 17 18 19 21 24 28 30 31 35 40 38 34 33
41 38 35 33 31 29 29 31 37 41 44 44 42 42 40 38 34 31 29 27 26 23 25 25 25 22 21 22 19 18 19 19 19 19 21 22 24 27 29 32 33 36 37 41 37 34 31
42 39 37 34 32 30 30 30 32 37 40 41 42 41 39 36 36 35 30 29 28 26 29 27 25 25 27 25 23 22 22 22 22 23 25 27 30 32 35 37 37 36 38 39 41 32 34
42 41 39 35 32 31 31 31 31 32 35 38 40 39 37 37 37 34 34 32 29 31 28 29 29 29 29 28 27 26 26 26 26 28 29 32 34 36 39 42 42 42 44 45 40 37 38
42 42 40 38 35 32 31 31 31 31 32 33 36 37 38 38 36 37 38 32 33 32 34 33 32 32 32 32 32 30 30 30 32 32 34 37 39 39 43 44 43 45 45 44 45 43 41
43 44 42 40 36 34 32 31 31 32 32 33 34 35 37 39 38 39 37 37 36 36 35 35 35 34 34 35 35 34 35 34 35 37 38 41 42 43 45 45 46 48 48 48 48 46 48
40 43 43 42 39 36 34 33 31 31 32 33 34 34 35 37 37 39 38 38 38 39 37 34 38 35 37 36 36 37 37 38 39 41 43 46 44 47 47 46 47 51 51 51 51 51 51

GFSGBSN_500_spd_009.txt.gz
Wind_Speed
32 36 30 27 23 23 21 19 19 21 20 18 13 16 16 15 17 16 13 15 15 13 14 17 17 18 20 15 15 19 19 25 26 28 29 27 24 20 31 24 14 17 16 14 21 17 8
29 36 33 25 23 22 20 18 19 21 20 20 21 16 17 17 15 13 13 14 14 16 15 15 16 19 17 12 20 21 28 31 34 35 36 30 23 12 6 10 21 16 5 9 9 8 6
33 36 30 28 23 21 19 17 19 19 20 21 14 16 14 14 13 14 15 13 13 15 15 15 17 17 19 19 29 32 32 32 32 35 37 31 22 24 17 14 12 14 13 12 11 8 4
32 34 26 21 21 19 17 18 16 16 17 13 12 15 16 18 14 14 12 13 14 15 17 18 19 19 21 23 24 26 21 18 12 12 12 16 26 18 18 16 12 9 8 12 11 6 3
29 27 22 21 21 18 17 18 16 14 15 11 8 7 17 18 15 13 15 17 20 22 22 22 24 25 26 23 20 19 19 17 17 15 16 19 16 17 19 16 17 11 10 5 10 8 1
29 26 24 21 20 17 17 13 15 15 12 4 14 11 21 19 16 17 23 25 24 24 26 25 23 23 20 21 20 19 18 18 20 20 19 20 18 17 14 14 13 11 4 4 11 7 2
28 26 23 20 18 17 15 14 14 14 13 10 13 14 19 19 21 26 27 25 25 26 25 26 27 24 21 18 17 16 16 17 17 21 23 23 21 19 11 5 3 8 14 12 12 1 2
22 24 22 20 18 18 15 16 13 16 16 14 14 19 23 25 28 31 30 30 29 26 21 21 21 21 17 17 17 15 14 16 14 18 21 16 6 9 8 6 7 12 20 17 11 7 8
24 25 23 21 19 18 18 16 15 18 17 19 22 26 27 28 29 29 27 27 28 24 21 22 21 20 18 16 15 14 14 12 14 17 14 6 10 8 7 6 10 12 14 15 12 5 7
27 27 27 23 21 20 20 17 17 20 24 28 30 30 31 33 32 31 28 28 29 27 26 23 22 20 19 17 14 13 11 10 9 8 9 9 8 8 7 6 10 7 9 12 11 8 10
28 30 29 24 23 24 21 18 21 27 33 34 34 36 37 36 34 33 31 30 30 26 24 20 18 15 14 12 10 9 9 8 7 8 6 5 5 6 5 10 11 8 12 12 12 11 13
26 33 30 24 25 26 23 21 26 36 38 38 38 39 39 36 35 33 32 29 27 22 19 17 15 12 9 7 7 6 8 8 9 6 6 7 6 8 8 10 12 13 14 14 15 14 12
28 34 31 27 29 26 25 26 35 42 42 41 39 39 37 36 34 32 30 27 22 17 15 14 10 6 4 4 5 6 6 7 7 9 7 7 7 7 7 8 8 10 10 12 14 13 15
35 36 31 30 31 28 28 34 42 46 44 41 40 39 38 36 34 31 27 24 19 15 11 8 5 4 5 5 7 8 5 5 7 7 7 8 6 4 3 2 0 2 3 4 6 10 9
40 36 31 33 33 31 33 40 46 48 45 42 41 40 39 37 34 30 26 22 17 11 6 2 4 6 4 6 7 6 9 10 8 8 5 6 6 4 2 2 4 5 6 8 9 10 11
41 36 34 35 34 34 38 45 49 49 46 42 42 42 40 36 33 30 25 21 13 6 2 5 6 3 5 7 9 9 10 10 9 8 5 3 2 3 4 5 6 8 11 13 12 12 8
43 37 36 35 35 38 42 49 51 50 46 43 42 41 40 36 33 28 23 17 10 7 6 7 6 4 4 8 10 10 11 11 9 6 5 6 6 5 5 4 6 11 15 18 20 18 17
42 38 38 36 36 41 45 50 52 51 47 42 41 40 40 37 32 26 23 17 7 8 6 8 5 5 4 8 9 11 11 9 7 7 7 7 5 4 2 3 7 11 15 18 23 24 24
41 39 39 37 37 43 47 50 52 51 48 44 41 41 40 37 31 27 22 12 10 9 7 8 5 4 5 7 9 11 10 11 11 10 9 5 3 1 2 1 6 13 18 21 23 26 28
42 40 41 36 38 43 48 50 51 50 49 46 43 42 39 34 32 27 20 15 13 10 9 9 8 8 7 10 11 12 12 13 12 11 7 4 5 6 6 8 12 17 21 26 28 30 28
42 41 42 36 39 44 48 51 50 50 49 47 44 40 37 34 31 25 21 18 14 12 11 11 11 12 10 10 11 13 13 13 13 11 8 8 9 10 10 13 17 20 22 25 27 32 35
43 41 40 36 39 43 46 49 50 50 49 47 45 42 38 36 31 28 25 22 18 17 13 14 14 16 14 14 12 12 12 13 13 13 13 12 13 14 14 16 19 22 26 29 29 32 34
44 41 39 36 37 42 45 47 50 51 49 49 46 41 40 36 33 32 26 23 22 20 17 16 18 18 15 12 13 14 17 18 18 16 17 17 17 18 18 21 23 26 29 32 35 35 37
45 41 39 36 35 38 43 46 48 50 51 48 45 43 40 38 36 32 28 28 28 21 23 20 17 17 16 19 22 21 22 21 20 20 21 21 22 22 24 25 28 31 33 35 37 37 37
45 42 40 36 34 34 38 42 44 47 48 47 48 46 42 40 39 36 32 33 31 25 25 21 17 20 25 24 24 25 25 24 24 24 23 24 26 27 28 30 32 35 37 37 40 40 39
45 42 40 37 34 33 33 34 38 42 43 45 47 45 43 43 40 38 37 37 33 28 27 23 22 25 26 26 28 29 29 27 28 27 27 28 30 31 34 36 38 41 43 43 44 40 42
44 43 41 38 35 33 32 32 32 35 39 43 44 44 43 42 40 40 41 37 35 33 31 30 28 29 29 29 31 32 32 33 33 31 31 33 35 36 38 39 41 42 47 45 44 45 46
43 43 41 38 36 34 32 31 31 31 32 36 40 43 44 43 43 43 41 40 38 37 34 32 32 32 32 34 34 35 37 37 37 36 35 37 39 39 41 43 45 46 48 47 44 48 49
41 41 41 39 37 35 33 32 31 30 31 33 35 37 39 41 42 43 43 43 41 39 36 36 38 34 37 37 35 38 39 39 38 40 39 41 41 42 43 45 47 50 51 51 50 50 49

GFSGBSN_500_spd_012.txt.gz
Wind_Speed
43 42 36 40 29 33 29 25 23 20 19 22 19 17 14 16 14 16 16 17 17 15 13 15 15 15 14 16 17 18 20 23 21 27 29 33 29 31 32 14 13 10 11 10 12 14 12
45 43 39 38 31 35 32 27 21 20 20 22 18 17 19 15 16 17 16 15 16 17 17 16 16 18 16 15 20 25 31 27 35 36 36 34 32 30 28 20 11 10 11 16 20 15 7
43 41 38 38 31 32 26 24 20 19 19 17 18 19 17 15 16 16 16 15 15 16 17 16 19 16 15 20 29 29 26 36 41 41 38 36 37 37 28 18 20 16 10 13 12 9 8
45 38 37 35 29 25 21 22 20 17 17 10 11 13 15 14 14 14 13 14 14 13 15 16 13 13 17 17 23 27 32 33 35 37 37 36 31 27 29 22 18 20 16 18 15 9 8
42 34 35 33 25 21 21 22 19 17 13 15 15 8 12 15 13 12 13 13 12 13 13 13 15 15 18 19 19 17 24 22 14 30 18 21 20 18 15 16 17 16 22 14 12 7 1
37 34 35 33 25 23 24 20 19 16 14 11 8 4 10 16 15 18 13 12 14 16 18 20 19 20 20 17 21 21 17 15 14 26 14 16 12 19 23 21 17 13 12 11 10 6 4
37 33 37 30 25 25 22 19 16 15 14 7 4 8 12 15 13 12 16 20 21 23 23 23 24 22 21 21 19 19 17 18 20 25 27 25 27 24 23 19 11 6 5 7 7 3 3
35 32 36 27 22 24 21 19 17 15 13 10 11 9 13 15 17 23 25 23 23 23 21 21 20 22 21 20 20 20 22 23 24 29 28 25 24 23 19 13 6 11 9 8 4 4 9
33 33 32 23 23 24 20 20 18 18 13 11 14 14 17 21 23 22 22 25 25 24 25 22 21 21 20 17 17 17 16 19 23 20 19 17 18 19 15 12 11 13 16 13 12 7 11
33 35 28 24 26 24 22 21 20 17 15 14 16 18 22 23 24 26 27 28 27 26 26 23 22 21 21 17 18 17 15 14 14 14 16 11 13 11 8 8 7 9 16 19 16 12 14
36 34 28 27 27 26 25 23 20 16 17 18 21 25 26 29 31 28 29 28 28 28 26 24 21 21 19 16 15 18 15 14 11 12 13 11 12 12 12 11 10 12 14 15 16 15 15
38 32 31 30 30 27 28 25 20 19 20 26 29 31 32 33 32 31 29 30 30 26 24 22 20 18 16 14 13 14 15 15 15 13 13 14 12 11 11 11 11 11 12 14 15 15 16
38 34 33 33 34 30 31 26 22 23 29 34 34 36 35 34 34 32 32 30 26 22 21 20 17 14 13 12 11 11 10 9 9 11 13 11 10 9 9 10 10 9 11 12 14 15 19
36 37 34 37 36 33 32 28 26 30 37 38 38 39 37 36 35 34 32 27 21 21 18 15 14 11 11 12 13 12 13 13 14 12 11 11 9 9 8 6 4 2 1 2 5 6 11
38 38 37 39 36 36 32 30 30 38 42 41 42 41 38 37 37 35 30 24 19 18 15 12 9 9 11 12 13 14 14 14 12 12 10 9 9 8 8 5 4 3 2 2 3 7 11
41 39 41 41 37 37 34 33 35 43 46 44 44 42 40 39 37 33 29 25 19 15 7 6 5 7 10 13 13 14 13 12 11 11 13 11 9 8 9 7 5 5 6 9 10 9 12
42 40 44 41 39 38 36 35 39 47 48 46 46 44 42 41 37 33 29 24 17 10 6 4 3 4 8 10 12 13 14 14 13 11 10 11 12 10 9 7 5 5 5 8 11 15 17
43 44 45 41 40 39 38 38 44 50 50 48 47 46 44 41 37 32 29 25 17 11 6 3 4 1 6 7 9 12 15 15 13 11 12 11 10 10 7 5 3 1 6 10 13 15 16
41 48 45 42 40 39 40 41 47 52 50 47 47 47 45 42 38 32 29 22 15 11 5 3 3 2 4 7 13 16 16 16 15 14 14 12 10 7 6 6 5 4 8 11 14 17 19
42 47 47 41 39 39 42 43 49 54 51 49 49 48 46 43 37 34 29 22 14 11 6 5 5 5 6 9 14 16 16 15 15 14 14 12 10 8 7 8 8 11 14 13 16 18 20
50 49 44 39 39 40 43 46 51 55 53 51 50 48 44 41 38 33 28 20 16 11 8 6 5 7 7 8 11 13 14 15 15 16 14 13 11 10 9 11 13 14 17 20 22 24 25
53 46 42 39 39 40 44 48 53 56 55 51 49 47 44 42 38 34 27 21 17 14 11 8 7 7 10 8 9 13 14 15 15 17 16 16 15 14 14 15 16 17 19 22 25 28 30
50 45 41 40 38 40 44 48 52 55 56 53 49 46 44 41 38 34 29 25 21 18 15 12 9 8 12 13 13 16 18 21 21 22 22 20 20 20 20 21 22 22 24 26 29 30 32
48 43 41 39 37 39 44 48 53 53 54 54 51 47 43 40 37 34 31 28 25 22 19 16 13 11 12 17 20 19 22 23 24 23 23 24 24 25 25 26 27 28 27 30 34 33 36
46 44 42 40 36 39 43 47 51 52 53 51 52 46 44 42 39 37 34 35 31 25 21 18 18 15 17 21 23 22 22 25 26 26 27 28 28 28 29 30 31 32 32 35 35 35 38
47 45 43 38 36 38 42 45 49 50 50 50 50 47 45 44 42 41 38 36 32 29 25 24 23 21 20 22 25 27 27 27 30 30 31 32 32 32 32 34 35 35 36 38 39 39 40
48 45 43 38 37 38 40 43 46 48 49 50 49 46 45 44 42 41 39 37 35 31 30 29 29 28 27 25 28 29 31 31 32 32 32 34 36 37 37 38 39 40 40 42 42 42 45
49 46 44 40 37 36 36 38 40 44 47 47 46 45 44 44 43 42 41 39 38 35 34 34 33 32 31 31 32 33 35 35 34 35 35 38 41 39 41 41 43 42 43 44 45 44 49
49 45 42 40 37 34 33 34 36 40 43 43 43 43 43 43 43 43 43 42 41 40 40 40 40 37 38 36 36 36 37 38 38 40 37 40 41 42 41 41 41 44 44 46 46 45 52

GFSGBSN_500_spd_015.txt.gz
Wind_Speed
43 44 43 40 39 39 42 38 37 32 24 21 22 23 24 19 16 17 17 16 16 18 14 14 14 12 11 15 16 17 17 19 20 19 26 32 35 35 34 27 19 14 8 6 6 2 5
45 46 47 43 38 39 42 39 31 29 23 21 23 25 23 19 20 18 17 16 17 18 18 14 15 16 17 15 18 19 21 25 22 27 33 42 35 34 25 17 17 16 7 6 11 9 7
49 48 51 45 39 38 38 35 31 23 21 20 22 24 25 22 21 20 17 15 17 16 17 15 16 9 9 14 19 23 26 27 24 31 33 32 31 30 20 14 14 16 4 7 10 12 6
53 51 51 46 41 39 37 35 27 22 20 20 20 17 18 21 15 15 16 17 17 15 14 15 14 10 12 16 20 28 31 31 39 37 30 26 24 21 14 12 10 14 10 14 11 9 10
52 53 49 47 43 41 37 33 25 23 21 19 16 20 16 15 12 14 13 14 14 11 12 14 13 12 16 16 20 26 25 36 38 37 32 27 23 17 19 12 11 14 18 14 12 10 12
52 53 47 44 43 40 37 31 27 23 20 16 18 15 11 14 14 13 12 11 11 11 11 13 15 17 18 19 23 22 21 32 39 34 31 32 31 21 19 18 18 23 17 17 13 9 9
53 48 48 44 42 40 38 29 26 22 17 14 10 6 8 14 15 17 16 11 12 16 18 20 19 20 20 20 20 25 21 25 34 31 14 16 20 22 27 24 20 20 20 15 13 9 5
56 47 46 42 41 38 33 27 23 21 16 15 14 9 9 15 17 12 15 16 18 23 24 23 20 16 15 16 19 19 22 27 25 25 21 23 27 26 24 21 18 17 22 10 7 4 7
53 44 42 39 39 35 28 24 22 21 16 16 14 13 8 13 6 11 18 20 21 21 23 20 20 19 18 18 19 22 24 28 30 29 30 28 28 29 23 21 16 14 11 9 7 8 10
46 43 40 35 38 32 25 24 22 21 19 16 14 14 10 10 13 19 21 23 21 23 23 23 24 22 23 22 21 21 22 23 22 21 22 22 22 23 16 15 13 12 14 14 14 17 18
50 42 39 35 36 30 25 26 22 23 19 17 17 13 12 18 21 23 25 25 25 25 25 22 21 21 22 19 19 20 17 15 16 14 16 12 15 21 19 15 12 11 12 13 16 21 25
53 46 41 38 36 29 27 28 25 25 19 20 19 17 24 26 27 28 27 25 25 26 22 23 22 20 18 18 17 16 16 16 14 14 15 17 15 16 15 14 12 11 12 15 17 19 24
57 51 43 39 36 29 31 29 29 25 21 22 22 28 31 31 30 29 27 26 25 25 25 22 20 19 16 16 15 14 14 15 15 16 19 18 17 16 14 13 13 14 16 17 19 21 24
60 54 48 43 37 33 35 31 31 26 25 27 29 35 35 33 32 31 29 28 26 25 22 20 18 16 14 13 13 13 14 15 15 16 18 15 14 13 11 9 10 10 9 10 10 11 12
63 55 47 45 38 38 38 34 33 29 29 34 36 40 37 35 35 33 31 29 23 21 19 16 14 14 14 14 14 14 14 15 14 14 14 14 12 10 9 10 9 8 6 5 4 4 5
60 54 49 44 42 42 40 36 36 32 35 40 43 43 39 38 37 35 33 27 21 17 15 13 12 13 15 15 16 17 16 14 13 14 15 13 12 12 12 12 10 8 6 3 3 4 7
58 53 48 45 45 42 40 37 38 36 41 45 48 45 41 41 39 37 34 27 22 17 12 9 7 8 11 13 16 16 14 14 15 16 15 16 15 14 14 11 10 9 6 2 3 6 7
57 52 48 46 44 42 39 39 40 39 45 49 51 47 43 42 41 39 34 28 22 17 12 6 4 4 9 10 13 16 17 17 17 18 16 15 16 16 12 10 9 6 3 3 7 10 11
57 53 48 45 43 40 39 41 41 43 48 52 52 49 45 43 42 38 33 27 22 16 10 5 3 5 9 12 15 17 18 20 19 16 16 17 16 15 13 12 10 9 8 8 9 9 11
54 49 47 44 45 40 40 42 41 46 51 55 54 51 47 44 42 37 34 28 22 15 10 7 4 5 7 12 16 18 20 19 18 17 18 18 16 15 14 12 13 13 13 13 14 14 15
52 48 48 43 45 40 41 43 42 48 54 56 54 51 46 44 42 38 34 29 22 17 11 8 4 6 7 9 13 16 18 17 17 18 19 18 17 16 14 16 16 17 17 18 18 19 20
49 48 41 45 44 40 42 43 42 49 56 56 54 51 47 45 43 40 36 29 22 18 12 9 7 4 9 9 12 16 18 18 19 19 21 20 19 19 19 20 20 20 21 24 23 25 25
47 45 37 46 41 40 42 41 44 52 57 56 54 51 48 46 44 41 35 29 24 20 14 12 10 6 8 12 12 16 18 20 22 22 24 25 24 24 24 24 26 24 26 29 29 28 31
43 42 42 44 39 43 40 40 45 52 56 55 52 50 48 46 44 40 37 31 26 22 19 16 13 10 9 14 18 18 18 20 23 24 25 27 28 29 29 30 32 28 30 33 33 32 34
47 40 44 39 40 39 37 40 44 52 56 54 52 50 47 45 42 42 38 33 31 27 23 18 17 16 14 14 18 21 21 21 23 25 27 29 31 33 35 34 37 33 31 36 38 37 36
40 45 42 39 41 35 36 40 44 51 55 54 52 49 47 44 44 42 39 35 34 30 26 24 23 22 20 19 19 21 24 25 26 26 29 32 34 36 38 40 42 37 36 40 42 40 41
43 43 41 40 38 33 35 38 44 49 52 54 53 51 48 46 45 42 40 38 36 32 30 28 27 26 26 25 24 24 25 27 29 29 28 33 37 39 41 44 45 40 42 43 44 44 42
44 43 42 40 33 30 33 37 42 45 49 50 52 51 49 48 45 43 41 40 37 36 35 33 32 31 32 32 31 30 33 32 32 33 34 36 39 39 42 44 47 43 45 47 45 44 45
44 43 40 37 35 29 31 36 40 42 46 48 49 47 47 46 44 43 42 40 39 39 38 38 37 35 37 36 37 37 39 39 38 39 37 39 40 41 42 41 42 44 46 46 46 47 48

GFSGBSN_500_spd_018.txt.gz
Wind_Speed
46 44 44 43 44 45 40 39 37 37 39 39 35 27 25 26 27 24 19 18 19 17 16 13 14 15 11 12 15 15 16 15 14 16 17 18 20 30 28 29 27 23 15 9 3 7 8
49 45 44 45 46 48 42 40 37 37 40 36 30 26 26 28 29 24 19 19 18 17 18 17 16 14 13 13 12 14 15 15 17 16 14 20 31 30 28 26 24 12 9 4 6 3 1
46 44 43 44 48 47 46 41 36 38 40 33 27 26 26 28 25 24 22 19 19 19 17 17 16 8 9 9 13 13 14 18 17 19 33 31 31 30 26 27 22 13 4 3 5 9 5
53 47 45 45 46 47 47 45 37 39 39 33 28 24 29 24 25 22 19 21 21 17 15 16 13 9 10 11 13 15 20 22 23 28 35 31 31 30 20 12 10 10 6 3 7 11 11
55 53 46 45 45 47 47 46 39 39 37 31 27 26 24 26 21 15 16 16 16 14 14 14 10 12 10 12 14 21 27 27 31 29 27 24 19 18 17 14 11 11 13 6 12 15 13
56 54 49 46 45 45 46 45 41 38 34 29 24 24 25 22 18 15 13 11 11 12 12 10 11 13 15 16 18 24 29 30 34 30 26 23 20 16 17 12 11 15 15 10 12 13 13
60 58 52 47 46 43 45 44 39 36 31 24 21 19 16 15 13 14 12 13 12 13 14 13 15 17 19 18 24 28 31 29 32 27 23 22 20 14 13 12 12 19 17 17 15 16 16
64 59 55 50 46 43 43 44 40 34 28 22 21 17 18 12 11 13 15 15 12 13 15 17 17 16 13 15 22 29 30 35 33 25 17 19 19 18 14 17 17 24 20 18 16 15 13
70 63 58 53 46 43 42 44 40 31 24 22 20 18 15 9 7 7 10 14 14 17 22 22 19 16 16 16 15 18 26 35 32 28 18 18 19 22 26 23 21 21 25 19 12 12 9
72 66 60 54 48 44 43 40 37 29 22 23 19 19 14 7 6 11 15 18 20 21 20 17 17 16 16 17 19 21 23 32 31 30 22 23 22 27 28 25 22 21 20 24 17 14 14
74 67 62 55 50 45 44 40 35 25 24 23 19 18 14 10 14 19 20 20 20 21 20 19 19 18 18 19 20 21 24 27 27 24 23 20 22 24 24 21 19 17 18 16 15 16 18
77 70 63 55 51 46 43 40 33 24 26 23 20 19 15 17 21 23 22 22 23 23 18 19 20 19 18 18 18 17 18 20 19 17 18 19 15 19 24 18 16 14 14 14 15 17 20
73 70 64 56 52 48 43 40 31 28 28 24 21 21 22 26 26 26 25 25 24 23 21 20 19 18 18 16 15 15 14 14 15 15 16 17 16 16 19 17 16 16 17 16 17 19 21
72 71 65 60 56 49 44 40 32 32 30 26 24 26 30 30 30 28 26 24 23 22 21 19 18 17 15 14 14 12 13 14 15 15 16 16 15 16 17 17 17 17 16 17 16 16 14
71 73 69 67 61 53 46 41 35 35 32 29 28 34 35 34 32 29 27 25 23 21 21 19 17 15 13 12 12 12 12 14 16 17 18 17 17 15 15 16 15 12 11 9 8 8 7
71 78 75 71 65 56 49 43 41 38 34 31 35 39 39 36 34 32 29 25 23 22 20 18 16 14 13 13 14 14 14 14 15 15 16 16 16 13 13 13 12 11 8 6 4 3 2
73 78 75 71 66 60 53 48 46 41 38 34 43 44 42 38 36 35 31 27 23 21 17 15 13 13 15 17 18 17 16 14 15 15 16 16 15 14 14 12 12 11 9 7 5 4 6
80 68 71 66 63 59 56 51 48 44 43 38 48 47 44 41 39 36 33 31 24 20 17 11 8 8 11 12 14 16 16 16 15 16 16 14 17 17 15 15 13 12 10 8 7 8 9
75 68 69 63 61 57 52 48 47 45 43 42 51 50 46 42 41 38 36 32 25 19 15 8 5 6 9 10 13 16 16 16 16 17 17 16 17 18 17 16 13 13 12 11 11 12 14
66 66 62 59 56 52 47 46 45 46 43 49 54 54 50 44 42 39 37 33 26 19 14 9 7 6 8 11 15 17 17 17 17 18 16 17 17 18 17 16 16 15 15 16 17 18 19
70 63 59 56 51 48 46 45 45 46 44 52 58 54 49 44 43 41 39 33 26 20 14 10 7 6 8 10 14 16 18 19 19 19 18 19 19 19 19 18 19 19 20 21 23 23 24
63 61 56 53 49 47 44 42 44 44 44 54 59 53 49 44 43 41 39 34 27 20 16 11 7 5 7 8 11 14 16 19 19 19 20 20 21 22 22 22 22 23 22 24 26 28 30
61 59 55 48 46 44 40 42 42 41 43 56 60 55 49 46 45 43 39 32 27 21 18 13 9 6 6 10 11 14 16 17 19 20 21 23 25 26 27 27 29 28 23 30 31 32 35
61 57 50 47 45 43 42 41 39 41 46 56 60 56 51 47 46 42 38 33 30 25 21 18 13 9 9 9 13 15 14 16 18 20 22 23 26 30 31 32 37 29 30 34 38 38 38
54 50 46 45 39 43 40 38 37 40 48 57 59 56 52 48 44 43 40 35 31 28 24 21 17 14 14 12 12 15 18 18 18 19 22 25 29 32 35 35 38 37 35 37 42 43 41
50 47 41 33 42 40 40 36 37 42 51 58 58 55 52 48 45 42 40 36 32 29 27 24 22 20 18 18 17 15 15 17 21 23 24 26 30 34 36 41 43 42 39 42 46 48 43
45 38 37 35 39 40 36 34 38 44 53 56 55 54 51 49 46 43 40 35 33 32 31 29 27 26 24 22 22 21 21 22 22 22 25 30 34 36 39 42 45 43 44 44 47 47 50
37 35 28 39 36 37 31 33 39 44 51 50 52 51 49 48 45 43 40 37 35 35 34 32 31 30 30 29 28 28 29 28 28 29 30 32 35 37 40 43 45 42 44 45 47 48 50
37 23 33 34 31 34 29 33 39 42 40 36 45 48 48 47 45 42 39 38 38 38 37 37 35 34 34 34 34 35 35 35 35 37 36 38 38 41 42 41 42 44 46 47 47 48 48

GFSGBSN_500_spd_021.txt.gz
Wind_Speed
51 48 45 42 39 40 39 41 42 40 37 36 37 37 37 29 25 26 28 28 23 20 18 14 13 12 14 12 11 11 13 12 12 11 13 17 16 17 21 25 26 21 15 15 6 5 14
52 49 45 43 40 42 40 41 42 44 40 38 39 36 36 30 28 26 29 25 21 21 18 16 17 14 14 12 10 12 12 11 11 12 14 17 21 28 30 27 19 17 17 14 13 10 9
54 51 49 45 42 40 40 39 40 45 42 40 38 37 33 32 25 27 26 25 22 20 18 18 17 15 12 10 10 10 10 9 12 14 13 18 31 28 27 20 21 16 10 4 9 8 6
53 50 50 47 44 38 38 39 39 44 43 41 37 36 33 29 27 26 28 25 22 20 19 16 13 12 7 9 11 10 10 14 17 20 25 27 30 27 25 21 16 12 9 7 10 12 8
55 51 47 47 47 43 41 41 40 41 41 43 35 35 32 24 26 29 25 17 16 18 17 13 13 12 11 13 12 14 15 18 23 28 25 24 25 21 19 15 13 10 9 8 11 14 12
60 57 53 49 48 45 44 40 39 41 40 41 34 33 27 23 22 25 19 15 14 15 13 13 12 12 13 14 15 12 20 22 23 28 24 22 24 25 21 17 11 10 7 5 5 12 13
63 59 57 52 48 46 44 40 40 40 40 39 32 31 24 21 19 20 12 12 12 11 12 13 14 14 14 16 20 18 21 27 24 28 20 15 10 15 12 13 10 15 13 11 11 13 14
72 62 56 53 51 48 46 42 39 37 38 36 32 27 22 17 18 13 11 11 12 14 16 16 15 16 16 19 23 25 26 27 21 22 23 19 18 18 18 13 15 12 18 16 14 11 12
69 62 55 53 51 48 47 44 39 37 35 34 31 24 20 14 15 10 13 16 14 14 14 16 15 16 15 14 19 21 29 28 26 28 21 19 16 10 10 14 16 17 22 16 13 11 11
72 66 60 55 51 50 47 45 40 37 34 33 28 22 19 14 14 12 14 9 11 12 15 17 17 16 15 15 17 18 25 29 26 16 14 14 17 17 18 18 16 18 25 21 16 17 15
78 70 63 60 55 52 48 46 40 37 34 32 25 22 20 14 14 13 14 14 15 19 19 17 17 15 15 16 16 20 24 29 26 27 21 16 19 18 17 20 19 19 16 19 22 26 22
77 72 68 64 61 56 51 49 43 38 35 31 24 23 19 16 18 18 19 21 22 20 15 17 16 15 15 16 17 17 19 22 31 26 26 25 16 19 20 24 18 17 19 18 20 20 18
80 76 72 68 67 61 55 53 46 41 36 31 25 25 22 20 21 24 25 23 22 22 20 18 16 16 16 16 16 16 17 18 21 21 18 17 17 15 18 21 19 18 18 17 17 17 16
82 75 74 72 70 64 60 55 49 43 38 31 29 26 24 23 28 29 27 25 25 21 20 19 16 15 14 13 13 13 14 14 15 16 15 17 19 18 15 18 21 20 19 19 19 17 15
86 74 71 73 74 66 64 58 52 46 41 34 32 29 27 29 33 32 30 28 27 21 18 17 16 14 12 11 12 12 13 14 14 15 17 17 17 15 14 16 18 19 19 17 14 9 6
83 76 71 73 73 71 68 62 56 49 44 38 35 31 31 37 37 35 33 29 25 21 19 18 16 14 13 11 12 11 12 14 15 17 17 16 16 16 15 17 17 16 13 11 9 7 4
67 72 70 71 77 76 72 69 61 53 48 43 40 38 36 42 41 37 32 28 25 21 20 18 16 14 14 14 16 15 15 15 16 18 18 17 18 18 17 15 14 13 12 10 8 7 6
80 73 68 72 80 81 79 74 65 58 51 47 45 41 43 47 45 39 34 30 25 23 22 17 15 14 16 18 19 19 19 18 18 18 18 18 17 17 18 17 15 13 13 12 10 9 10
91 78 78 72 80 81 75 72 66 60 54 52 47 45 48 50 45 39 35 32 28 24 22 16 11 11 12 13 15 16 17 17 16 15 16 15 14 17 17 16 15 14 15 14 14 13 12
91 90 66 82 84 77 72 67 65 60 57 55 49 50 54 52 45 40 38 35 30 25 22 15 9 7 7 9 13 16 17 17 16 15 15 15 14 16 17 18 19 17 18 18 19 19 19
86 68 80 81 76 72 68 66 61 58 58 56 52 54 55 52 46 42 40 37 31 25 19 14 8 4 6 8 11 14 16 17 17 17 16 16 15 17 20 21 21 21 21 21 22 23 25
54 71 78 74 71 68 65 62 58 56 59 57 53 57 58 52 46 44 42 39 34 26 20 13 8 4 4 8 9 11 13 14 16 16 17 17 17 20 22 23 24 24 24 22 24 27 30
73 82 76 76 66 63 58 55 52 53 55 55 55 58 59 53 48 46 42 39 35 28 21 14 10 5 4 6 8 8 9 11 13 16 17 17 18 22 24 25 28 29 22 27 30 32 35
75 74 74 65 57 56 53 53 50 50 49 52 53 58 58 55 50 46 43 40 35 29 22 18 12 7 7 6 6 9 8 10 12 14 16 18 21 24 26 29 32 28 28 32 36 39 41
73 68 59 55 55 53 52 49 47 45 47 49 50 56 58 55 50 47 44 40 36 30 25 20 15 13 10 8 7 6 9 11 12 14 16 19 22 25 27 29 32 33 34 35 40 42 43
63 57 55 54 50 50 47 45 42 42 43 45 50 56 58 54 49 47 43 40 37 31 27 24 19 17 15 13 11 10 9 9 10 12 17 21 24 26 28 31 33 33 34 37 41 43 42
60 56 53 49 47 45 44 40 39 39 42 44 48 54 57 53 50 47 43 40 34 32 28 26 23 21 20 18 17 16 16 15 16 17 18 22 24 27 29 33 36 36 37 39 42 46 47
55 53 50 48 46 40 40 38 37 38 40 43 45 48 54 54 50 45 42 39 35 32 30 27 26 24 24 24 23 22 22 23 23 23 24 26 30 30 33 36 39 40 41 44 45 46 47
47 44 41 38 29 40 41 39 35 36 38 38 43 46 53 52 47 44 41 39 36 35 33 30 30 28 27 27 28 29 30 29 29 31 32 33 35 37 38 37 39 43 44 45 45 45 45

GFSGBSN_500_spd_024.txt.gz
Wind_Speed
51 49 47 47 47 45 41 36 34 35 33 39 39 33 34 38 41 35 31 26 28 24 18 16 14 13 12 13 14 8 10 10 10 13 14 16 16 18 19 22 22 18 18 21 15 13 6
51 50 48 48 48 46 40 37 35 36 33 38 38 35 35 36 39 34 29 27 25 24 19 15 14 15 15 15 12 10 8 11 12 10 13 17 20 21 23 25 23 21 20 14 13 17 10
52 51 51 50 49 47 42 36 34 35 34 36 36 35 35 36 38 31 27 26 26 25 17 13 13 16 16 15 10 8 11 12 10 11 15 18 25 25 22 23 23 21 15 14 16 15 7
55 54 52 52 48 47 45 39 36 34 33 35 37 35 36 35 37 30 26 26 23 20 14 12 14 15 13 10 10 9 11 9 9 15 14 15 19 25 26 25 22 16 13 10 13 14 12
57 56 54 51 50 48 44 39 37 36 33 34 37 35 35 35 33 27 24 22 16 12 12 14 14 14 11 9 10 12 10 12 16 14 15 20 25 27 21 18 18 13 9 7 10 16 14
58 56 54 49 49 48 43 37 37 37 36 34 36 34 34 35 28 25 23 15 12 13 10 11 12 12 12 13 13 14 15 17 17 20 22 20 28 23 22 21 14 10 9 7 10 16 15
63 58 55 54 52 50 47 42 38 39 37 37 35 34 31 34 23 22 19 11 12 10 10 12 12 13 15 13 17 16 18 21 20 25 18 12 22 19 15 14 10 11 11 11 7 10 12
68 64 60 57 57 55 51 46 41 39 37 37 34 33 29 28 18 18 14 10 9 9 10 13 16 17 17 16 20 20 19 21 19 25 19 11 21 22 14 11 11 12 16 12 8 8 9
74 71 66 65 60 57 53 47 44 40 38 38 34 32 29 23 15 17 14 12 14 15 15 18 19 17 17 19 23 25 24 23 22 23 18 16 11 13 18 15 12 12 18 15 9 6 5
81 78 73 68 64 57 52 48 46 45 41 39 34 31 28 20 15 17 15 14 15 17 16 12 13 15 18 18 23 23 27 24 17 27 22 17 17 7 6 10 14 11 15 18 9 10 11
83 82 79 73 67 58 53 47 46 45 43 40 36 31 28 19 16 19 16 16 12 13 13 13 16 16 16 17 18 21 23 29 23 20 17 12 11 13 14 14 15 12 14 20 15 15 15
83 81 80 77 67 58 54 49 45 45 43 40 37 32 26 20 19 20 17 16 16 17 18 17 16 15 15 16 18 21 22 25 23 18 17 15 11 9 17 14 15 16 13 14 16 19 21
88 82 79 77 73 62 54 54 49 46 45 42 38 32 27 22 23 22 18 19 19 21 17 17 16 15 15 16 16 19 20 21 24 25 21 21 20 20 14 16 17 17 14 17 17 18 18
92 88 84 77 72 68 64 57 55 48 47 45 41 34 29 25 27 23 23 23 23 23 20 19 17 16 15 14 15 16 17 17 18 19 18 18 20 17 13 13 18 21 20 20 19 19 19
98 93 87 79 75 71 68 63 59 55 50 48 44 39 31 28 29 24 28 27 25 25 23 20 18 15 14 12 12 13 13 14 14 14 18 17 18 18 18 17 18 18 20 19 20 18 15
97 93 89 85 77 75 74 68 64 59 54 51 47 42 34 32 32 29 32 29 29 26 23 20 17 14 13 12 12 13 13 14 15 16 17 18 18 18 18 18 19 19 18 19 16 13 9
97 96 90 87 78 78 77 73 69 65 60 56 52 45 40 37 34 35 33 32 32 27 22 20 18 16 14 13 12 13 14 15 16 17 18 17 19 19 20 20 19 18 17 15 14 12 10
72 82 90 88 80 84 83 80 75 70 66 60 57 47 43 41 39 38 38 38 35 28 23 21 18 15 14 14 14 16 16 17 18 19 19 20 21 20 20 19 18 17 15 15 15 13 12
60 75 80 82 82 84 85 86 82 76 69 64 60 53 47 44 40 43 42 40 36 30 25 21 18 16 16 18 20 21 22 22 22 21 21 21 21 20 20 18 16 15 16 17 17 16 14
60 79 89 87 84 84 85 84 86 80 74 70 62 56 51 47 44 46 45 41 36 31 26 22 18 15 14 17 18 18 19 20 21 20 20 18 16 16 17 17 18 18 18 18 19 20 20
67 89 101 96 85 78 78 77 84 82 78 73 65 59 52 50 50 52 47 41 37 32 27 25 18 12 11 12 13 16 17 18 18 18 18 16 15 15 16 18 20 20 21 21 22 23 25
70 96 93 87 68 89 81 82 78 76 76 73 67 62 56 51 53 54 50 45 39 33 28 24 17 11 8 10 11 11 13 13 15 16 16 15 15 16 16 17 20 23 23 22 24 26 28
72 95 95 68 84 95 78 78 77 74 76 72 66 63 57 53 58 56 50 45 40 35 30 23 17 11 8 8 9 8 9 12 14 16 16 16 15 16 17 20 22 24 22 25 28 29 33
84 82 75 79 79 89 88 79 72 68 69 68 63 63 59 57 60 57 52 45 42 37 31 24 19 13 9 6 5 8 8 9 11 12 13 14 17 19 19 22 26 22 24 28 32 34 38
104 58 72 86 82 85 76 74 65 65 62 61 59 59 59 59 62 57 52 47 45 41 34 27 21 16 10 6 4 3 6 8 9 11 13 15 17 19 21 22 24 25 26 28 33 34 39
56 62 73 79 74 72 71 63 63 63 58 54 54 54 56 58 61 56 53 48 46 41 36 29 23 18 14 10 7 4 4 4 6 7 11 14 17 19 20 22 23 24 26 29 33 37 38
61 74 76 72 69 65 61 59 59 56 51 48 50 51 56 57 58 56 53 49 47 43 36 30 26 20 17 15 12 10 9 8 8 9 11 14 17 19 21 25 28 30 32 34 38 42 44
72 69 69 64 57 55 55 54 52 49 45 46 48 48 54 56 57 56 51 49 45 41 36 31 29 24 21 19 17 16 15 15 15 16 17 20 23 25 27 31 35 35 39 42 44 45 45
62 58 58 56 54 53 51 50 46 43 41 41 44 46 48 54 56 54 50 47 44 41 37 34 31 28 26 23 20 20 20 20 21 23 25 26 29 31 32 33 39 43 45 46 45 44 43

GFSGBSN_500_spd_027.txt.gz
Wind_Speed
51 49 48 46 46 45 44 42 41 38 35 33 30 30 33 34 32 34 32 36 30 28 29 25 20 14 13 12 13 13 10 9 9 10 13 14 12 11 16 20 21 20 16 18 19 19 16
49 50 49 48 48 47 45 43 41 40 35 32 30 29 32 33 34 36 33 33 30 28 28 25 18 13 14 13 14 13 11 11 12 13 18 15 17 17 20 21 20 17 19 19 19 20 18
50 49 50 49 49 47 46 45 42 39 35 31 30 28 30 34 35 37 33 33 30 27 25 20 13 11 12 14 13 12 9 11 13 12 8 12 16 20 17 23 26 23 19 17 16 13 7
56 53 51 51 48 47 47 46 44 40 37 34 31 28 28 32 35 35 32 32 28 24 19 12 10 11 12 13 11 8 10 11 12 9 7 11 16 16 21 21 20 20 16 7 18 9 5
60 57 53 52 50 48 47 47 44 41 37 34 33 30 29 32 32 33 29 27 24 18 13 12 11 12 11 15 8 10 9 8 9 11 12 16 23 27 24 20 20 17 6 11 13 12 13
63 61 57 54 52 50 49 48 46 43 37 33 32 31 32 32 32 29 26 23 22 14 10 9 10 11 12 10 8 9 10 8 12 11 12 20 23 30 23 22 16 10 8 6 4 11 13
65 62 57 55 54 51 48 45 44 42 38 32 32 33 32 33 30 25 25 19 19 13 8 6 8 10 10 11 13 12 13 12 14 17 17 21 23 20 13 13 13 6 7 8 14 8 15
69 66 63 57 53 52 50 50 46 45 42 36 32 33 33 32 29 23 24 18 17 15 10 5 8 12 13 14 14 13 15 21 21 5 13 10 20 18 17 17 17 9 7 11 6 7 11
73 70 67 63 57 53 52 52 49 49 47 41 35 33 34 32 29 22 21 18 17 15 16 13 13 16 17 17 16 16 16 18 19 13 12 14 9 21 16 16 10 7 8 15 7 4 5
77 73 70 67 62 58 55 54 51 50 49 45 40 36 35 32 27 21 21 17 20 18 15 17 16 17 18 19 22 25 23 16 15 14 15 5 11 16 9 10 13 10 10 8 10 7 6
80 77 73 70 67 63 60 55 53 49 48 47 44 40 36 32 27 23 21 18 22 18 13 17 13 10 12 17 22 23 25 22 17 21 19 11 13 4 4 9 10 11 4 8 16 9 10
85 82 80 77 73 69 64 58 53 48 43 47 47 43 38 32 27 25 23 20 24 16 15 11 10 9 12 16 18 27 25 23 20 11 19 6 15 8 9 9 9 9 9 9 13 8 14
89 86 84 81 78 73 66 61 55 49 43 46 49 46 41 37 32 26 25 24 24 19 14 13 12 12 13 15 16 18 20 20 21 15 16 12 11 9 8 10 11 10 9 7 9 12 13
93 90 86 82 78 75 70 62 57 52 46 47 50 48 44 38 33 30 27 26 25 15 16 15 15 16 16 17 16 17 20 19 21 17 19 15 14 14 15 11 9 13 12 13 11 11 10
101 95 90 85 80 76 72 65 59 54 48 50 51 50 45 39 35 33 29 26 20 17 20 17 18 17 16 16 16 16 18 16 16 20 18 11 16 16 16 15 13 16 16 20 21 20 19
104 101 95 87 83 79 73 67 62 58 52 54 52 52 47 43 38 36 32 24 24 25 22 20 19 16 15 14 14 15 16 18 17 19 21 18 17 18 16 17 17 18 18 17 18 20 15
103 100 99 92 85 81 75 72 66 61 58 57 56 56 51 46 42 40 34 24 26 26 25 24 21 19 18 15 14 14 14 15 15 15 16 17 18 18 17 18 17 18 19 19 19 17 14
100 101 100 97 90 85 80 77 73 65 66 61 60 60 55 50 46 40 30 29 30 30 28 27 24 22 19 16 16 15 15 16 16 16 17 20 19 22 18 19 20 20 18 18 18 18 15
72 80 90 98 94 88 85 83 78 74 67 65 63 64 57 52 47 41 33 37 37 35 31 29 26 21 18 17 16 16 17 16 18 18 21 19 20 22 21 20 19 19 18 19 20 19 17
65 77 86 90 100 91 88 91 87 80 73 72 71 68 61 54 47 43 36 40 39 38 34 31 27 22 19 17 17 19 21 22 23 23 24 24 23 22 21 17 21 19 20 20 22 21 19
54 62 75 95 93 92 91 96 93 90 82 82 77 69 61 54 53 48 43 42 42 42 36 32 26 21 17 17 19 21 21 22 23 24 25 24 22 21 20 20 19 20 20 21 21 20 24
45 51 57 91 101 97 91 96 92 95 92 87 79 69 65 55 55 48 47 49 46 42 37 32 26 22 17 16 17 18 20 21 20 21 21 21 21 19 19 18 18 20 19 20 21 22 25
38 48 49 71 101 105 98 96 93 90 92 87 80 74 67 62 58 52 48 52 49 45 39 35 29 23 19 16 16 17 15 17 18 19 21 21 19 19 18 16 18 16 17 20 23 25 29
47 45 50 69 100 99 98 95 96 83 89 85 77 74 72 59 58 54 54 54 50 46 40 36 30 24 17 14 12 14 13 14 16 19 19 19 19 19 17 18 20 17 19 22 25 28 33
46 45 45 76 105 94 79 92 95 83 82 78 56 74 69 64 58 60 57 57 52 48 44 39 31 25 19 13 10 9 12 12 13 15 16 17 17 18 19 19 19 19 20 22 26 28 35
35 38 54 85 105 84 77 90 84 88 82 74 77 70 73 64 61 59 60 59 57 51 45 39 35 27 22 16 12 9 8 8 12 11 12 14 15 16 16 18 18 18 20 22 26 31 34
40 52 83 99 61 63 90 88 76 76 75 69 68 64 66 63 57 60 61 62 55 52 47 40 34 29 24 20 16 13 9 8 8 8 10 11 12 13 16 17 19 22 25 28 31 36 38
74 79 80 61 68 75 80 83 71 73 70 67 64 54 56 60 58 57 62 59 57 53 48 42 37 32 28 23 19 17 14 12 11 12 13 14 15 17 20 22 27 28 32 34 37 39 42
44 65 70 74 71 70 74 75 73 70 58 57 53 54 51 57 56 56 59 59 56 54 47 43 39 34 32 30 23 20 18 17 16 17 18 21 22 24 25 28 33 36 37 39 41 42 43

GFSGBSN_500_spd_030.txt.gz
Wind_Speed
51 51 51 48 46 45 43 42 42 41 39 37 35 33 30 29 29 27 27 31 36 36 37 35 32 31 20 14 16 16 16 9 8 9 7 9 8 11 13 12 17 22 15 22 15 16 23
55 54 53 52 49 47 44 43 42 42 40 39 35 32 29 27 29 28 26 30 34 33 33 32 31 25 15 13 15 16 15 9 11 10 10 10 10 12 14 8 16 17 23 7 19 16 23
58 57 55 54 52 48 45 44 42 42 40 40 36 32 28 26 30 29 26 29 32 31 28 27 24 18 12 12 16 15 12 9 9 11 7 11 15 12 14 16 19 18 21 24 15 21 26
59 58 57 54 52 50 46 44 42 40 40 39 36 33 29 27 30 29 27 28 30 28 25 27 19 11 9 14 16 13 8 8 10 10 8 10 12 13 15 24 26 17 17 18 21 13 8
64 61 59 57 54 52 49 45 42 40 39 37 35 34 30 28 30 31 26 28 28 27 25 23 15 9 11 12 11 9 9 8 8 7 3 6 13 14 15 14 23 18 18 8 6 20 4
67 64 62 60 57 54 52 48 44 42 39 36 35 34 32 30 30 30 27 28 26 26 24 19 14 11 8 7 5 6 8 7 10 8 7 7 12 18 17 16 13 16 7 7 7 8 12
68 66 64 62 59 55 53 49 47 44 42 38 35 34 32 29 30 30 27 27 25 23 22 20 13 6 6 3 8 11 10 7 6 8 6 12 20 26 22 16 14 5 4 8 6 4 12
70 68 67 64 60 57 54 51 49 45 41 38 35 34 33 32 31 31 26 25 24 20 21 20 15 9 8 6 6 11 9 11 12 14 10 7 20 22 7 10 14 3 7 10 8 8 14
70 70 69 67 63 58 54 53 49 48 44 40 37 37 36 36 34 31 25 26 23 20 21 21 20 17 14 10 9 12 7 10 11 4 11 11 10 6 11 15 14 5 9 14 5 4 8
75 71 70 68 65 62 57 53 51 49 47 43 43 40 39 37 36 31 27 25 21 20 21 25 20 20 17 12 13 13 12 13 17 14 10 11 12 17 15 17 10 16 14 9 10 9 8
80 75 72 70 68 63 59 56 53 49 48 45 44 43 42 39 37 35 27 26 22 19 22 26 17 14 11 9 11 18 15 18 14 17 8 9 16 14 8 11 9 12 17 6 8 11 15
83 82 78 73 71 68 62 57 54 52 50 46 43 41 41 41 41 38 30 27 23 22 19 24 20 6 7 8 10 14 20 19 18 10 14 7 12 7 12 16 6 4 4 3 10 12 20
84 83 81 78 74 70 65 61 55 53 51 49 43 40 40 44 45 40 33 29 28 24 18 22 16 10 8 9 11 13 18 18 19 11 13 10 12 9 4 3 8 10 5 4 13 14 11
91 86 84 81 76 74 69 65 61 57 53 48 43 39 40 45 45 40 35 33 32 20 21 20 14 12 10 11 11 10 12 14 15 16 8 18 11 8 11 9 11 11 14 16 16 6 4
98 94 89 84 80 76 72 69 66 61 56 50 45 41 39 46 47 43 39 38 30 19 17 16 16 15 14 14 14 12 11 12 13 17 21 19 21 19 13 15 20 11 15 14 13 14 11
103 99 95 90 85 79 75 72 68 64 58 52 47 43 44 49 49 48 45 40 26 24 18 21 18 15 15 16 15 13 14 13 14 19 24 25 21 13 12 12 13 14 15 12 17 16 14
106 104 101 97 91 85 79 74 70 65 59 55 50 47 50 51 51 51 49 39 26 29 25 25 21 15 16 15 13 13 12 13 19 21 21 14 11 10 11 14 14 15 17 14 16 16 15
106 104 101 99 95 92 84 78 73 67 61 58 52 49 54 55 53 50 49 35 30 32 27 25 26 19 21 20 17 17 14 14 18 18 19 20 21 24 12 19 13 17 15 15 18 16 19
70 86 100 98 96 93 89 84 78 71 64 58 55 57 55 58 52 49 47 35 36 34 31 29 26 25 24 22 21 21 21 23 15 19 21 22 17 17 15 14 13 16 17 18 20 18 15
47 60 78 90 95 94 89 88 84 76 70 64 61 64 61 53 52 53 45 39 40 34 33 31 29 28 25 23 21 20 22 19 16 20 19 20 18 19 18 11 17 18 20 19 20 18 15
40 46 65 81 86 90 91 88 86 83 76 74 70 62 62 55 54 55 48 43 42 39 39 36 33 30 26 24 22 20 22 20 22 22 24 25 23 22 22 18 24 24 19 19 20 17 21
42 48 61 74 92 96 87 90 88 86 84 81 68 62 61 58 56 49 48 44 43 40 40 37 35 30 27 25 23 21 23 20 22 23 23 23 24 25 21 21 23 21 18 19 19 20 21
35 43 50 66 89 103 103 92 91 93 94 84 69 70 68 63 61 54 51 48 43 42 39 38 32 30 28 28 24 19 18 18 22 20 22 23 22 22 21 22 20 17 15 19 19 21 23
32 34 57 53 75 92 108 105 97 97 94 79 76 74 70 66 63 54 51 50 47 42 37 44 37 34 35 25 20 18 18 19 19 20 22 22 23 22 21 20 20 16 16 18 20 21 26
38 49 55 56 61 84 105 111 103 98 93 87 85 70 55 66 60 56 54 50 47 47 37 44 42 42 32 25 20 17 17 18 17 17 20 21 21 21 22 22 19 17 19 17 21 24 28
39 42 45 53 50 67 100 110 105 99 92 89 84 68 55 55 54 54 55 55 50 54 46 50 45 39 33 27 20 16 14 16 17 15 16 18 19 21 19 20 19 20 18 19 21 25 26
39 37 39 42 43 58 95 105 97 97 92 87 76 63 58 45 45 59 54 57 52 58 56 49 45 41 35 27 23 17 15 13 11 12 15 16 17 18 17 17 15 18 15 20 23 27 30
40 36 39 43 42 62 96 100 88 96 87 86 66 56 27 44 50 54 51 58 56 60 58 50 48 45 38 31 26 21 18 14 13 12 13 14 13 13 15 16 19 20 24 25 28 31 34
36 38 40 40 48 72 95 78 88 82 82 73 70 48 35 36 45 63 57 60 59 50 57 50 45 42 36 32 29 25 22 20 18 16 16 17 16 17 19 21 24 27 27 31 32 34 38

GFSGBSN_500_spd_033.txt.gz
Wind_Speed
54 54 54 53 52 50 49 47 45 41 41 38 37 36 34 33 29 24 23 25 28 31 31 31 34 34 28 24 17 13 14 15 9 8 6 5 3 7 11 15 23 27 14 17 11 20 8
59 58 57 54 53 51 51 50 46 43 42 41 38 35 34 32 30 24 22 25 28 30 30 29 31 29 23 19 12 16 16 14 7 9 6 5 9 16 15 19 22 19 14 16 16 18 13
63 62 61 56 56 55 53 52 49 46 43 42 39 35 34 32 29 24 22 24 28 29 29 28 28 27 24 14 13 16 16 11 7 8 7 9 15 9 15 21 22 18 22 14 11 20 25
66 64 63 59 57 57 55 53 50 46 44 42 39 35 33 30 29 26 24 25 28 29 27 25 27 24 22 15 16 13 11 6 7 8 7 12 7 11 9 18 25 14 20 23 22 22 19
69 67 63 60 59 56 54 52 50 46 45 42 38 36 33 30 28 26 25 26 28 28 25 23 25 21 18 15 9 7 8 6 11 7 7 3 11 15 10 11 20 12 21 17 8 19 9
70 68 66 63 61 59 56 53 51 48 45 42 39 36 32 30 27 26 25 27 28 28 23 22 22 21 16 11 5 6 4 7 11 2 3 2 7 11 14 13 19 20 13 9 9 7 13
71 69 68 66 64 62 60 57 54 51 48 44 40 37 33 30 27 26 26 28 26 24 23 21 20 18 14 9 9 8 6 4 6 9 6 6 10 10 13 18 23 16 9 11 16 2 4
71 71 68 67 65 63 60 59 56 54 51 45 42 40 35 32 29 27 28 29 26 27 22 18 18 18 14 14 13 11 7 1 2 12 9 8 14 17 15 10 14 9 12 8 11 5 7
72 70 69 68 67 65 62 59 57 55 51 47 42 41 37 34 32 29 30 32 28 27 22 19 18 19 18 15 16 14 8 1 2 11 12 6 7 9 12 20 14 10 8 19 10 6 9
71 69 68 68 67 65 63 59 58 56 51 49 44 42 39 36 33 31 32 29 30 27 26 20 17 16 15 14 14 17 6 5 5 3 12 10 14 8 18 23 14 8 8 11 15 9 9
78 74 72 68 66 63 62 60 57 54 53 50 46 43 43 38 35 31 31 30 29 29 26 23 15 16 14 11 18 15 11 11 11 11 6 6 12 17 13 22 16 3 6 3 10 7 9
81 78 76 73 70 65 61 59 56 53 53 51 47 44 42 40 38 37 36 34 33 31 26 23 16 15 12 12 13 20 13 10 14 14 10 2 12 11 15 16 15 6 5 7 14 17 19
87 83 80 77 74 70 65 60 56 54 50 51 52 43 41 41 37 38 35 36 37 36 27 24 17 14 13 12 15 16 12 20 19 16 5 10 6 3 3 7 5 5 10 14 15 18 15
94 89 85 81 78 74 69 64 60 56 52 51 46 48 43 38 39 33 35 40 39 32 23 24 20 15 12 12 13 10 11 15 17 16 11 11 8 9 11 10 6 12 13 15 17 15 18
101 96 91 87 81 76 72 68 65 61 57 52 51 48 45 44 41 41 42 43 37 28 22 21 22 17 14 15 13 9 9 12 19 20 20 19 21 22 14 18 15 15 19 18 17 12 9
109 103 96 92 89 82 76 70 67 65 62 58 53 50 44 46 43 43 42 39 37 26 27 24 23 15 16 16 13 12 11 9 15 20 19 21 23 20 23 15 14 14 12 14 17 13 9
101 107 103 97 93 88 82 75 70 68 64 62 58 55 48 50 48 49 44 39 34 29 30 26 22 17 18 18 15 15 12 10 14 17 19 19 20 18 22 12 14 15 18 19 18 17 13
67 95 98 102 97 94 89 82 75 71 68 66 61 58 54 54 53 50 42 41 32 34 34 29 25 23 21 16 12 14 13 13 17 20 20 19 23 18 9 11 11 15 15 17 18 15 18
45 64 88 91 101 98 94 88 80 74 70 67 62 58 58 56 52 48 46 43 36 38 37 33 25 25 26 23 24 19 19 18 22 21 16 20 21 16 14 15 15 17 18 19 19 17 14
37 41 65 84 89 99 97 92 85 78 74 70 67 64 60 57 49 51 51 42 39 40 40 34 27 27 31 30 28 25 25 24 19 20 20 20 20 18 19 19 21 19 18 19 22 22 13
34 28 39 70 90 91 99 96 89 84 78 76 72 62 58 55 54 56 57 46 43 44 43 36 32 35 33 30 32 29 27 24 19 17 19 22 23 22 22 21 26 21 22 19 18 20 18
35 30 29 42 79 92 97 99 92 87 85 83 74 59 55 52 54 56 58 49 46 46 43 37 35 37 36 32 29 26 25 24 21 23 25 27 27 28 26 25 26 25 21 20 17 15 17
32 30 30 38 50 84 95 94 95 93 92 86 73 64 55 55 57 57 55 45 43 46 41 37 34 36 38 34 31 29 27 25 23 23 24 25 26 27 25 25 24 23 15 21 17 18 19
33 32 33 42 49 63 93 99 94 97 94 84 74 69 61 59 59 55 49 44 46 48 45 41 37 38 41 35 32 29 25 23 20 20 23 23 26 26 23 24 24 19 19 17 18 20 22
31 37 40 42 48 54 76 97 103 100 94 85 77 72 68 67 60 58 50 44 49 49 46 41 42 43 41 35 33 30 26 23 21 23 22 23 23 24 24 24 21 20 19 16 20 23 24
37 38 34 35 40 48 64 90 102 100 91 85 83 79 74 66 59 56 56 48 52 51 50 47 47 40 43 40 36 31 24 20 22 21 22 22 21 24 22 22 22 22 21 19 23 26 22
35 29 30 31 40 36 42 79 95 102 91 88 86 81 73 56 59 45 56 51 50 51 49 46 42 46 46 40 34 30 24 22 21 18 20 20 18 19 20 21 20 20 19 22 22 22 20
34 27 47 46 40 53 45 57 93 101 93 89 85 78 74 55 43 47 47 52 51 51 51 49 48 52 48 40 38 33 26 21 18 16 16 16 17 17 17 17 18 17 17 19 21 22 25
33 29 34 53 39 37 43 64 93 99 93 84 81 76 73 43 33 38 43 51 46 49 54 47 43 37 39 42 39 33 28 24 21 18 17 16 15 15 17 17 18 20 21 21 23 25 29

GFSGBSN_500_spd_036.txt.gz
Wind_Speed
60 58 57 56 55 53 52 51 50 47 45 43 41 38 37 35 35 32 28 26 23 23 25 28 31 29 31 29 21 17 12 15 16 10 8 4 6 8 21 20 21 23 31 24 24 17 18
62 62 62 61 58 55 53 52 52 50 48 46 44 41 39 36 34 34 28 25 23 23 24 27 29 28 29 24 22 15 13 16 14 9 7 5 6 8 17 26 25 21 25 24 12 15 16
66 65 64 64 64 61 57 56 53 51 48 48 46 43 41 38 34 34 28 24 23 23 24 27 27 26 26 24 20 18 17 10 7 7 7 7 6 15 17 14 25 21 21 18 19 13 8
67 69 67 67 66 64 64 62 57 53 48 49 46 43 42 39 34 33 28 25 23 22 24 27 25 25 22 22 18 13 10 4 6 8 8 8 12 9 11 17 20 24 17 12 7 8 7
71 70 69 68 68 65 62 60 59 58 51 49 45 43 42 39 34 34 28 26 22 22 24 26 22 23 20 19 14 10 8 4 9 9 5 6 8 16 14 18 20 22 25 19 8 11 15
72 70 71 70 68 66 65 61 57 57 53 49 45 42 42 38 35 32 29 26 22 22 23 24 21 20 18 17 15 10 6 3 7 4 4 1 8 13 13 17 20 14 18 18 12 6 12
72 73 73 72 70 69 67 64 60 58 52 50 45 42 40 37 35 32 29 26 23 22 23 23 21 18 18 16 14 11 10 5 10 6 6 7 5 12 17 14 18 23 14 13 15 9 5
68 72 73 73 71 69 67 65 62 58 56 52 49 47 43 38 35 33 30 29 25 22 22 22 22 18 19 17 16 14 12 7 10 5 6 7 10 11 13 18 16 21 15 15 11 5 3
69 67 68 71 71 69 66 65 63 59 57 54 50 46 42 41 40 35 33 33 23 26 23 24 21 18 20 16 15 14 14 8 7 3 7 1 6 8 11 11 18 17 19 19 14 7 4
75 71 67 67 68 68 66 64 62 58 57 55 50 48 47 44 38 35 34 32 25 30 26 23 22 19 18 18 14 16 15 10 4 3 3 3 3 9 13 17 19 17 19 17 12 10 12
78 75 73 69 66 65 65 63 62 60 56 54 51 48 48 45 40 39 37 32 30 30 30 22 19 16 18 17 16 12 17 12 12 7 1 2 6 8 18 21 16 13 21 18 14 13 13
84 79 76 74 70 66 63 62 61 58 56 55 53 50 49 39 40 41 37 33 33 32 30 23 19 17 18 19 12 15 15 16 16 9 5 2 3 15 20 19 10 7 12 13 14 14 15
91 86 81 78 75 72 69 65 59 56 55 53 51 48 42 43 40 42 37 36 36 38 27 24 20 18 18 17 14 16 17 20 22 11 5 7 6 13 17 22 17 12 13 13 18 18 19
98 92 88 83 81 75 73 69 64 60 56 54 52 49 46 42 43 42 38 39 41 35 30 28 24 20 19 17 14 15 17 21 26 16 14 13 14 15 13 19 18 17 18 18 20 18 14
101 98 94 89 85 82 77 73 69 64 60 56 55 52 49 46 44 45 42 44 39 34 29 27 29 26 20 16 16 16 16 21 23 19 20 21 19 18 13 15 18 17 15 15 20 19 14
76 88 99 95 89 86 81 77 72 69 65 62 58 57 51 50 53 44 45 44 41 31 30 31 32 23 20 16 17 17 18 17 24 24 25 23 20 17 18 19 18 14 16 19 17 16 14
50 62 84 95 94 89 86 82 77 72 69 67 64 61 54 57 52 55 49 44 42 30 32 34 30 26 21 20 18 19 19 16 18 23 27 25 22 18 20 25 20 20 20 19 17 17 18
53 50 49 79 86 95 91 87 82 78 74 73 69 65 62 62 59 53 48 46 41 35 38 36 34 29 25 20 21 20 22 20 21 23 26 18 18 19 8 7 14 19 16 18 20 19 21
58 53 50 46 70 86 95 93 89 84 79 76 72 68 70 66 61 51 48 45 40 40 41 39 35 30 26 22 23 24 22 19 21 19 19 16 19 18 20 21 17 18 18 21 23 23 21
57 54 52 48 44 70 91 98 94 88 83 79 78 76 73 69 59 53 50 46 41 41 43 40 36 31 29 24 27 26 20 21 22 19 19 17 18 17 16 17 23 23 21 21 24 23 21
52 52 50 48 46 47 86 101 99 94 89 86 85 79 70 66 64 58 54 50 46 47 46 45 40 35 30 28 30 31 27 27 25 23 23 24 23 21 19 22 23 25 22 25 26 22 24
52 49 50 50 44 41 60 103 105 98 94 92 85 76 67 62 58 58 55 51 51 49 50 49 38 35 32 34 32 30 30 26 25 26 23 20 22 24 24 24 26 30 29 23 24 22 20
49 47 48 48 44 41 50 96 107 105 101 94 86 76 68 62 60 61 55 50 51 49 51 49 39 39 35 34 34 32 28 28 27 28 26 26 28 29 31 30 32 35 27 26 25 27 24
45 43 46 42 40 38 43 81 108 107 102 96 86 78 69 63 62 56 57 55 49 49 51 48 41 39 34 41 36 33 34 34 31 29 27 27 28 28 30 30 35 27 27 27 25 24 24
43 43 41 38 36 36 37 66 98 106 104 97 88 80 71 63 56 58 60 61 49 49 53 47 43 37 38 42 41 41 39 37 34 30 27 27 27 26 27 28 29 26 25 24 23 23 23
42 42 40 36 34 33 36 51 80 98 102 96 88 78 71 65 55 61 61 55 52 53 53 53 49 45 42 42 43 42 40 37 33 28 26 25 27 28 25 25 26 22 23 24 23 26 21
42 40 38 36 34 35 36 42 64 90 97 92 87 81 73 67 64 61 60 56 49 57 56 53 53 48 47 43 43 43 42 37 34 28 25 25 25 25 24 25 24 19 22 25 26 21 21
36 35 38 38 37 35 33 37 57 81 94 93 88 83 75 69 67 63 65 50 54 53 56 52 52 50 49 49 46 45 41 36 31 26 23 25 24 22 21 20 18 19 21 22 21 20 19
31 30 28 28 29 33 34 36 56 78 92 92 89 82 74 68 67 48 46 56 53 53 55 55 48 47 45 44 45 44 42 36 32 27 27 23 20 20 19 16 17 17 16 17 18 20 23

GFSGBSN_500_spd_039.txt.gz
Wind_Speed
51 53 56 57 55 53 51 51 51 50 49 48 46 45 43 41 38 35 36 33 30 28 23 22 26 27 31 32 31 30 26 21 18 16 10 10 10 10 18 15 17 19 20 16 11 17 16
59 58 58 59 59 56 56 56 56 53 51 50 47 47 46 44 42 37 36 35 31 28 22 22 25 27 29 31 29 27 23 24 18 11 9 9 6 5 7 14 16 13 19 19 10 14 14
63 63 63 61 61 60 58 57 57 56 55 52 49 50 48 46 43 39 36 36 33 29 22 23 25 26 27 27 26 24 21 18 7 8 8 7 6 9 9 15 17 16 19 22 18 6 11
69 68 67 65 64 63 63 61 59 56 58 57 53 52 49 45 42 38 37 36 34 29 23 24 24 25 25 25 24 21 19 12 9 11 12 12 12 13 9 14 15 19 17 18 6 15 13
70 68 68 69 67 67 66 65 62 59 59 60 61 57 53 47 42 40 38 36 34 30 24 25 24 23 23 23 23 17 18 12 13 14 8 9 11 14 12 14 16 21 19 17 12 15 11
71 71 69 69 71 68 68 68 64 62 61 60 56 53 59 50 46 39 37 37 35 30 25 24 24 22 22 22 21 17 14 10 10 6 4 7 4 11 9 10 14 20 22 24 20 14 9
67 69 72 70 69 70 68 67 67 64 60 59 57 54 51 53 46 41 39 37 34 30 25 25 23 23 21 22 21 19 14 12 10 5 4 7 8 7 7 12 18 18 17 20 21 19 14
72 69 68 68 71 71 72 68 66 64 62 59 57 54 51 49 50 44 41 40 36 27 27 27 25 22 21 21 21 20 17 10 10 8 5 5 6 7 10 16 20 22 13 14 19 15 17
75 72 71 68 65 67 72 69 68 65 63 59 58 56 52 49 46 46 42 38 31 32 30 30 26 22 21 20 21 19 18 10 9 12 2 2 8 8 9 12 16 16 16 18 14 13 10
81 77 73 71 67 63 63 65 68 65 63 60 58 57 55 51 45 41 38 35 35 34 34 29 28 24 18 20 20 20 17 12 12 10 5 4 5 8 8 10 13 12 20 21 20 13 11
87 82 80 76 72 69 67 65 61 67 63 61 57 55 53 49 43 40 38 36 35 35 37 31 30 23 20 18 22 18 15 14 13 12 10 6 8 9 9 18 18 21 19 20 19 13 12
96 89 85 82 78 74 71 67 63 63 62 60 56 54 51 44 43 42 41 37 36 38 39 32 28 22 20 19 20 20 19 15 17 16 15 8 11 11 12 19 19 17 18 24 19 16 15
101 97 91 87 83 79 75 71 66 64 62 60 58 54 49 41 40 43 40 41 42 43 35 35 26 22 22 20 21 20 18 16 16 17 18 14 9 14 16 24 22 18 16 18 17 21 16
71 91 98 91 86 84 79 75 70 67 64 61 58 54 49 47 45 49 43 42 44 42 38 32 28 27 21 22 21 20 18 18 17 21 20 17 11 16 19 21 22 26 24 20 19 20 19
58 60 78 93 91 88 85 80 75 72 67 63 60 56 54 47 54 52 46 45 42 40 38 37 33 33 25 22 23 22 17 17 18 17 22 21 19 21 21 17 23 20 18 18 19 20 20
59 55 56 80 90 91 88 86 80 76 72 68 65 61 54 48 50 49 48 45 42 36 38 40 36 32 24 24 24 21 17 16 18 17 24 26 23 24 23 16 19 20 19 20 24 21 18
60 59 53 52 80 89 90 88 85 81 77 74 70 66 59 56 56 55 51 47 46 35 40 42 42 38 28 25 22 19 17 19 20 21 28 29 28 24 24 19 20 25 24 26 24 25 22
64 58 57 52 51 82 90 90 90 86 83 81 75 71 64 62 63 54 48 49 49 38 43 45 43 36 26 24 25 22 20 22 20 23 27 27 28 26 19 23 19 24 28 28 25 23 25
66 65 56 57 50 52 87 93 92 91 87 83 79 76 72 69 66 52 49 51 47 45 46 46 42 41 34 30 28 22 24 24 24 23 24 22 25 27 23 22 18 14 14 18 24 24 21
64 63 58 56 55 49 58 91 96 94 90 88 85 84 79 77 62 56 54 51 51 43 46 49 45 44 35 30 28 25 26 25 26 23 21 23 21 25 23 20 21 23 19 24 26 29 23
67 61 60 56 56 52 45 67 96 96 95 92 92 87 79 76 67 58 57 52 51 56 51 50 47 45 36 33 30 27 25 23 24 23 23 24 23 20 17 18 22 24 26 29 28 25 26
67 64 59 55 57 53 50 44 81 100 98 97 94 88 81 73 69 66 61 56 54 51 56 53 47 44 39 36 31 28 27 26 27 23 23 22 24 23 22 21 23 27 28 29 25 26 29
63 60 56 53 55 52 52 47 46 84 101 101 96 88 84 77 72 73 59 55 51 48 48 47 45 44 41 33 32 33 30 28 27 27 26 25 25 24 25 26 28 31 29 30 31 31 32
62 60 52 52 52 51 51 48 47 53 87 103 95 89 85 79 75 65 62 60 55 50 48 47 48 49 41 39 37 38 34 32 34 33 28 28 28 28 30 31 35 28 30 32 34 33 32
59 54 49 50 50 51 53 48 44 42 60 91 98 92 87 82 73 68 66 63 60 52 54 50 52 48 43 43 43 41 42 38 36 34 31 30 31 32 33 32 31 29 28 29 29 31 28
52 48 47 48 49 51 51 48 44 44 49 73 99 94 89 83 73 69 68 66 61 56 56 54 61 57 50 50 50 47 43 41 40 37 34 30 32 33 33 33 32 24 28 25 28 30 25
45 43 45 46 47 49 46 46 46 46 47 67 86 95 89 85 77 71 68 66 62 60 58 56 63 61 55 56 50 48 46 41 46 37 32 32 32 34 33 33 30 24 25 28 29 20 21
38 39 41 43 46 44 42 44 42 42 48 71 83 94 91 85 78 71 69 67 64 61 59 58 64 62 59 58 50 49 47 42 43 38 35 33 32 32 31 30 28 22 25 24 20 20 20
32 36 40 41 40 40 39 36 33 35 50 74 84 93 91 83 74 69 67 67 62 55 58 58 61 61 59 55 52 47 45 41 37 39 36 33 32 32 29 26 24 20 20 19 18 19 20

GFSGBSN_500_spd_042.txt.gz
Wind_Speed
57 57 54 53 53 53 53 50 49 48 47 46 44 43 43 42 42 40 40 39 37 34 34 32 29 28 28 30 31 33 35 31 28 20 14 13 12 11 14 5 12 16 15 19 5 8 8
61 60 61 57 56 55 54 53 53 52 50 48 47 45 43 44 42 41 41 40 39 36 35 32 29 28 28 29 30 31 32 29 25 16 12 13 6 9 11 3 13 12 11 13 4 3 3
64 63 63 64 60 59 57 55 54 55 54 50 50 48 51 48 46 45 42 42 40 36 35 33 29 29 28 28 28 30 30 27 21 16 14 13 11 7 7 7 12 11 10 11 11 1 2
66 66 66 66 66 64 61 60 59 57 56 54 52 51 51 51 52 47 46 42 40 35 34 32 28 29 27 27 27 28 27 26 18 15 17 11 14 12 9 8 8 17 8 6 8 13 8
63 65 68 69 70 70 67 66 64 62 59 57 54 53 53 50 51 51 46 45 40 37 35 31 29 30 27 27 25 26 25 23 17 15 17 10 14 11 13 11 11 13 14 9 13 8 12
67 64 63 65 68 70 70 67 67 67 63 60 56 55 54 53 52 50 52 49 42 41 36 32 30 30 25 26 25 24 24 23 18 17 16 10 11 3 7 9 13 13 16 16 16 20 6
74 72 70 66 65 66 70 68 67 67 67 65 59 57 56 55 54 51 44 48 48 43 34 34 30 31 26 26 25 24 23 21 18 15 14 11 10 4 8 9 12 12 16 17 20 22 19
81 79 76 74 70 66 65 66 69 69 67 65 63 59 57 57 55 46 46 41 40 45 37 35 32 28 28 26 24 23 22 20 17 14 11 11 9 7 8 11 12 11 11 15 15 21 14
87 85 82 78 74 70 67 64 63 67 68 65 63 58 58 54 54 47 42 41 41 49 44 31 32 30 30 26 24 23 22 18 15 13 10 11 6 6 5 9 13 13 15 12 16 14 14
96 90 87 83 78 74 70 67 64 62 64 67 61 59 56 52 52 45 44 40 40 41 43 33 36 32 31 25 24 25 21 17 14 15 11 7 6 7 6 6 10 10 16 16 15 13 15
105 96 90 87 83 78 74 70 67 63 60 62 61 60 54 52 48 48 45 42 40 35 33 31 37 34 28 24 25 24 22 16 14 17 12 11 8 12 9 10 14 18 22 20 16 14 12
81 85 91 92 86 83 79 74 70 67 63 61 61 59 55 53 47 50 48 43 42 39 38 31 34 34 30 26 27 26 20 15 18 17 17 14 11 13 11 12 15 17 15 17 20 17 14
63 62 62 72 88 88 83 80 75 71 68 64 62 60 55 49 44 52 50 45 41 42 36 35 31 28 30 28 29 27 21 13 15 16 18 17 17 12 15 14 16 17 17 17 20 21 19
63 64 61 58 67 74 88 85 80 76 72 68 64 63 57 50 47 53 49 46 45 39 38 35 36 32 30 30 29 28 22 14 15 17 21 21 18 14 19 18 21 20 20 17 19 21 21
63 64 64 59 57 71 77 88 86 82 76 72 67 65 60 54 50 53 50 50 45 38 39 41 36 35 38 34 30 29 22 14 15 18 20 21 20 20 20 21 22 22 23 23 24 19 20
74 67 65 65 63 54 76 87 90 87 81 77 72 68 63 57 57 58 54 50 45 37 38 41 41 39 33 32 33 29 24 16 14 17 20 21 23 23 23 24 21 21 22 21 21 23 23
83 77 68 66 63 60 55 81 93 90 87 82 78 74 66 62 63 63 55 48 46 42 40 41 44 41 39 37 34 30 23 18 17 17 20 22 26 27 28 26 20 22 23 24 24 25 27
77 76 75 69 65 62 59 52 90 92 90 88 83 78 71 68 71 63 53 48 48 42 43 41 41 43 37 34 33 29 23 19 19 17 18 18 27 28 25 24 25 26 27 27 27 27 28
70 73 72 72 65 62 62 56 61 94 92 89 86 82 79 75 75 61 54 51 50 43 47 42 41 43 41 39 36 30 23 19 22 22 19 17 23 27 26 28 28 28 29 29 32 31 27
62 71 69 69 64 63 63 57 50 79 94 90 90 91 86 81 69 64 58 52 50 47 48 47 44 44 42 37 36 31 24 24 25 26 25 23 22 24 24 24 24 29 24 20 23 26 19
61 68 68 66 63 62 63 58 51 58 93 92 95 94 86 84 74 63 63 57 52 48 52 49 48 47 44 40 39 30 27 23 26 28 27 26 23 21 20 25 28 31 32 30 28 25 25
57 65 71 68 65 63 62 61 52 48 74 91 95 92 88 77 72 71 67 58 54 50 52 54 50 43 43 39 37 31 29 25 26 28 30 29 22 21 22 23 24 26 25 27 29 29 25
52 62 63 69 66 65 59 59 55 52 58 87 94 90 88 81 79 76 63 61 57 51 53 53 42 38 45 37 36 36 35 32 29 30 27 26 24 25 25 25 26 26 22 26 29 28 30
47 65 64 66 62 64 59 57 56 51 43 64 88 91 89 87 83 70 69 65 61 52 49 50 46 45 44 39 42 40 37 35 32 32 33 30 28 29 28 27 29 21 22 27 31 31 34
52 64 61 64 60 61 56 53 55 51 44 41 64 91 90 87 78 77 74 69 65 57 53 49 47 43 46 45 45 44 44 40 39 34 34 31 29 31 31 27 29 25 24 26 30 31 32
49 62 54 60 55 56 55 52 52 50 44 39 50 79 91 88 83 78 76 72 67 58 56 50 47 44 47 49 52 49 49 45 45 36 34 35 33 34 30 29 29 27 27 29 33 30 26
54 50 51 55 52 52 50 49 50 46 43 36 43 66 84 87 85 81 77 71 68 59 55 53 49 48 49 52 57 52 51 48 46 40 35 34 33 34 29 30 30 29 30 31 33 22 26
40 45 53 50 48 47 47 47 48 47 43 34 33 56 77 86 85 82 79 75 70 64 58 55 54 56 57 57 56 57 53 49 47 42 38 34 34 32 30 32 29 28 30 29 27 26 26
40 45 47 45 46 44 42 43 49 47 43 38 34 40 67 81 85 83 79 74 69 66 60 57 55 56 57 59 60 58 55 50 48 45 39 36 34 36 32 29 29 28 26 26 25 23 22

GFSGBSN_500_spd_045.txt.gz
Wind_Speed
57 58 57 54 51 51 50 48 52 51 48 48 46 43 42 40 39 37 34 35 31 34 34 34 32 32 31 31 32 33 33 34 33 26 23 19 14 12 13 5 5 11 14 9 8 5 4
61 61 61 61 60 59 55 55 52 53 51 53 49 46 44 41 40 38 36 34 35 32 35 34 32 33 30 28 31 32 32 31 32 24 21 21 15 14 10 5 6 8 7 8 3 11 3
66 63 62 61 60 62 62 59 57 54 53 55 50 50 47 46 43 43 43 43 38 37 35 34 31 33 29 27 31 33 31 29 30 24 18 20 15 13 12 4 5 10 1 3 6 7 3
62 64 65 61 60 59 62 63 61 59 56 56 53 50 48 49 47 43 44 42 42 42 39 38 30 32 29 25 31 32 29 27 29 25 18 18 14 12 10 9 7 10 8 6 5 1 6
63 64 64 65 61 60 61 63 62 63 61 59 57 55 52 50 48 46 46 44 43 41 38 39 33 33 29 29 30 31 28 25 27 25 20 16 13 12 9 14 11 13 14 7 8 6 6
67 67 65 64 64 62 60 61 63 63 64 65 62 61 59 56 49 49 47 45 42 41 37 38 38 36 31 29 29 31 26 23 25 24 19 15 13 12 6 11 10 9 12 12 11 11 6
73 71 70 69 69 66 64 61 61 63 63 63 62 62 61 60 54 50 51 46 43 41 40 38 39 36 32 33 30 30 25 22 24 22 19 14 13 10 3 6 5 8 12 11 13 13 10
80 80 78 77 76 74 70 66 64 62 63 64 63 61 59 59 56 51 49 51 45 42 41 37 35 36 34 33 31 30 25 22 23 21 19 13 12 7 3 4 6 7 14 10 12 15 15
90 88 87 84 82 80 78 73 68 66 66 63 63 60 60 59 58 53 49 47 47 46 40 34 32 36 38 36 30 28 24 21 20 20 18 12 9 8 4 5 5 6 10 9 11 10 11
98 98 96 93 89 87 83 80 74 69 67 66 62 60 59 58 58 53 51 44 45 47 42 30 36 36 37 31 30 30 24 21 19 17 17 11 9 8 6 4 4 8 13 15 13 11 11
95 97 96 98 98 95 85 83 80 73 68 65 62 61 60 56 54 54 52 45 42 44 41 33 34 34 36 34 24 26 26 21 18 18 17 13 10 10 8 7 7 12 16 13 12 13 11
65 65 66 68 72 77 79 81 82 80 71 67 63 60 59 57 52 54 50 46 43 42 45 32 32 32 35 34 29 30 28 23 20 17 14 14 15 11 13 9 12 15 16 14 14 14 11
65 65 65 63 58 60 60 64 70 79 78 70 66 63 60 58 51 52 51 47 47 46 43 36 34 31 33 33 32 34 28 23 18 17 13 15 16 14 14 12 10 12 14 16 15 16 14
60 60 62 62 64 59 57 58 74 79 81 77 71 68 64 60 53 55 53 52 53 47 42 40 38 36 32 32 37 35 29 25 18 16 18 17 17 17 19 16 16 16 16 18 15 12 10
69 67 64 61 63 63 60 57 60 80 83 82 78 73 68 63 56 57 56 57 51 47 41 38 42 43 34 32 37 33 27 21 18 17 18 15 17 21 20 20 21 20 20 18 18 15 16
75 75 76 72 64 63 63 59 56 63 81 83 82 80 72 67 60 60 61 56 51 46 42 39 42 40 36 33 33 32 26 20 18 17 17 18 20 22 23 24 25 25 23 21 21 24 24
85 85 88 84 75 66 62 62 60 57 64 82 83 82 76 72 68 68 67 56 52 49 44 41 45 45 33 35 37 34 26 21 20 20 19 19 20 24 25 27 27 27 25 24 24 23 24
70 64 70 76 77 73 69 62 60 63 56 66 86 84 80 79 77 73 67 57 54 50 45 43 41 46 45 37 32 32 28 21 22 20 18 19 19 24 26 27 25 27 28 27 27 25 25
60 65 58 57 75 72 70 67 63 64 62 58 79 84 83 83 82 74 64 62 58 53 49 47 43 43 46 42 40 36 29 25 26 23 20 20 18 20 28 27 28 28 27 27 24 24 27
62 61 66 59 57 74 71 66 65 64 67 59 60 86 88 88 79 70 70 66 61 55 53 52 46 45 45 45 36 34 27 26 28 25 23 24 21 20 20 21 24 27 27 28 30 30 29
62 64 68 67 61 62 68 69 66 65 69 67 60 76 91 90 86 74 70 66 64 57 53 53 49 48 45 40 39 35 30 27 29 26 26 26 21 21 19 20 27 29 33 33 31 30 31
62 63 57 59 60 57 65 69 67 67 68 67 62 58 86 87 77 80 77 67 65 58 54 52 50 47 44 42 39 36 32 31 30 29 30 28 24 24 21 24 25 28 31 30 30 29 29
51 49 56 57 61 54 65 67 67 67 68 67 56 47 74 87 85 84 74 68 66 60 54 49 50 46 43 40 40 38 39 36 33 33 32 31 28 25 23 23 25 25 19 18 22 22 23
34 40 53 52 63 56 63 60 65 62 62 60 51 44 68 87 87 80 74 71 68 58 50 48 46 47 38 35 43 42 41 39 38 34 32 30 27 25 26 26 29 14 17 19 18 21 26
31 39 44 53 58 62 60 57 62 59 60 57 44 34 59 83 82 79 79 73 71 63 55 50 45 42 40 36 43 44 45 42 39 37 34 29 27 31 31 30 28 22 16 19 21 18 24
31 37 46 55 54 57 50 54 58 58 58 50 38 33 50 75 81 81 79 77 74 64 60 54 49 46 47 47 45 49 49 44 43 42 38 31 29 33 36 35 31 16 19 20 21 17 20
31 38 44 55 55 49 46 52 58 53 52 46 39 34 44 67 77 81 81 79 75 68 61 57 51 48 47 49 48 49 55 52 44 44 39 33 32 33 32 35 30 21 21 21 22 23 24
30 41 55 53 47 42 47 49 54 49 46 45 41 34 38 65 74 81 81 82 79 72 63 58 55 52 48 55 57 55 57 53 48 43 37 36 34 33 32 33 32 21 23 24 24 23 24
46 47 44 43 46 42 43 44 46 44 44 44 40 33 32 56 56 77 81 80 78 74 67 60 52 48 49 50 58 57 56 54 50 44 41 41 35 33 33 29 27 25 23 23 22 24 23

GFSGBSN_500_spd_048.txt.gz
Wind_Speed
57 55 53 53 52 51 51 49 46 45 46 44 44 43 43 43 40 42 37 34 33 32 29 27 27 29 30 30 30 29 28 29 31 29 29 27 24 17 14 13 9 7 10 10 5 8 10
60 59 59 57 56 56 56 55 53 50 48 49 48 46 44 43 42 43 43 37 33 33 29 29 28 27 31 29 28 27 28 28 30 27 27 24 22 16 13 11 9 3 3 11 12 10 9
56 56 58 61 59 59 59 57 54 54 52 52 52 50 47 45 44 41 42 41 37 37 35 35 31 31 31 29 28 24 27 28 29 26 24 22 19 18 14 10 9 5 3 7 9 3 1
57 59 57 56 57 58 58 57 59 56 54 53 51 51 51 50 46 42 41 41 38 38 35 33 34 35 37 33 28 24 27 27 28 25 22 21 17 17 15 7 9 5 8 5 6 6 7
56 55 55 57 56 57 57 58 56 57 57 56 54 53 51 51 51 47 42 43 38 38 38 34 35 33 34 32 31 25 29 25 27 24 20 20 16 15 17 9 9 6 9 12 10 7 5
59 59 59 58 59 59 59 58 57 56 56 57 58 56 55 54 53 50 48 46 44 39 40 37 34 32 29 32 35 28 30 25 26 25 19 19 15 14 13 7 5 8 16 13 13 11 4
66 67 65 65 63 62 61 60 60 59 56 54 57 59 57 56 56 54 53 50 49 45 42 38 35 34 31 32 35 30 31 25 24 25 18 18 15 13 10 4 6 5 11 13 15 13 9
73 73 72 72 70 70 68 67 64 63 62 59 58 56 58 58 57 55 54 52 51 46 42 40 38 34 32 33 34 29 30 26 24 24 17 17 13 11 9 4 5 5 7 9 13 17 12
81 81 80 80 79 77 75 73 72 70 68 64 62 60 59 58 58 56 55 54 50 47 44 37 39 36 34 35 33 31 31 26 25 23 17 14 12 10 7 5 7 8 9 14 13 12 12
88 87 87 87 86 85 84 81 78 76 73 69 67 63 62 61 58 56 53 53 49 47 47 39 36 40 34 37 33 33 33 27 26 22 16 14 11 9 5 4 7 9 10 11 10 6 7
86 88 87 87 87 86 86 87 86 80 78 74 71 67 66 64 61 57 52 51 49 48 45 43 38 38 34 37 29 31 28 28 25 24 17 14 12 10 5 10 7 9 11 12 10 9 11
63 62 64 63 64 65 65 65 71 71 73 71 72 72 69 67 64 59 55 51 49 44 47 43 39 31 33 35 35 33 32 30 28 26 17 15 12 12 10 13 11 10 14 12 9 10 10
53 55 56 57 55 54 52 51 53 53 59 64 68 72 73 71 63 60 57 55 51 48 45 43 40 31 30 31 36 38 35 31 27 23 16 14 13 16 15 12 15 12 11 12 13 13 9
54 54 55 56 57 54 54 54 54 53 50 62 70 76 75 72 68 63 61 59 58 48 42 42 40 38 35 33 36 40 38 35 31 23 22 17 17 16 17 15 18 16 16 13 11 11 10
50 54 55 55 57 57 57 55 53 54 55 51 70 76 78 73 72 69 67 68 55 47 45 44 44 39 39 34 34 42 40 33 28 23 21 19 18 16 20 20 21 23 21 18 18 17 16
54 56 60 61 61 64 67 62 57 55 55 59 53 68 75 75 71 73 72 68 56 50 49 47 46 44 43 35 35 45 42 37 31 27 26 20 21 20 21 23 23 25 23 21 21 18 18
70 70 69 69 68 65 67 65 62 60 56 59 64 55 66 76 77 79 80 63 58 57 54 50 49 46 45 39 39 42 39 31 30 28 26 23 23 23 22 23 24 25 28 26 23 23 21
73 76 72 72 72 72 69 69 66 64 63 60 64 61 50 76 83 84 80 62 62 62 58 53 50 50 46 39 43 47 42 28 28 29 28 23 25 24 21 24 25 27 29 30 28 26 25
79 79 79 78 78 80 82 78 74 69 70 66 63 64 62 70 86 85 71 71 69 66 62 54 50 49 46 47 43 44 36 33 33 32 29 26 27 25 25 25 26 26 27 28 30 30 25
81 80 73 69 65 66 69 69 70 75 74 70 67 70 73 64 73 81 76 77 74 68 64 56 50 48 49 50 46 41 38 36 34 33 31 30 29 25 23 19 21 25 26 28 29 34 28
57 54 54 52 53 58 57 58 55 62 72 74 72 71 70 58 62 79 83 76 74 72 66 60 54 52 49 47 49 50 42 36 34 33 34 35 33 27 22 21 25 27 29 29 32 33 33
60 66 64 57 55 55 59 55 60 56 66 72 75 66 62 61 53 72 82 82 78 73 67 60 52 50 46 45 42 45 44 42 41 36 36 37 33 29 26 23 25 28 30 32 32 31 28
64 49 56 61 59 57 56 59 59 54 65 67 70 62 59 62 50 69 82 79 77 73 68 59 50 48 48 44 36 40 45 43 41 39 38 38 35 30 26 24 26 30 28 28 24 23 22
44 42 48 56 58 59 56 59 62 55 67 61 61 60 58 62 55 50 70 76 78 73 69 64 60 53 50 43 45 38 39 43 43 40 39 38 35 31 29 27 31 21 20 21 22 21 22
30 37 42 49 57 58 56 62 63 60 62 59 61 61 59 62 52 45 70 78 79 78 76 67 59 52 47 47 49 49 40 47 44 42 40 38 37 34 33 28 27 24 22 21 21 17 21
18 22 28 35 50 55 55 60 62 57 58 56 58 59 55 53 51 42 64 80 80 79 77 65 61 54 47 50 54 52 52 42 47 44 41 38 35 36 34 33 30 19 21 22 23 13 20
12 16 31 35 45 47 58 57 62 51 52 60 58 54 46 49 46 45 59 80 81 80 73 65 59 50 44 47 50 45 48 51 48 45 45 41 37 36 32 33 26 17 22 22 28 16 24
17 24 36 37 44 57 55 64 48 50 50 56 52 45 46 49 42 44 51 78 84 76 67 65 62 52 48 47 54 48 45 50 49 46 44 44 40 36 34 34 28 13 20 27 22 26 25
16 22 30 37 50 45 47 46 47 47 51 50 46 45 44 37 31 37 51 60 76 76 64 67 58 53 50 49 52 55 48 46 50 50 46 50 42 39 36 34 27 21 20 23 27 26 28

GFSGBSN_500_spd_051.txt.gz
Wind_Speed
55 56 57 57 54 53 54 52 50 48 47 46 43 42 39 38 38 38 38 36 34 31 30 31 29 26 29 28 27 28 28 27 27 24 24 23 25 23 20 19 15 7 5 10 10 10 11
58 57 57 57 58 55 56 56 53 51 49 47 46 46 43 42 41 38 37 37 37 34 30 30 34 31 30 30 27 26 26 26 27 24 22 21 23 19 18 19 9 10 6 12 8 10 8
55 56 56 56 57 56 55 55 56 55 53 52 48 46 46 47 45 42 40 37 37 33 31 29 34 34 30 32 31 32 29 26 27 25 21 19 21 17 17 17 10 7 7 8 9 1 1
52 53 54 54 55 57 56 53 52 54 54 52 52 50 46 46 44 45 42 40 40 34 31 31 30 34 28 31 30 29 31 26 27 26 21 18 20 16 15 16 8 5 5 9 18 11 9
52 52 52 52 52 52 52 54 56 52 53 52 52 52 52 49 49 45 44 42 42 39 35 32 29 36 31 30 28 27 30 27 27 26 21 17 18 14 14 14 6 9 6 13 18 10 19
53 53 55 55 55 55 54 54 52 51 53 52 52 51 52 53 51 49 46 45 45 42 38 36 32 35 33 31 31 26 28 29 27 25 22 17 17 13 12 10 5 7 11 11 13 20 14
58 57 58 58 57 57 57 56 56 56 55 55 56 51 49 53 53 51 50 48 47 46 41 40 39 37 38 33 34 29 29 29 26 25 22 16 16 12 5 12 6 14 14 12 18 18 14
63 64 64 64 64 63 64 63 61 61 59 58 56 56 53 49 48 51 51 51 50 50 45 43 42 38 40 38 36 31 29 28 26 24 22 16 14 13 7 6 7 9 8 10 19 23 16
70 71 71 71 70 70 70 70 68 66 65 63 62 61 58 55 50 49 48 51 51 52 51 42 40 40 37 40 37 32 28 28 29 27 21 15 15 13 7 5 8 10 7 19 17 20 14
76 77 77 78 77 75 75 74 74 73 71 69 68 65 63 62 58 54 51 51 51 50 51 48 40 40 38 37 44 29 28 30 33 28 23 15 15 13 8 6 6 6 9 17 16 12 11
77 78 79 79 79 78 77 77 76 76 74 72 71 70 69 66 63 58 56 54 54 52 48 48 48 42 40 38 37 31 29 33 30 29 28 15 16 15 12 10 8 10 16 8 10 10 15
70 71 70 69 69 68 69 70 68 65 67 67 70 68 66 69 69 64 61 58 58 53 52 48 48 43 41 37 39 34 35 33 30 32 31 21 16 16 16 14 11 13 10 9 7 8 12
57 53 49 48 48 47 46 48 50 49 51 50 54 58 59 60 65 67 66 64 61 60 52 52 47 45 39 37 37 35 34 36 33 34 29 22 17 19 17 15 16 15 15 6 11 13 8
46 47 47 47 47 47 47 46 47 46 48 49 45 48 57 60 67 69 68 68 69 59 56 56 47 42 42 38 37 34 35 37 36 33 29 25 23 18 14 17 15 19 16 14 14 12 13
42 42 41 41 38 38 40 41 41 44 46 48 49 47 44 57 61 72 75 69 70 62 57 53 49 43 41 42 38 36 36 34 34 34 31 28 25 23 19 19 22 17 21 15 18 19 17
41 43 44 45 46 47 45 46 48 48 48 47 47 46 45 46 50 63 77 78 66 63 59 56 52 49 45 41 42 41 38 37 37 37 31 33 27 28 22 22 24 26 19 22 23 21 20
47 49 48 49 50 49 51 52 52 54 55 60 60 55 48 52 58 65 75 80 65 63 61 60 55 53 50 45 41 43 37 38 39 40 37 36 32 33 28 22 22 25 28 24 21 21 18
55 55 56 56 57 56 58 60 60 60 61 64 65 62 56 58 64 63 61 70 67 66 67 66 63 58 53 53 49 41 39 41 36 38 40 38 32 32 26 23 21 22 23 26 26 21 30
57 58 60 62 63 65 67 68 69 67 68 68 68 65 64 64 66 63 48 44 68 73 69 69 65 59 50 48 50 47 44 44 44 41 40 38 42 35 26 27 25 27 26 21 23 26 31
59 62 65 68 72 74 72 72 68 67 67 66 70 69 69 69 63 59 54 36 63 74 74 69 61 54 46 53 46 44 45 45 41 38 38 38 42 37 34 22 20 21 24 25 28 33 31
66 67 70 76 79 77 72 69 66 68 70 71 76 75 67 69 67 59 58 50 61 74 75 74 70 44 50 47 52 46 40 50 46 45 46 43 42 39 34 29 23 21 21 25 28 29 31
68 74 81 80 64 56 53 56 58 71 71 76 78 77 71 65 60 62 58 61 56 70 74 75 73 61 38 40 38 45 50 44 44 45 43 45 43 39 37 35 32 30 28 27 25 28 30
80 76 60 52 52 54 54 52 45 54 64 67 65 64 62 69 63 69 60 53 51 67 74 73 69 60 43 43 33 50 38 51 47 49 49 45 44 41 41 34 32 37 29 29 25 28 27
60 55 57 59 62 65 62 60 59 60 66 63 66 55 62 62 68 65 55 54 53 60 70 74 71 69 55 51 43 51 55 53 52 45 49 49 47 43 40 37 43 28 27 23 25 23 26
53 59 62 65 64 62 62 63 61 58 62 61 62 60 56 51 58 61 59 56 55 53 71 63 62 65 61 59 51 40 40 33 53 49 48 46 44 45 44 41 36 30 31 23 23 21 24
42 41 41 42 45 49 49 59 63 69 59 58 62 60 56 46 53 58 55 55 56 51 69 53 52 56 62 61 51 47 51 43 48 46 51 53 50 47 42 42 42 27 26 22 24 25 23
20 17 21 32 37 43 54 61 60 60 62 55 52 59 54 41 45 47 45 49 48 47 60 68 48 52 65 56 53 52 47 46 45 52 44 49 49 47 45 45 37 28 23 25 32 8 22
9 13 16 22 37 46 51 55 53 55 59 57 48 57 50 36 39 37 36 42 50 44 59 61 67 63 52 58 57 57 53 54 47 50 36 47 45 43 41 41 40 30 22 26 17 27 34
4 6 9 20 37 48 55 51 51 47 50 48 56 53 42 38 34 38 34 36 48 37 49 64 59 48 54 50 58 52 58 49 52 49 46 42 41 42 42 40 33 26 26 23 23 24 30

GFSGBSN_500_spd_054.txt.gz
Wind_Speed
61 63 61 62 56 53 52 51 50 48 47 47 46 44 43 43 40 35 36 33 34 34 33 31 28 27 27 25 29 28 28 24 22 23 23 21 20 22 24 19 11 8 5 9 16 13 10
54 56 57 59 60 58 55 55 54 54 51 49 48 48 45 43 42 39 35 36 34 33 33 32 33 30 27 24 25 27 29 28 25 23 24 20 17 20 21 17 11 9 11 10 10 10 9
54 54 51 51 55 57 56 55 55 54 53 53 52 49 49 45 44 41 41 40 40 37 32 31 31 29 26 25 23 25 24 29 27 25 24 21 15 17 20 17 14 8 6 7 8 7 9
52 51 48 49 50 53 53 53 53 54 53 51 52 51 51 48 47 45 42 40 40 40 37 34 32 28 20 29 24 25 24 26 24 21 22 20 16 15 18 15 14 6 3 5 14 19 16
50 49 49 49 49 50 50 50 50 51 52 55 53 50 48 48 47 46 45 44 42 40 39 37 35 32 23 26 26 25 25 27 24 22 22 19 16 15 16 14 9 11 12 8 23 19 18
48 47 46 47 47 49 49 49 48 46 46 46 47 50 48 46 45 44 44 45 45 44 42 39 38 34 33 26 27 27 26 28 25 24 22 20 16 13 15 11 8 3 13 12 16 26 22
50 50 49 49 50 49 49 49 50 50 49 49 49 49 45 44 46 43 43 44 44 46 44 40 41 36 36 32 30 31 27 30 26 26 19 21 18 12 14 11 9 13 24 14 14 26 25
55 55 55 55 55 55 55 55 54 54 53 52 51 51 51 49 48 47 46 45 47 45 45 42 43 37 38 35 34 36 33 28 30 25 23 24 17 14 12 7 8 10 11 18 10 16 25
60 60 60 59 60 60 60 60 59 59 57 57 56 56 54 54 51 49 49 48 50 46 50 39 40 42 35 41 38 37 35 27 30 29 27 24 18 15 11 10 8 6 6 23 21 21 14
65 64 64 64 64 64 63 63 63 63 64 64 62 61 59 58 57 55 54 52 50 49 48 45 37 41 40 38 39 35 34 28 36 27 29 25 19 16 13 11 11 7 4 12 17 25 11
70 71 70 69 69 68 68 66 67 67 67 67 66 65 64 62 62 59 59 57 54 50 49 43 41 40 37 42 35 33 32 32 33 27 32 21 21 19 15 13 14 11 10 9 11 23 19
74 73 71 70 69 68 68 68 67 67 67 67 67 65 65 62 59 62 62 60 57 53 53 48 48 42 38 36 36 35 36 36 31 32 33 27 23 23 17 17 16 16 11 10 11 11 11
70 69 67 66 65 64 62 59 59 60 60 61 62 60 59 59 55 62 64 64 59 62 53 50 51 47 40 37 36 35 37 38 37 37 37 32 31 26 21 20 19 20 15 13 14 9 4
61 59 58 56 54 49 46 46 46 45 44 43 46 48 50 50 57 63 65 66 69 58 56 54 52 54 48 41 36 35 39 38 39 37 36 34 31 26 20 21 19 21 20 17 11 17 9
54 49 46 44 44 43 43 42 42 42 42 42 43 43 41 41 43 49 59 68 65 54 57 55 54 54 53 44 40 38 37 38 37 38 37 34 32 24 29 23 25 23 24 15 14 18 20
44 45 44 43 42 39 39 38 39 38 38 39 38 39 39 42 47 52 53 63 57 48 56 54 52 54 52 47 44 39 39 39 39 38 35 36 27 28 24 27 26 27 18 20 25 25 22
43 43 42 41 41 40 38 39 42 43 44 44 44 42 38 42 51 57 55 46 42 51 59 60 60 60 56 34 45 42 40 39 39 36 40 38 28 26 32 39 26 29 29 29 27 27 25
41 40 42 42 43 42 44 45 46 48 51 53 50 43 44 50 53 52 43 29 27 38 59 57 59 60 45 36 32 41 45 44 39 36 43 42 35 34 35 31 29 28 28 30 29 26 26
40 43 45 46 48 49 49 50 51 51 54 55 58 56 54 58 61 52 43 40 38 35 46 58 63 65 58 46 43 35 38 43 42 41 43 41 47 34 40 34 38 29 28 28 29 28 32
45 47 49 51 52 53 53 53 53 54 55 58 63 65 62 64 60 55 50 44 45 42 47 54 59 61 56 55 47 46 32 36 43 47 40 35 48 51 46 33 23 29 31 30 23 27 27
47 49 51 53 54 55 56 57 57 58 60 63 62 69 68 69 65 59 57 52 54 53 50 48 58 64 60 52 47 49 46 38 50 50 42 44 46 46 43 39 26 28 24 30 32 35 35
49 52 56 59 59 60 64 66 66 64 63 62 69 69 70 67 65 64 60 57 54 53 54 53 54 59 62 53 52 56 41 30 40 51 48 50 48 48 49 44 40 35 33 28 27 23 31
55 58 59 59 60 63 66 68 69 69 71 69 70 67 65 63 66 66 62 56 50 51 56 54 45 59 66 62 57 50 32 33 39 39 46 50 48 47 51 45 40 46 39 29 31 27 29
58 62 67 69 72 78 80 79 79 74 72 73 76 69 69 66 62 62 56 54 50 54 51 47 48 52 59 60 51 48 43 42 36 49 47 50 50 50 49 42 51 45 44 41 45 36 32
66 71 76 73 65 59 57 55 57 59 59 61 69 71 64 63 56 48 57 58 55 55 54 48 48 43 55 50 64 43 41 33 45 53 52 51 55 37 54 52 49 46 39 39 39 31 28
51 52 53 55 56 57 56 56 55 56 56 55 49 52 62 56 59 46 47 58 60 58 51 48 47 44 48 56 56 67 56 49 41 42 47 47 47 55 50 52 54 45 38 36 33 35 24
48 47 44 45 45 50 55 60 64 64 61 55 52 46 51 57 54 47 49 50 58 55 49 47 45 43 46 65 66 72 49 52 31 39 44 54 47 49 51 49 46 43 34 35 37 23 16
28 29 30 31 36 33 40 48 54 62 63 56 50 50 48 50 49 52 43 46 49 46 50 43 47 49 47 48 56 66 71 63 52 40 34 49 54 46 44 49 46 37 40 41 29 17 20
23 22 18 21 27 29 32 39 47 55 54 58 60 55 51 51 45 43 40 30 36 42 43 45 43 41 47 48 50 49 62 57 58 59 35 36 52 41 48 46 47 43 40 32 23 27 27

GFSGBSN_500_spd_057.txt.gz
Wind_Speed
57 56 55 54 55 58 60 63 59 56 54 50 46 45 44 43 41 37 36 36 33 32 29 29 28 28 29 27 26 18 21 18 19 20 21 20 18 17 17 19 21 18 8 12 14 15 12
61 58 56 55 53 54 57 60 65 64 59 52 50 48 46 46 44 41 40 38 37 33 28 28 28 27 25 23 29 24 21 18 16 19 21 21 19 17 14 16 20 19 11 10 8 5 11
58 60 59 57 55 57 54 53 56 58 64 58 55 54 51 49 47 45 41 40 39 37 36 33 31 31 21 19 27 20 22 22 14 19 18 20 18 18 15 14 16 19 11 10 7 4 10
57 55 58 59 56 55 53 53 53 51 52 55 57 56 54 52 50 48 44 43 42 40 38 39 35 33 21 30 30 22 22 20 18 18 18 20 20 18 14 12 13 15 6 8 3 7 18
54 55 52 51 51 52 53 50 49 49 48 47 52 51 51 51 51 48 45 44 45 44 41 41 37 33 24 30 33 28 21 21 22 17 18 18 20 18 14 12 12 11 6 4 6 14 25
41 41 42 41 40 42 47 48 42 43 43 43 44 46 48 47 49 48 43 41 45 45 45 40 39 35 30 29 33 30 27 26 22 20 19 18 22 17 14 11 9 16 14 7 12 13 22
40 41 43 41 43 41 41 41 42 39 41 41 38 38 38 38 38 41 42 37 42 45 46 40 43 41 35 33 31 34 33 30 26 21 19 19 22 13 16 13 15 9 11 9 9 16 19
44 45 46 46 45 45 46 45 45 43 45 43 42 43 40 39 38 41 37 37 43 48 44 41 42 41 34 39 34 32 37 33 30 24 27 23 18 15 17 16 18 6 8 7 16 17 16
49 49 49 48 50 49 48 48 49 48 49 47 47 45 44 44 44 45 43 42 45 42 45 37 37 42 30 43 37 34 38 35 30 33 27 27 11 23 17 18 16 7 7 13 26 26 20
55 55 54 55 55 55 54 53 52 51 50 50 50 49 49 48 48 48 48 46 46 46 45 36 32 40 35 35 43 32 36 35 35 31 28 32 19 24 21 18 14 10 10 14 28 29 22
61 60 60 60 59 59 59 58 56 55 54 54 54 54 52 51 51 51 51 50 48 46 47 40 40 36 34 38 36 29 33 37 33 26 33 23 23 22 22 15 16 12 19 17 15 17 18
65 64 64 65 65 64 63 61 59 57 56 56 57 57 57 54 52 55 54 53 52 50 51 46 45 40 35 32 32 29 35 35 32 32 35 31 27 27 22 20 20 17 19 16 17 14 11
69 69 68 66 66 65 64 62 60 59 58 57 57 57 57 56 50 53 54 55 55 55 52 51 51 48 42 38 34 33 29 32 36 34 33 29 28 29 29 24 24 22 24 21 20 16 6
70 68 66 64 63 60 60 60 57 53 52 53 52 54 54 52 49 51 53 56 59 49 50 52 54 56 52 44 40 34 33 33 34 33 34 34 33 30 26 27 23 27 24 24 20 15 13
65 64 62 60 58 54 51 51 49 47 44 42 43 44 46 41 41 44 48 57 54 51 51 52 48 55 55 49 44 40 39 35 33 33 33 33 34 26 29 25 28 24 25 19 22 24 20
59 58 56 54 50 46 42 41 40 41 41 42 42 41 40 42 44 46 48 50 48 45 48 53 58 56 55 40 39 37 38 38 34 33 32 33 34 30 32 29 31 29 26 26 27 28 27
53 50 48 46 44 42 41 41 41 40 40 40 42 43 37 41 46 48 41 29 24 31 46 56 51 60 60 47 36 28 28 36 36 34 31 33 36 33 31 36 35 31 33 31 29 31 31
47 46 45 43 41 42 42 41 40 38 37 39 40 39 37 40 44 37 25 18 20 24 30 40 43 51 59 52 38 37 31 39 33 34 35 32 37 41 38 36 34 32 29 33 37 28 30
45 41 41 41 42 43 43 43 42 42 42 43 45 44 45 47 44 37 29 25 24 27 31 34 36 46 46 55 59 48 38 34 38 28 38 33 41 44 40 43 39 39 35 30 34 37 35
37 39 41 42 43 44 43 43 44 45 47 48 51 51 51 48 42 38 34 31 31 33 33 33 32 36 55 52 52 58 47 39 40 43 41 34 39 44 42 42 38 44 37 32 36 41 35
38 39 40 41 43 44 44 45 47 47 48 50 56 55 53 50 41 43 45 39 36 34 34 37 38 33 33 59 51 47 49 42 44 44 46 37 45 44 40 46 46 39 34 35 39 34 35
36 37 40 42 45 47 46 46 48 49 49 52 57 54 55 53 51 50 50 44 43 38 40 40 39 37 37 42 56 53 50 38 35 45 46 40 47 48 43 41 47 49 39 40 28 28 37
40 42 44 45 47 47 48 49 50 52 55 54 57 55 56 54 55 55 48 41 44 47 49 47 42 42 44 38 55 66 62 56 39 29 45 48 46 51 49 40 51 54 46 38 35 32 31
42 45 47 48 50 52 53 54 54 55 55 54 57 56 59 63 64 59 55 52 49 50 50 52 51 49 35 40 44 55 61 62 57 43 34 48 51 52 50 42 51 47 53 43 38 36 37
47 49 50 53 55 58 59 60 60 61 59 58 57 56 59 60 61 59 56 56 53 55 55 53 53 44 44 40 46 51 57 69 62 48 34 40 43 47 52 53 54 51 46 48 49 44 41
49 53 57 60 64 67 68 69 69 70 70 68 65 62 63 62 60 51 49 43 51 53 57 57 51 45 45 41 48 55 56 61 60 60 34 27 45 51 47 51 51 47 45 44 52 53 48
56 52 49 47 48 50 52 56 58 58 58 60 63 63 71 67 65 61 59 49 46 46 53 53 51 45 41 44 48 44 47 55 55 54 52 37 30 51 47 39 40 50 40 40 50 46 40
37 44 50 54 54 53 54 54 54 54 51 51 47 51 60 72 62 60 49 45 43 46 41 46 44 45 37 43 44 49 48 55 55 52 39 34 20 37 45 46 45 40 33 41 44 36 36
33 33 34 35 36 36 39 40 41 47 52 50 47 44 46 54 50 54 46 45 28 40 38 39 41 40 39 41 40 40 40 58 60 59 52 49 25 26 33 45 49 46 43 44 40 43 38

GFSGBSN_500_spd_060.txt.gz
Wind_Speed
61 63 64 64 61 60 58 57 55 54 52 52 53 51 50 53 50 46 44 41 38 35 33 29 30 27 25 17 22 25 22 22 22 20 17 18 18 15 13 14 16 16 21 19 12 10 8
58 58 58 60 59 60 60 58 56 54 53 51 53 56 57 58 54 48 47 45 42 37 36 33 31 28 22 15 25 25 21 22 24 21 17 14 18 15 13 14 17 19 21 15 9 9 8
55 57 58 59 60 60 60 61 57 56 54 52 50 52 53 59 57 53 48 46 45 42 39 38 34 30 20 22 27 19 21 26 20 22 19 16 14 15 16 13 16 18 17 11 4 7 10
51 53 54 56 57 57 59 56 55 57 55 56 52 52 47 55 64 55 52 50 47 46 44 41 38 35 26 32 30 26 27 27 24 22 22 19 13 13 14 12 15 16 13 9 8 11 13
45 43 42 51 54 57 56 56 51 50 52 52 53 50 49 48 54 57 56 55 53 51 47 46 41 37 30 33 36 29 26 25 29 24 24 21 12 12 15 12 14 16 15 13 12 9 12
38 38 33 37 40 38 34 34 40 38 36 47 49 46 46 49 48 53 52 53 53 52 52 49 44 42 35 34 35 33 31 30 30 28 25 22 16 14 13 13 18 17 16 16 20 14 12
38 39 38 40 36 34 35 33 32 32 33 29 33 40 32 36 38 33 52 48 51 53 52 48 48 44 39 36 34 34 33 34 33 32 23 26 17 11 15 16 20 20 16 14 16 12 15
41 41 41 41 38 35 36 37 34 35 36 34 35 33 34 30 33 31 31 30 48 49 48 47 47 43 40 41 41 36 38 35 34 30 31 31 13 16 20 17 17 21 18 20 13 15 22
45 44 44 44 43 41 39 41 39 39 37 37 37 37 37 33 35 35 35 36 32 43 40 40 38 42 33 45 40 37 40 38 37 36 31 33 16 28 23 20 17 19 17 21 13 22 23
51 49 50 49 48 48 45 44 43 43 41 41 41 41 38 39 38 39 39 37 37 34 37 24 27 38 36 40 45 29 37 39 40 36 31 37 24 30 26 21 20 18 21 20 16 21 25
58 56 55 54 53 51 50 49 47 47 46 44 43 43 43 39 41 43 40 39 38 37 37 30 30 34 31 33 35 30 31 39 39 33 36 30 24 28 28 18 25 17 25 22 19 22 20
67 65 63 60 58 57 54 53 52 51 50 49 49 48 46 44 44 45 41 41 39 40 42 37 35 32 30 30 33 29 34 34 36 39 41 36 29 33 24 25 24 26 27 25 22 22 16
72 71 70 67 65 62 59 58 56 56 55 53 51 52 50 48 49 48 46 44 44 42 42 43 45 41 36 34 33 30 28 32 33 33 34 33 31 31 32 27 27 30 29 27 25 24 11
71 71 71 70 68 65 62 60 59 58 56 55 53 53 52 51 53 51 50 49 45 41 41 48 48 47 42 42 42 39 35 34 33 33 34 34 34 31 28 26 27 30 29 29 27 24 18
67 66 65 65 64 63 61 59 56 56 55 53 54 53 51 51 52 52 53 52 45 42 44 47 54 52 49 42 41 45 42 39 36 33 34 33 34 29 31 28 28 30 35 23 29 29 30
63 62 59 58 57 56 56 55 54 51 49 50 51 49 45 48 50 49 51 49 48 47 47 51 46 51 52 47 47 45 46 44 41 36 35 32 34 28 30 32 35 35 30 31 34 32 31
59 57 56 55 54 53 51 50 49 47 44 41 42 45 38 44 47 48 48 43 39 42 42 45 41 50 49 44 43 43 45 48 45 41 41 35 35 30 34 41 39 37 37 38 37 37 31
53 52 52 52 52 50 48 46 44 42 37 37 40 42 39 44 44 44 39 30 32 36 38 39 44 44 54 45 39 41 38 43 47 47 44 41 34 39 35 36 40 40 39 38 39 35 32
48 48 49 48 47 46 45 43 40 35 34 38 43 39 40 41 42 33 27 30 31 33 34 36 32 31 41 55 49 45 46 41 43 52 52 42 43 40 39 41 44 48 43 43 40 36 38
46 47 43 43 44 43 42 39 33 36 38 40 44 45 42 39 33 34 35 34 30 28 29 27 26 27 27 35 59 51 43 46 41 47 47 43 47 48 45 37 41 45 42 40 42 44 37
39 41 39 37 36 35 36 37 41 43 42 41 44 46 44 37 33 36 37 33 31 30 30 29 26 23 23 21 30 49 59 49 44 44 39 37 41 45 44 39 42 45 46 44 46 44 42
28 29 30 30 31 34 37 41 44 46 46 48 47 47 47 43 41 39 38 33 31 34 34 31 28 27 27 23 29 43 50 51 62 51 48 45 42 45 48 42 40 46 48 49 46 45 45
28 29 31 34 36 39 42 44 47 48 47 49 47 47 49 47 46 42 33 33 37 41 39 37 34 33 30 31 32 34 47 49 51 62 55 45 47 53 49 46 40 46 47 52 49 49 44
31 32 34 35 37 40 42 45 47 49 51 50 49 50 52 50 48 37 39 42 41 41 42 40 41 41 35 35 35 36 38 45 43 50 57 56 31 52 51 50 50 46 47 45 52 50 47
35 36 39 40 41 41 44 47 49 51 53 55 56 56 59 57 46 45 40 39 44 43 44 43 44 44 42 40 41 42 40 40 40 39 55 64 41 32 45 52 51 53 46 41 48 46 47
41 42 44 44 45 44 45 47 49 50 51 54 56 57 60 61 53 46 48 46 45 45 45 44 41 41 44 44 44 47 46 44 44 40 52 66 68 49 25 35 47 46 49 43 37 48 46
45 47 47 47 49 49 50 51 51 52 53 54 53 50 53 55 53 52 51 49 46 44 45 44 42 44 44 49 50 51 53 50 50 45 46 58 60 58 41 22 41 47 49 52 49 43 45
45 49 52 52 54 57 60 62 64 63 61 62 59 57 54 55 53 52 53 53 48 46 47 42 41 48 47 51 53 52 55 55 51 45 46 47 52 60 60 37 32 53 50 45 47 52 45
28 32 36 40 43 45 47 49 48 48 48 47 47 49 55 57 60 69 58 49 49 44 41 43 42 41 44 50 50 49 53 52 46 45 45 47 47 49 63 22 19 37 48 41 39 41 47

GFSGBSN_500_spd_063.txt.gz
Wind_Speed
57 58 60 60 60 62 63 63 62 61 62 59 56 56 53 53 48 47 46 44 45 47 46 41 39 35 32 23 24 28 26 26 24 24 24 20 20 20 21 19 16 15 21 23 22 17 8
54 55 57 59 57 58 58 57 58 58 59 57 57 56 54 55 52 50 49 50 52 53 47 43 42 38 33 22 33 27 23 27 25 25 25 24 23 14 17 19 18 18 19 23 20 14 10
52 53 54 55 57 58 56 54 56 57 57 56 55 59 56 56 54 52 50 52 54 54 52 45 44 41 34 28 32 26 27 25 27 26 26 26 26 17 17 15 20 18 17 24 17 18 11
49 49 50 51 51 52 55 55 54 53 56 56 56 54 60 56 52 50 49 51 52 56 52 47 47 44 34 37 33 29 30 25 26 27 29 29 24 19 17 16 18 16 18 23 22 17 15
41 39 38 39 37 37 42 49 48 49 52 57 55 53 53 60 56 53 50 48 47 50 54 53 47 46 36 40 41 34 32 31 32 30 30 32 26 19 19 16 16 18 20 22 23 19 21
35 35 34 34 33 33 33 36 38 35 35 39 41 43 47 47 48 46 50 49 47 46 57 56 50 48 40 41 44 40 36 35 35 34 32 32 25 20 19 18 14 21 20 18 24 25 24
39 37 37 37 37 36 35 35 34 33 34 27 24 23 26 27 34 36 41 46 48 47 51 57 52 51 46 44 45 44 40 38 39 38 33 32 29 14 15 22 26 20 19 15 19 28 27
38 36 36 38 38 36 36 36 35 33 33 32 28 28 29 21 25 33 31 43 37 47 49 51 52 48 48 48 49 47 42 40 39 36 36 36 27 20 22 25 26 23 20 18 18 27 28
45 44 43 42 41 41 40 38 38 38 37 34 36 32 32 34 30 29 32 30 38 40 45 44 46 49 40 48 49 47 47 43 40 39 38 37 27 30 29 28 26 25 22 22 22 24 28
52 52 52 51 49 47 46 43 43 41 41 39 38 36 35 34 34 37 33 31 29 25 37 22 34 36 44 45 47 38 48 43 44 42 39 42 32 30 33 31 28 22 26 24 28 25 28
60 59 58 58 57 55 54 52 49 46 43 42 40 40 39 39 36 38 36 36 30 26 39 26 30 34 37 41 42 38 39 41 44 37 41 40 31 31 34 23 33 19 30 27 29 29 25
65 64 65 65 64 62 60 57 56 53 49 46 43 43 41 38 37 37 36 37 36 33 33 28 27 28 29 33 38 36 40 42 37 39 44 44 35 39 35 30 34 28 33 30 31 31 24
69 69 69 69 67 67 65 63 60 59 56 52 48 46 45 42 40 37 39 38 37 37 35 35 37 33 30 28 29 29 32 32 34 38 40 39 36 38 38 37 35 34 31 32 34 32 22
71 71 70 70 68 66 65 65 64 62 60 57 54 51 48 46 44 42 41 41 39 37 38 43 44 39 39 34 33 31 31 33 33 36 36 35 34 36 38 34 32 33 34 36 33 34 27
71 71 70 69 67 66 64 61 60 61 59 58 58 56 49 50 48 46 45 44 40 39 43 44 48 48 42 39 40 39 38 37 34 33 37 37 35 34 34 34 34 33 39 32 37 39 35
78 78 76 74 71 68 65 61 57 56 55 54 55 56 52 51 50 50 50 46 45 46 47 47 45 46 47 45 42 41 43 43 42 41 39 39 38 34 34 37 40 40 37 38 40 42 38
65 66 67 65 63 63 61 58 54 52 51 51 52 54 50 51 52 53 50 48 50 52 51 46 42 45 45 43 46 44 45 46 46 45 45 43 44 38 36 42 41 41 41 41 39 43 40
47 48 50 52 53 56 57 54 52 50 49 49 49 52 50 47 51 51 48 50 50 50 49 45 40 43 47 48 49 48 45 46 48 50 49 49 49 48 40 38 39 42 44 42 45 44 42
45 44 45 46 47 48 49 49 48 47 47 46 48 47 47 41 49 49 49 47 45 45 44 41 39 43 46 51 51 51 47 45 49 51 52 51 52 51 45 42 47 50 48 49 47 44 43
44 44 44 44 44 44 44 45 45 44 44 45 44 44 43 39 42 40 43 42 42 38 38 39 38 35 43 47 54 50 43 44 49 48 49 51 50 49 51 47 47 50 47 47 46 45 44
39 40 40 40 41 42 42 42 42 42 42 42 43 41 39 34 29 30 35 35 35 36 33 29 27 29 32 32 39 53 54 49 46 47 49 47 49 51 50 49 48 46 47 45 47 44 48
38 37 36 36 37 38 40 42 42 42 42 46 48 43 42 35 33 35 34 31 34 34 35 29 27 29 35 33 34 35 41 59 51 54 42 43 46 46 49 50 50 45 47 48 47 47 45
23 23 25 28 31 33 34 35 37 41 49 53 54 49 46 41 38 35 32 32 31 32 33 31 32 31 31 30 31 31 31 35 52 57 50 54 52 48 48 44 46 48 46 49 52 50 47
24 24 24 25 25 26 28 30 33 40 51 49 45 46 48 45 38 34 36 35 32 32 32 34 34 34 30 34 32 29 27 27 26 33 51 57 62 50 51 35 37 46 47 43 48 47 50
29 28 27 27 29 31 33 36 38 42 46 49 48 49 50 49 44 41 39 38 36 35 36 35 35 37 35 34 36 34 31 30 28 29 30 32 61 50 59 62 40 46 49 44 43 43 40
35 34 34 34 34 35 36 38 40 44 47 50 52 51 50 50 46 45 42 40 37 35 38 39 35 39 42 41 40 39 36 33 35 34 32 33 38 41 49 58 57 38 29 42 48 51 42
42 42 41 41 40 40 41 42 43 46 49 52 54 52 51 51 52 49 47 43 42 39 39 40 37 40 44 46 44 43 42 40 38 37 36 36 37 41 46 52 64 43 30 30 45 43 44
48 46 46 46 46 46 45 47 49 50 50 53 55 54 54 55 55 53 51 48 45 44 42 41 42 44 45 47 46 43 44 43 43 42 41 41 43 42 46 44 63 59 47 28 37 46 41
32 40 44 43 47 49 50 51 49 49 51 51 51 50 50 54 57 56 56 53 50 49 47 48 46 42 43 46 48 47 46 46 45 47 47 49 45 46 46 42 41 51 47 34 38 48 41

GFSGBSN_500_spd_066.txt.gz
Wind_Speed
50 53 52 53 55 61 62 62 62 63 61 62 63 63 63 62 58 53 51 51 50 48 45 43 42 40 39 35 29 38 32 33 32 30 27 24 21 25 25 24 23 17 18 20 23 26 24
50 52 53 54 56 58 57 57 59 58 56 59 57 56 56 54 56 54 52 51 53 50 47 48 45 46 37 37 34 40 31 32 32 30 28 26 24 29 28 23 22 20 18 21 21 25 24
52 52 54 54 55 56 53 54 54 55 55 56 54 54 52 52 54 53 53 53 51 52 51 48 50 50 38 36 37 38 32 34 33 31 32 31 26 30 26 25 24 21 19 23 20 22 26
51 51 52 50 50 52 50 50 51 52 50 52 54 53 52 50 50 52 54 53 54 53 53 50 52 53 41 41 41 39 39 33 33 34 35 31 27 29 24 24 23 23 20 24 22 20 23
49 47 49 47 46 42 41 41 42 42 42 42 45 47 47 49 50 51 53 55 52 53 53 51 51 50 43 41 43 43 41 36 38 35 37 33 27 26 25 23 21 24 23 27 24 20 20
46 43 42 40 38 36 35 36 35 34 33 32 31 31 36 37 44 46 50 56 53 54 51 49 47 46 40 45 45 45 45 40 41 38 41 33 31 28 21 20 17 23 28 26 27 24 21
39 40 40 40 39 39 37 34 36 34 34 35 29 27 28 26 26 27 36 53 45 46 53 50 51 48 45 46 47 49 48 45 44 44 41 36 37 26 21 21 26 29 28 22 25 26 25
41 39 40 39 38 36 35 35 34 34 34 35 33 28 26 30 27 30 27 31 32 38 40 45 50 47 41 47 49 50 52 47 46 43 42 43 36 26 27 26 26 28 28 23 23 24 30
41 42 42 42 42 42 40 41 38 37 37 37 36 34 32 32 33 33 35 30 29 34 40 30 38 40 40 48 49 49 53 51 48 46 44 44 34 34 33 29 30 29 23 25 24 30 33
45 45 45 46 46 48 47 48 46 44 43 41 40 38 37 36 33 38 34 32 33 25 38 28 31 31 32 47 48 43 52 53 52 47 44 47 39 36 35 34 32 30 22 27 28 31 34
50 52 52 52 53 54 53 54 53 51 50 49 46 43 40 36 37 40 38 37 33 31 37 27 29 31 29 34 42 40 47 51 51 46 45 45 37 37 37 29 35 24 29 32 30 33 32
54 57 58 58 59 59 58 58 58 57 56 55 52 49 45 41 39 38 37 37 32 32 38 30 22 23 27 30 37 35 42 43 46 38 46 49 41 41 38 32 38 32 34 36 33 33 32
60 61 62 62 63 63 63 63 62 61 61 60 58 54 51 46 44 39 38 36 39 38 36 32 32 24 19 26 31 30 35 39 40 45 42 41 38 40 41 39 41 38 34 38 37 36 28
64 65 66 66 67 68 68 68 66 66 63 63 61 59 56 50 47 43 41 40 39 41 39 38 38 31 30 26 26 28 30 35 37 36 41 39 35 36 38 38 39 38 37 38 41 35 31
66 67 68 69 69 70 69 68 66 64 62 60 59 58 56 51 53 48 44 43 42 40 41 40 40 39 34 31 33 30 28 31 37 39 39 34 35 35 37 38 39 40 42 35 39 40 38
65 67 68 69 71 72 73 73 72 69 65 61 59 56 53 51 54 52 50 46 45 44 42 40 41 38 36 36 36 37 36 37 36 37 40 41 40 38 37 40 40 42 40 40 43 45 42
65 67 67 66 67 68 69 71 72 70 67 61 60 59 53 51 52 56 55 52 48 45 46 38 39 41 36 35 37 38 40 42 41 41 40 39 39 36 40 40 38 38 41 42 41 43 42
60 58 56 55 52 50 52 55 55 56 57 58 57 59 55 51 53 54 54 53 51 46 44 42 40 43 42 42 40 43 48 46 43 46 44 44 43 41 38 40 40 42 41 41 44 45 45
56 54 49 47 46 45 40 41 45 48 51 52 55 54 53 51 53 53 53 53 50 48 44 44 40 42 43 45 44 44 44 48 49 48 48 47 48 47 44 41 43 44 44 44 45 48 46
54 50 48 44 45 44 43 42 42 44 46 48 50 51 52 52 49 47 48 49 49 46 42 38 37 38 43 46 50 49 46 48 49 48 48 49 48 49 50 46 45 45 46 47 48 46 49
47 43 41 42 40 41 41 41 41 41 44 47 49 48 48 50 46 41 44 46 42 41 38 35 34 35 39 43 49 53 51 46 48 50 50 47 50 50 49 50 49 48 48 50 51 50 50
45 45 45 39 38 37 37 39 40 41 42 46 47 45 47 45 41 37 38 38 34 31 32 30 30 28 34 40 41 44 47 50 45 48 44 52 52 52 52 49 49 47 49 52 52 51 52
25 24 25 27 33 36 36 36 37 39 43 46 44 42 44 41 36 36 35 29 27 29 29 27 29 29 30 33 37 37 39 40 45 48 47 45 46 48 51 44 48 49 47 49 53 53 53
26 25 24 22 20 22 28 35 35 39 40 43 42 43 41 35 35 32 31 29 29 28 27 29 29 27 29 32 35 35 36 33 32 32 38 48 52 52 50 46 50 45 35 43 52 52 52
28 27 25 24 23 22 20 22 28 36 40 42 40 42 39 37 34 34 32 27 30 29 29 30 26 26 30 30 32 31 31 29 27 26 22 23 31 51 55 57 54 45 45 37 38 48 49
33 32 31 29 27 26 25 24 22 27 29 34 39 43 46 44 37 38 37 34 29 26 30 26 24 27 29 32 34 35 33 30 28 26 25 24 24 27 28 35 52 52 55 54 51 42 31
43 40 38 35 32 31 30 30 31 31 28 28 34 44 42 44 38 37 36 34 33 29 28 29 25 27 31 34 37 36 34 34 33 30 29 30 31 29 29 29 26 24 28 37 47 45 41
32 46 49 44 40 38 36 35 36 37 39 39 38 45 46 40 39 37 38 38 36 32 29 29 28 29 33 34 36 38 37 35 35 35 35 35 34 33 33 32 26 31 33 35 35 42 46
20 20 35 50 48 47 44 43 41 42 43 46 47 46 46 46 45 40 41 40 40 36 35 35 30 28 36 38 39 38 38 39 38 38 39 40 39 40 40 36 34 35 38 38 35 33 49

GFSGBSN_500_spd_069.txt.gz
Wind_Speed
49 48 48 50 49 49 52 54 55 55 55 58 59 59 60 62 59 60 60 58 58 61 57 52 46 42 42 40 33 37 33 33 32 30 32 31 31 30 27 23 25 23 17 20 22 21 20
52 52 50 50 50 49 52 54 54 54 56 56 56 56 57 57 55 53 51 55 54 54 54 51 48 46 44 42 38 39 37 34 33 31 32 31 32 31 27 23 26 26 19 21 23 20 20
54 53 52 50 49 48 49 49 48 47 49 49 51 50 52 54 53 52 51 51 51 50 50 49 49 47 46 41 42 42 42 37 35 34 32 32 33 32 28 25 25 28 22 21 24 18 19
52 52 51 51 48 47 47 47 47 46 46 45 46 47 51 50 49 50 50 50 50 49 49 49 49 48 45 45 45 45 45 38 37 34 35 35 33 31 29 24 22 27 24 22 26 17 17
54 52 51 51 49 47 47 45 43 41 40 39 39 39 40 43 44 42 43 47 48 49 48 49 49 48 45 48 47 48 50 41 39 37 37 35 34 30 31 24 21 24 22 23 27 17 15
51 51 51 51 49 47 46 45 41 38 37 36 35 34 35 32 31 35 36 40 45 46 49 49 49 45 46 46 50 47 52 48 41 40 42 36 35 33 29 23 17 20 27 27 25 24 19
51 48 48 49 47 45 42 42 39 38 37 34 33 32 33 32 29 31 32 33 37 39 47 45 47 45 48 50 49 47 51 54 47 45 43 37 39 32 26 28 26 26 29 27 24 30 24
49 48 45 45 44 41 41 41 37 35 34 33 32 31 31 31 31 28 28 30 32 38 37 37 38 40 38 50 48 44 49 45 51 46 43 44 41 30 32 31 29 28 29 25 24 28 30
46 46 43 41 42 41 41 38 37 37 36 37 36 34 33 32 34 33 33 31 33 34 35 20 32 34 27 44 39 45 47 50 51 51 47 46 38 36 36 33 31 29 30 27 27 30 31
47 47 47 44 42 41 41 41 40 40 42 42 41 40 40 37 36 35 36 35 34 35 37 30 28 30 28 31 31 36 47 51 53 56 49 50 43 40 37 36 34 34 29 31 30 32 32
50 50 47 46 45 45 45 45 45 46 46 47 46 46 45 43 41 40 37 37 38 34 40 28 21 22 25 30 31 31 40 48 49 53 56 48 39 38 40 34 34 29 33 35 35 36 34
52 51 50 48 50 50 50 49 51 51 52 52 51 51 50 48 47 43 40 38 38 38 39 32 25 18 18 23 29 28 35 42 41 45 51 52 44 43 44 36 34 34 34 37 38 38 37
54 54 54 53 54 55 55 54 54 55 56 56 55 55 54 52 51 47 44 42 40 39 36 34 29 23 25 18 20 26 28 33 35 39 41 46 40 43 42 41 39 39 37 38 39 41 34
58 59 58 57 57 57 58 58 59 60 60 59 60 59 58 57 55 52 50 48 45 41 38 36 34 30 29 26 24 19 25 27 34 33 37 39 38 33 37 40 38 36 36 39 42 40 35
61 61 61 60 60 61 61 62 62 62 62 63 62 63 61 57 55 54 54 54 49 43 41 37 37 32 32 32 25 26 23 23 28 33 30 29 36 35 32 33 38 41 44 37 41 43 43
62 62 61 61 61 62 62 61 61 61 62 63 65 65 62 60 55 54 55 57 51 48 45 39 39 35 32 32 30 26 29 26 27 28 33 36 33 34 38 35 37 40 40 42 47 48 46
58 59 59 59 59 59 58 60 61 63 64 67 69 70 64 62 59 59 61 54 51 49 49 44 39 37 33 32 30 33 33 32 31 29 28 31 36 33 29 38 37 37 40 40 43 45 45
57 58 58 57 57 57 57 56 55 56 59 62 63 67 63 61 62 62 61 52 50 46 49 47 41 38 38 36 35 34 34 36 36 36 32 33 31 32 36 36 35 38 40 41 43 43 44
55 54 56 57 57 55 54 52 53 52 49 48 51 52 51 52 62 62 60 53 47 45 46 47 45 41 41 39 36 38 39 39 39 41 39 39 38 35 32 32 35 40 41 39 36 39 41
53 55 56 53 52 52 51 51 50 49 51 50 43 43 43 47 53 53 54 52 44 43 45 46 43 40 40 41 43 42 43 44 43 43 43 43 44 45 40 36 37 38 39 40 41 42 40
46 48 49 49 49 51 49 45 46 44 47 49 46 40 41 46 45 46 48 50 44 41 42 42 39 38 38 41 44 46 45 46 45 45 46 46 47 48 46 44 41 41 43 42 44 44 45
43 44 46 48 49 49 47 44 44 39 44 49 43 37 38 40 41 42 44 44 40 35 35 32 30 29 33 37 39 41 43 45 46 45 46 47 47 45 42 41 45 44 44 44 46 47 49
42 42 36 30 29 30 33 42 41 41 43 44 39 37 38 38 40 40 40 39 33 30 30 27 26 30 30 30 35 37 40 41 43 47 45 45 45 47 47 41 39 45 41 43 44 47 49
27 28 28 27 24 20 20 23 33 39 40 37 36 37 38 35 36 38 37 34 29 27 25 25 23 23 27 30 30 32 34 36 38 37 40 41 43 43 42 43 47 46 42 37 41 44 47
29 29 28 26 25 25 24 21 21 28 37 34 34 37 36 35 38 38 34 31 30 30 24 24 23 24 28 29 30 31 31 31 31 31 33 35 36 36 41 47 43 42 38 38 39 40 40
29 30 31 30 28 27 25 25 23 20 25 35 33 35 35 34 34 37 33 29 29 22 21 22 22 20 26 27 28 29 30 29 29 29 28 26 25 24 22 20 19 23 35 43 46 41 44
21 26 32 35 34 31 29 26 24 20 20 22 27 34 33 34 31 34 34 29 22 21 20 23 22 23 25 28 27 29 27 28 28 27 26 26 25 22 20 16 11 14 20 22 24 29 42
17 16 18 24 36 38 34 30 28 26 23 18 15 20 29 29 28 33 27 20 19 21 20 21 21 23 27 27 27 28 28 29 29 28 28 27 27 25 23 20 16 21 25 27 24 21 27
22 23 23 22 23 37 41 36 33 30 29 27 18 17 21 29 32 30 26 23 22 23 25 24 20 22 28 27 26 28 29 29 31 31 30 30 29 29 27 24 24 25 30 34 31 26 30

GFSGBSN_500_spd_072.txt.gz
Wind_Speed
62 62 60 59 54 52 50 51 51 50 51 51 53 54 53 54 55 58 57 59 59 59 59 60 60 52 51 47 40 41 39 38 36 33 32 31 32 32 32 26 23 21 22 20 26 25 23
59 59 59 61 57 54 53 52 52 54 52 51 52 53 54 53 55 57 57 55 56 58 56 56 56 52 51 48 42 43 42 39 39 34 33 31 34 34 33 28 24 23 25 20 25 27 24
59 60 60 58 57 55 55 53 51 50 49 48 49 48 47 48 48 50 51 50 52 52 52 52 52 50 47 42 44 45 44 42 41 38 37 35 35 34 32 31 25 25 23 22 24 28 23
62 61 58 56 57 56 53 52 49 47 46 45 44 43 42 42 42 43 43 44 45 46 48 50 49 49 46 45 47 45 47 47 43 43 39 41 36 34 32 30 26 26 24 19 24 29 23
61 59 56 57 56 56 51 51 48 46 43 42 41 39 37 37 36 37 37 38 37 38 39 43 44 46 46 45 46 49 49 51 49 47 44 45 37 34 34 31 27 27 21 19 25 29 23
59 58 55 55 55 52 48 47 45 42 43 39 39 37 36 34 34 35 36 36 34 35 37 40 43 43 44 47 45 52 49 52 53 50 49 44 41 36 34 32 20 25 25 25 24 30 24
57 60 55 51 49 49 46 46 45 42 41 41 38 36 37 35 33 34 31 29 30 30 31 35 37 39 38 43 47 47 54 52 55 55 51 45 47 42 26 30 27 27 28 26 27 29 26
55 52 51 46 45 45 46 44 43 45 41 43 39 37 36 33 32 31 28 29 28 30 28 28 31 35 31 39 41 40 49 50 49 53 51 50 51 36 33 35 31 27 27 27 29 29 29
57 53 50 49 46 45 46 45 45 45 40 40 41 37 35 32 34 31 29 28 29 31 31 27 29 32 34 38 37 35 44 48 47 53 51 48 50 39 37 37 34 27 28 28 30 34 30
55 52 50 49 48 47 47 45 43 41 43 41 40 39 36 37 38 34 33 32 33 32 34 35 31 29 32 32 32 30 39 42 48 44 48 49 51 46 42 43 35 33 27 34 34 37 30
55 53 53 50 50 48 48 47 45 43 42 41 42 41 39 40 42 38 37 35 35 32 38 33 29 24 25 21 26 23 30 33 40 42 43 48 48 45 44 40 36 33 36 36 38 38 37
55 54 53 52 52 49 49 48 46 45 44 45 45 45 43 43 44 42 41 39 37 37 40 38 35 27 24 24 18 19 25 28 27 33 45 49 52 50 47 43 41 38 38 39 39 37 41
58 56 53 52 51 50 50 49 48 48 48 49 49 49 47 46 47 45 44 42 41 41 39 38 36 30 24 23 23 18 15 26 28 27 34 43 52 55 49 49 44 42 38 39 37 39 41
61 58 56 54 52 52 52 52 51 51 52 52 52 50 49 48 49 48 47 46 46 45 42 40 39 34 28 26 25 22 24 19 22 25 25 34 41 48 54 50 45 39 35 36 40 42 40
64 62 59 58 56 55 54 54 55 55 55 56 55 54 51 51 51 51 50 51 49 47 46 41 41 38 33 27 25 26 22 23 23 22 25 26 26 35 47 48 44 41 44 40 42 45 45
66 62 61 59 59 57 57 57 56 56 56 56 56 56 53 53 53 54 55 55 53 50 48 43 40 39 36 29 26 28 27 25 24 19 21 24 26 28 34 42 44 45 43 42 44 45 45
65 62 60 57 56 56 56 55 55 54 55 56 57 56 53 54 55 57 58 57 57 51 50 48 39 40 38 34 29 29 29 28 27 23 22 23 19 25 27 39 38 38 36 38 44 45 43
64 60 57 54 52 53 52 52 52 53 54 54 54 54 51 54 57 59 59 58 59 49 50 46 42 41 39 37 35 32 31 33 32 27 27 22 21 27 24 21 38 38 37 36 41 41 43
48 55 51 49 48 48 49 50 51 51 53 53 53 52 51 52 57 56 56 58 60 54 48 47 45 41 40 38 36 36 35 35 34 32 32 28 24 22 25 30 30 29 42 42 41 39 39
35 42 46 44 45 46 47 48 49 51 52 53 53 48 46 49 47 46 47 51 54 49 46 46 44 41 41 40 40 39 38 38 37 37 27 30 30 27 25 28 30 31 30 31 32 34 35
34 37 41 43 44 47 47 47 48 50 53 52 47 41 41 44 41 37 36 37 39 41 45 44 43 41 39 39 41 41 42 41 41 40 38 39 37 34 32 30 29 30 32 33 36 36 38
24 29 34 36 37 40 42 44 45 49 53 47 44 38 38 37 36 34 32 33 28 30 37 39 39 37 38 40 39 42 44 44 43 42 42 42 39 35 34 35 36 36 36 37 37 38 38
27 29 32 35 36 38 39 42 44 47 48 46 42 39 37 34 34 34 31 31 32 27 30 31 32 33 32 34 40 41 43 44 43 44 43 44 44 41 37 32 30 37 34 33 34 36 36
26 29 31 33 33 30 26 25 25 27 29 34 37 36 35 29 34 30 33 30 31 28 23 29 26 26 28 31 33 36 38 41 42 42 44 43 43 43 42 39 42 42 38 32 30 29 34
19 21 22 22 24 25 25 25 22 20 20 22 26 33 31 28 31 31 31 33 32 31 30 29 26 26 25 27 30 33 33 37 36 36 39 38 39 39 39 39 38 39 37 36 39 41 41
21 23 24 26 27 27 28 28 28 25 23 22 18 26 29 28 26 27 32 30 30 29 30 32 29 26 25 27 28 29 29 30 27 28 30 31 33 32 31 29 22 24 27 31 36 41 42
14 14 17 22 27 30 30 30 28 26 25 23 15 18 27 27 26 30 30 33 26 21 32 30 21 21 22 25 27 26 24 25 25 24 25 25 26 22 19 17 17 16 15 13 19 25 26
12 12 12 12 12 18 29 33 32 28 26 22 11 16 23 24 26 27 30 31 32 35 32 25 19 15 20 24 24 25 24 26 24 24 22 22 23 24 22 20 20 18 18 17 18 17 18
17 18 18 20 19 18 19 29 35 31 28 25 16 13 16 24 24 27 29 35 36 32 20 19 17 15 19 23 24 25 26 26 26 26 25 23 23 21 22 22 23 22 21 20 20 21 23

GFSGBSN_500_spd_075.txt.gz
Wind_Speed
62 63 62 61 63 63 63 60 59 56 56 56 57 55 56 56 55 54 54 53 53 53 52 54 56 57 55 57 41 49 42 40 39 39 40 39 38 33 31 28 31 28 27 27 24 23 24
57 57 59 61 64 61 62 61 56 57 56 57 56 57 56 56 55 54 54 53 52 52 54 56 59 59 57 55 47 44 45 42 41 41 41 41 38 37 35 32 33 30 30 29 26 23 25
58 59 59 59 61 59 58 59 56 57 56 55 55 56 55 54 51 52 51 50 52 53 56 56 59 61 60 46 49 44 43 44 44 43 43 44 44 41 34 32 32 32 31 30 27 23 24
60 61 62 62 62 63 60 58 57 56 56 54 53 51 50 49 47 44 46 47 47 46 49 50 51 55 56 51 50 45 42 43 46 46 47 45 47 44 36 35 31 31 32 29 26 24 25
64 64 63 65 65 64 62 58 55 54 54 53 50 48 47 45 43 40 40 42 41 41 40 40 41 44 46 45 43 45 44 45 49 51 51 49 50 47 39 37 35 30 29 27 27 27 28
59 61 62 60 62 63 63 55 53 51 50 49 50 46 42 41 39 38 36 37 38 37 37 35 36 40 41 43 41 43 46 47 51 54 55 54 52 48 45 42 35 24 31 28 26 21 30
60 60 60 61 57 60 58 56 54 51 50 45 45 43 40 37 37 36 34 34 37 38 34 33 34 34 35 37 38 38 41 45 50 54 56 56 55 55 49 34 31 32 34 28 22 24 33
62 61 59 59 59 53 49 53 50 47 46 43 41 41 38 38 36 36 36 34 33 36 30 31 31 32 30 31 31 32 37 40 48 53 61 62 62 54 47 40 40 37 33 28 28 32 33
59 59 57 57 57 55 50 44 44 45 44 42 42 41 39 39 37 36 35 34 32 31 32 29 30 30 30 32 31 30 35 33 43 48 54 54 54 52 48 44 43 39 33 28 30 27 36
60 58 56 55 52 52 49 43 43 41 43 43 42 42 39 37 36 36 35 34 33 32 33 36 35 32 27 26 27 26 31 31 38 41 49 54 56 46 50 45 44 42 31 32 35 36 34
65 61 58 54 52 51 50 47 46 45 44 43 41 39 39 39 39 38 36 34 35 34 36 38 33 28 25 24 27 23 23 31 33 35 46 44 55 59 52 51 48 40 38 37 39 41 34
68 66 62 58 54 51 49 47 48 46 45 43 42 42 41 40 38 37 37 36 37 37 42 39 35 32 27 22 23 22 28 23 25 32 30 33 46 51 53 52 51 43 41 38 42 41 38
65 68 66 61 56 53 50 48 46 45 45 43 43 43 41 40 39 38 39 39 41 40 41 40 36 33 30 28 26 25 25 24 23 27 22 24 40 48 47 51 54 48 45 43 42 43 40
66 64 65 65 60 56 52 49 47 46 45 44 44 43 43 42 41 41 43 43 43 42 42 39 36 35 32 31 29 26 24 21 26 23 27 22 38 40 39 49 49 48 45 43 39 29 27
55 67 64 63 62 57 56 51 48 47 46 45 45 45 43 41 43 44 44 44 43 43 42 39 36 36 34 31 30 28 26 25 26 20 23 21 22 22 34 45 52 50 49 43 34 26 29
50 50 63 63 60 57 55 53 49 47 47 46 45 45 43 43 45 47 47 46 44 45 45 39 38 40 33 33 30 28 28 26 25 25 21 21 18 23 25 38 50 51 44 39 43 41 38
45 41 45 58 57 56 54 50 50 47 46 47 47 47 46 47 48 50 48 45 43 46 46 41 41 38 36 35 33 31 24 30 23 24 21 20 18 16 22 33 47 49 48 47 42 44 35
40 34 34 39 51 53 51 48 45 44 46 46 46 46 44 46 48 49 47 43 44 45 46 43 43 40 38 37 35 35 35 34 31 25 23 23 18 16 14 17 28 36 43 44 44 32 36
34 29 28 32 38 44 46 45 43 42 44 45 45 44 44 45 46 45 43 44 46 47 46 45 45 43 41 40 36 37 38 37 31 30 29 24 22 17 10 13 22 32 31 33 34 28 27
27 26 21 28 31 36 39 42 41 40 41 43 43 43 42 44 43 42 43 43 44 44 45 46 47 47 45 42 39 40 38 39 34 31 31 26 24 24 19 18 17 16 24 30 34 40 39
25 22 18 24 30 34 34 36 39 39 41 40 40 39 40 42 43 41 41 40 38 39 39 40 44 46 44 43 42 41 40 41 38 35 32 27 25 22 24 21 21 22 22 27 27 26 29
23 19 19 18 24 32 35 36 38 40 39 39 40 40 42 43 41 40 38 34 31 26 28 26 34 36 38 43 42 41 42 44 42 40 38 37 29 25 27 27 25 24 22 23 25 26 27
21 17 17 19 21 25 29 31 33 35 35 35 37 41 43 43 40 39 33 29 26 23 26 23 25 30 32 32 42 43 45 46 45 43 41 39 39 41 36 34 32 33 29 30 28 30 29
17 18 20 20 24 26 28 31 32 34 34 35 37 40 44 40 37 32 29 30 27 24 24 23 24 27 32 31 39 40 40 41 42 42 44 41 40 41 40 38 36 30 31 24 21 22 25
16 16 18 21 23 26 28 30 30 29 24 20 19 19 23 30 31 29 28 29 25 27 32 30 21 28 27 24 27 33 35 37 39 39 41 42 41 42 40 38 35 40 39 35 34 31 36
16 17 18 18 19 20 21 22 22 23 22 18 12 12 16 22 25 25 28 29 26 28 26 34 28 25 24 24 24 23 21 22 30 36 34 36 36 38 38 38 37 29 36 32 33 32 42
15 15 16 19 21 23 23 23 24 25 24 21 18 18 16 19 22 24 25 29 31 32 25 28 29 29 23 23 25 23 24 25 20 19 21 27 29 31 29 29 28 23 28 24 26 30 38
13 11 10 10 11 15 22 26 26 26 24 21 18 16 13 9 17 23 25 26 29 33 26 28 32 29 21 22 23 22 24 23 24 20 22 21 23 24 26 27 28 20 20 20 22 18 20
18 17 15 14 14 13 11 13 25 29 27 24 20 15 13 13 19 24 26 29 32 34 28 26 33 23 18 22 21 22 21 24 22 23 24 21 21 21 22 24 23 22 26 22 18 20 21

GFSGBSN_500_spd_081.txt.gz
Wind_Speed
65 64 61 60 60 60 59 59 60 58 58 61 62 62 62 66 68 65 59 60 59 57 56 56 54 55 56 55 51 54 50 43 39 42 39 35 33 31 33 34 36 39 34 34 35 34 33
61 60 58 60 61 61 60 62 62 63 64 65 64 63 62 63 63 63 61 60 59 60 57 56 56 56 54 56 54 51 50 40 35 37 34 33 32 32 35 36 37 37 39 38 39 38 33
50 50 52 54 55 57 58 59 60 62 60 57 59 56 55 51 53 55 54 53 52 53 52 55 54 57 55 50 50 50 48 42 37 37 33 33 34 37 37 40 39 39 41 42 42 33 33
48 50 52 53 53 54 53 53 51 55 57 57 56 56 53 51 47 46 49 48 46 48 49 50 51 52 46 47 45 40 41 37 38 36 32 32 33 35 40 40 39 39 41 43 31 30 33
53 54 54 55 56 55 57 57 57 57 55 52 52 55 52 52 49 47 45 45 44 44 45 44 45 44 39 39 38 38 37 35 34 35 35 33 34 40 40 42 45 43 44 39 30 32 33
52 53 56 56 58 59 59 58 59 59 60 58 54 50 47 47 45 45 43 44 42 40 40 40 40 38 38 33 34 35 33 34 34 36 37 37 37 40 42 44 48 44 42 40 37 28 30
54 56 59 60 62 63 65 64 63 60 58 59 57 55 50 46 46 43 41 42 40 40 37 38 36 33 33 33 29 28 30 28 32 34 35 37 41 44 43 43 45 45 47 46 42 37 35
52 54 57 59 60 63 64 66 66 64 60 55 53 53 48 46 45 44 42 41 41 41 36 37 35 31 33 32 28 25 27 28 27 30 34 39 40 37 40 45 48 50 48 46 47 37 36
48 50 51 54 56 59 62 64 65 63 60 55 51 50 45 42 42 44 44 42 41 39 38 34 32 31 30 30 27 24 23 25 27 29 32 37 39 43 46 45 48 51 52 47 54 43 41
50 52 54 58 58 56 55 56 57 57 58 54 50 47 42 41 42 42 43 36 36 37 38 34 31 31 29 26 25 23 21 24 26 26 29 35 36 38 43 46 47 47 51 58 54 55 48
52 56 58 58 62 53 49 47 47 49 50 50 46 45 41 40 42 41 40 38 36 34 34 32 29 29 27 25 24 21 20 21 25 28 29 29 33 38 34 39 45 47 50 53 49 56 54
55 57 59 59 56 46 46 46 44 43 46 46 46 43 40 39 37 40 37 34 34 30 28 29 27 26 27 25 22 21 21 21 21 24 26 24 29 30 28 33 44 48 48 49 45 51 53
58 58 57 61 52 45 47 45 45 42 41 45 46 44 40 40 38 37 33 31 32 32 24 29 30 29 23 22 21 21 21 23 22 22 23 23 24 26 25 27 36 36 38 37 42 48 48
59 59 57 61 52 46 47 45 46 43 40 44 47 45 41 40 41 39 37 36 34 26 23 27 28 27 23 20 20 22 24 22 23 23 21 20 19 26 26 22 26 30 35 36 46 48 51
61 60 59 59 48 49 50 48 44 45 42 40 47 45 40 40 41 36 34 34 30 27 29 34 36 25 17 19 19 22 24 22 23 21 21 20 17 20 20 13 25 30 41 36 45 50 47
60 59 62 54 51 51 46 44 45 44 46 38 46 43 39 40 39 41 39 35 31 32 32 32 29 24 18 14 21 20 19 23 21 21 19 16 15 19 22 18 10 32 29 41 39 35 28
60 59 62 54 54 44 42 41 37 41 40 36 42 41 39 39 40 41 40 37 30 32 29 29 27 23 21 24 25 24 22 23 23 21 20 19 17 11 20 21 6 18 34 35 32 35 36
59 60 59 49 41 39 39 33 34 33 24 31 39 35 36 37 38 38 37 33 30 30 29 27 26 23 24 24 25 26 26 25 26 23 21 20 18 16 15 22 16 7 23 33 32 33 37
57 59 50 43 39 38 32 28 27 20 19 28 32 30 32 33 35 35 32 30 30 29 27 27 30 29 26 26 27 28 27 29 29 23 22 21 24 20 13 17 18 18 7 32 41 30 34
54 55 46 44 38 34 24 21 16 14 19 27 29 28 31 32 33 37 33 31 30 29 30 32 27 27 28 29 30 28 28 29 32 27 25 24 24 21 15 16 21 15 9 21 35 38 39
51 51 44 40 36 28 18 13 6 12 18 24 25 26 32 37 35 31 31 33 31 28 26 28 28 29 28 29 29 29 31 33 36 34 30 28 25 24 19 18 22 11 18 14 28 24 33
49 47 42 35 32 23 14 7 4 10 17 22 23 24 31 31 31 30 30 27 27 27 28 29 30 30 30 30 30 30 32 35 37 38 35 31 28 29 24 24 23 24 15 21 21 18 35
48 43 37 33 28 19 16 4 9 11 18 20 22 24 26 27 29 28 28 28 28 28 27 27 27 28 29 30 31 32 34 36 36 38 38 35 33 32 29 29 26 26 21 17 22 17 16
47 40 33 31 24 18 15 8 12 12 14 16 19 24 24 23 26 25 26 28 30 29 28 29 29 31 28 26 25 23 29 33 36 37 40 36 34 35 32 36 32 26 28 23 18 18 17
45 38 32 26 20 16 16 14 13 12 13 14 18 19 22 22 24 25 27 30 30 29 29 29 30 30 20 19 15 15 14 20 23 23 35 37 37 35 36 37 38 28 30 29 29 23 23
43 33 30 24 20 17 15 16 18 16 16 17 18 19 20 20 21 27 31 33 33 32 31 28 28 23 24 20 17 19 20 21 22 23 23 31 33 34 32 38 41 35 30 30 32 27 29
38 31 26 22 19 18 17 16 15 18 18 18 20 20 17 14 20 22 25 30 36 37 31 26 25 22 28 28 14 18 18 17 18 13 12 17 26 32 31 36 38 37 41 41 40 41 36
32 27 21 17 14 11 13 14 14 13 14 15 19 16 14 15 18 14 17 21 29 31 31 25 19 22 23 30 18 11 13 18 22 15 13 12 16 23 28 32 34 30 30 33 38 37 27
28 23 19 16 12 7 7 9 11 14 16 17 19 18 20 17 17 14 13 17 22 27 26 25 15 21 21 29 20 12 20 22 21 15 7 18 10 9 13 15 19 22 23 26 23 24 23

GFSGBSN_500_spd_084.txt.gz
Wind_Speed
57 57 58 60 61 61 62 64 64 62 63 61 63 61 61 62 63 64 64 63 62 64 64 62 60 60 57 53 50 54 48 45 47 46 43 40 41 39 37 36 37 40 33 32 31 32 36
55 52 52 53 54 56 55 55 57 60 60 61 61 62 62 64 63 63 66 66 64 63 61 64 59 59 57 57 55 53 52 47 46 46 44 42 38 39 40 39 39 36 36 35 35 35 35
50 47 46 44 44 44 44 46 46 49 49 52 54 54 56 54 57 54 54 49 57 61 59 54 50 54 54 50 57 54 51 49 45 45 43 39 37 39 38 38 39 37 36 35 34 32 30
36 36 40 42 48 50 52 52 52 52 51 51 53 51 52 49 48 50 51 48 45 47 44 45 49 50 44 44 47 48 52 44 43 42 38 35 37 37 37 36 33 33 34 36 29 27 29
42 44 47 48 51 53 54 55 56 56 57 56 56 53 52 53 49 46 45 45 42 43 41 40 41 42 38 39 41 42 44 37 39 36 33 33 34 36 35 34 34 36 35 32 28 30 31
47 48 49 50 51 53 54 56 58 59 61 60 61 61 56 52 49 48 46 42 40 40 41 39 38 38 36 37 37 36 35 34 33 33 32 30 32 32 34 34 34 33 34 36 37 28 35
46 47 48 49 49 51 53 55 57 59 60 61 59 63 61 56 51 49 47 42 41 41 37 36 37 35 35 36 33 32 34 31 31 30 28 30 33 31 25 28 31 36 40 44 42 38 40
43 43 43 45 45 46 49 52 55 57 60 61 62 60 58 55 50 49 44 44 43 39 37 37 36 32 36 35 33 32 32 29 29 27 30 30 25 23 28 31 34 37 41 45 44 40 43
41 42 42 43 45 48 52 55 58 61 59 57 57 59 55 51 46 47 45 41 40 39 38 35 36 33 32 35 30 28 32 29 28 29 27 27 24 25 27 27 32 37 41 42 44 45 45
41 42 43 46 48 52 56 57 62 58 50 45 45 48 45 46 45 42 42 40 41 41 38 34 35 34 32 31 31 30 28 28 28 25 28 27 22 22 24 28 32 38 41 47 50 52 50
40 42 44 48 51 55 58 59 60 49 41 41 40 38 40 42 42 42 38 37 37 36 35 30 31 33 32 29 29 28 27 25 25 26 27 23 22 24 25 27 34 37 41 45 48 51 52
41 45 49 52 55 58 59 61 55 45 42 42 40 38 36 40 39 41 38 34 39 34 32 24 24 28 29 28 30 28 24 24 25 24 23 21 22 22 20 25 28 37 43 45 47 51 55
46 51 53 54 57 60 61 61 49 43 45 42 38 38 34 38 40 39 37 36 39 38 26 24 19 24 24 29 30 28 27 26 25 23 21 21 19 17 20 20 26 33 39 44 48 52 46
51 53 53 55 58 59 62 56 48 47 45 42 39 36 32 36 41 38 36 36 36 32 26 26 32 27 26 28 29 30 27 26 23 24 23 19 17 18 19 19 26 29 34 35 34 38 40
52 52 52 55 59 59 59 51 44 40 39 41 38 35 29 37 42 38 38 40 33 29 31 29 29 32 25 28 26 29 27 25 25 23 23 21 19 17 15 15 18 26 25 27 32 32 34
51 53 51 55 58 60 52 48 44 42 39 37 34 32 35 36 41 40 41 40 33 36 36 36 32 33 29 28 28 28 28 28 26 23 23 21 18 17 18 14 17 19 17 24 28 34 23
52 51 51 55 55 57 50 47 45 40 36 37 38 33 31 35 39 40 41 36 30 35 39 37 35 26 27 30 32 30 25 25 24 23 21 19 18 17 18 14 13 18 10 22 23 36 32
51 49 50 54 54 52 48 44 41 34 34 32 26 8 13 28 34 40 38 31 31 31 38 36 35 32 26 26 27 28 27 26 23 21 20 18 18 15 18 17 14 11 15 23 26 22 35
50 47 50 52 53 48 43 44 32 31 28 17 4 14 21 27 30 36 32 33 34 31 31 35 31 35 33 33 31 29 25 24 24 23 21 19 19 18 17 16 14 16 18 13 20 33 14
47 45 48 49 51 44 40 39 26 24 17 8 10 18 23 23 31 32 31 33 33 36 32 30 33 30 29 29 29 33 30 29 27 26 22 21 20 21 19 19 18 20 21 12 16 29 34
44 44 47 46 46 40 37 32 22 14 10 6 7 17 25 23 20 25 29 31 34 33 32 33 33 33 32 34 34 31 33 30 28 27 24 24 22 22 20 21 23 21 21 15 17 19 42
43 44 45 43 45 35 32 26 16 10 8 3 7 15 23 27 29 25 28 22 31 33 34 36 35 37 37 34 31 30 31 31 30 28 27 25 24 26 24 25 26 26 16 19 17 12 30
42 43 42 41 41 32 28 23 16 6 9 5 9 15 21 30 32 31 30 33 29 37 36 36 33 28 27 28 30 30 30 30 29 29 29 28 27 27 27 30 30 27 21 21 21 12 21
41 42 39 39 37 28 23 19 16 11 4 7 13 18 20 23 27 30 27 27 30 30 28 28 28 28 28 29 29 29 29 29 29 30 31 32 31 31 30 33 34 24 23 21 21 22 16
39 39 37 38 32 25 20 17 15 9 7 9 10 14 17 21 24 25 25 24 23 25 25 27 28 28 29 29 27 25 25 28 26 29 32 33 33 36 35 34 35 29 31 25 19 26 26
39 36 35 38 29 23 19 17 14 12 10 12 14 15 15 20 22 23 25 26 26 27 27 28 27 29 29 25 24 23 23 22 21 18 19 26 28 33 39 38 37 30 26 19 22 27 27
37 34 33 36 26 20 17 16 14 13 13 13 15 17 17 19 21 21 22 25 27 28 28 28 26 26 25 23 23 24 19 16 19 14 16 19 20 23 26 36 40 28 33 29 29 29 23
34 32 32 32 22 17 14 13 12 11 14 15 17 16 15 20 22 18 19 20 26 31 32 30 25 24 21 20 25 21 20 18 16 15 19 18 15 13 17 29 37 27 29 36 39 35 32
32 30 32 23 20 15 10 9 10 10 10 12 15 13 17 17 14 13 13 15 16 21 27 32 26 21 20 17 24 25 11 14 17 16 17 14 17 15 17 16 19 21 26 30 29 33 33

GFSGBSN_500_spd_087.txt.gz
Wind_Speed
56 55 55 54 56 57 56 56 58 60 60 60 61 62 64 63 65 67 67 63 67 69 68 65 64 61 61 61 53 56 55 50 46 47 44 42 45 43 41 38 37 41 39 38 37 38 39
51 51 52 53 55 55 54 53 52 52 54 54 51 52 54 51 56 57 64 67 65 66 68 69 65 64 61 60 57 59 56 53 52 50 48 44 42 45 48 43 41 39 41 40 42 41 41
50 51 49 45 42 42 41 43 44 46 50 52 54 54 53 51 51 51 50 56 59 55 58 61 64 64 65 53 60 58 55 48 52 53 50 45 42 45 46 43 40 41 41 41 42 43 37
43 39 38 40 42 45 47 50 51 52 54 56 57 56 57 58 57 55 51 50 51 48 48 50 54 55 54 49 57 50 50 49 46 49 51 48 43 43 44 43 41 41 40 42 41 38 33
37 40 43 45 46 49 50 53 54 56 58 59 60 60 60 62 62 60 57 52 50 48 43 42 44 41 43 42 44 50 48 40 43 44 44 44 45 43 43 43 42 42 42 43 40 37 38
40 43 45 47 48 51 51 53 54 56 58 59 59 59 59 57 59 62 62 57 53 47 46 41 35 38 39 39 39 37 36 41 38 40 40 41 41 40 42 43 41 39 39 40 41 38 40
41 44 45 46 47 49 49 51 52 54 55 57 57 59 60 59 60 59 59 59 56 52 47 42 36 34 37 38 37 35 34 35 36 36 37 36 40 41 36 38 38 41 42 43 42 43 43
41 44 44 45 47 49 50 51 52 54 55 57 58 58 58 57 59 59 57 57 55 53 46 43 36 34 38 40 38 36 37 38 37 38 38 37 35 32 36 40 42 42 43 43 42 41 39
41 42 44 45 46 47 49 50 52 54 56 58 61 64 60 53 50 53 52 51 51 48 51 38 39 35 35 39 34 35 37 36 37 37 34 34 31 31 34 37 39 37 36 36 37 36 36
40 41 43 44 46 49 51 54 55 57 58 60 63 59 49 42 37 39 43 45 44 42 46 38 39 38 36 39 35 35 36 38 35 31 33 33 31 31 32 31 32 32 33 33 34 35 37
38 40 42 45 48 51 54 55 55 56 59 63 57 49 41 41 35 36 36 38 37 36 39 33 33 39 34 37 35 33 37 34 35 32 34 33 31 31 31 27 31 28 26 29 33 37 40
39 41 44 47 50 53 55 54 54 57 62 59 53 45 40 38 34 33 33 35 34 34 32 20 22 34 34 35 35 34 34 32 34 34 34 33 30 29 29 28 26 25 25 28 33 37 44
39 41 45 48 51 54 54 52 56 59 60 55 51 42 38 33 35 30 29 33 34 36 27 20 23 24 27 32 33 32 33 34 33 32 32 31 31 29 27 25 23 21 23 30 34 37 39
40 43 47 49 52 55 52 53 57 60 56 52 50 39 34 32 33 29 27 34 37 34 27 25 25 31 25 30 35 34 32 34 33 32 31 30 29 26 22 22 20 19 22 28 33 34 37
41 44 48 50 53 54 52 55 57 59 53 53 44 35 32 34 30 29 28 37 37 35 35 25 30 29 25 31 34 35 33 35 36 34 32 31 29 25 22 22 18 15 20 26 30 32 36
43 46 48 51 53 52 52 55 58 55 49 51 39 37 39 32 28 32 30 37 34 34 33 35 29 34 32 33 32 35 37 38 37 36 35 32 28 26 23 20 18 16 16 19 19 23 24
44 46 47 50 53 50 52 54 56 51 50 44 44 37 36 30 36 33 30 36 34 34 34 39 30 33 35 31 33 36 35 35 34 33 29 28 27 26 23 21 21 17 13 18 19 17 18
44 45 47 49 51 49 51 53 54 48 45 43 34 22 6 5 11 29 33 35 37 38 37 36 25 40 37 33 33 36 26 30 33 31 29 27 25 24 22 25 21 19 12 13 18 24 23
44 43 46 48 49 48 50 51 49 44 38 31 17 7 14 0 7 21 30 31 37 40 44 40 32 30 32 31 34 35 36 36 35 28 29 28 26 21 22 23 20 18 13 11 14 15 24
43 42 44 47 47 47 47 50 44 38 33 18 7 8 10 6 8 16 25 29 36 38 37 36 29 32 34 35 31 30 32 30 29 28 29 24 23 22 21 24 21 19 17 13 15 14 16
41 41 43 47 47 45 44 46 39 31 26 10 3 9 12 8 14 17 24 19 34 34 32 29 34 30 31 33 30 33 34 30 27 26 26 24 24 24 22 23 23 22 22 22 19 18 17
40 41 42 45 45 43 41 41 33 27 22 6 0 8 15 13 13 16 22 25 31 38 35 33 33 36 35 33 36 39 37 33 33 29 27 26 26 25 23 25 24 25 20 23 22 18 18
39 40 42 43 42 40 38 36 28 23 16 11 6 8 17 19 19 21 23 24 23 27 35 34 30 30 33 31 32 34 36 35 33 31 28 27 26 26 25 26 26 25 23 26 25 20 19
38 39 40 41 40 37 36 31 24 20 10 9 10 10 16 23 22 21 24 26 27 25 28 28 33 29 31 34 34 35 33 30 32 30 30 29 28 28 27 27 30 28 26 28 24 22 22
38 38 38 40 39 35 34 28 22 18 12 11 11 12 15 20 25 26 25 28 27 25 29 31 31 34 34 35 33 29 26 27 29 30 30 30 30 29 29 30 32 27 30 31 28 21 22
37 36 37 38 37 34 33 25 20 17 14 13 12 13 16 17 20 25 28 30 29 33 33 30 27 28 27 26 26 26 25 26 27 27 29 30 31 32 33 34 35 31 32 33 34 29 25
35 34 35 36 34 31 31 22 19 17 14 16 15 16 17 18 18 19 20 22 22 22 25 24 22 23 25 26 25 24 23 25 24 24 25 27 29 30 31 36 39 37 34 37 33 30 29
32 33 34 34 31 30 25 19 17 15 14 13 16 15 16 19 18 17 18 19 20 22 23 24 24 24 22 21 22 22 22 24 22 19 19 21 24 17 16 20 25 21 32 42 38 30 26
31 32 32 31 29 29 19 17 14 14 11 11 14 15 19 18 17 19 19 20 22 24 27 29 27 25 23 22 20 22 23 24 22 19 19 18 18 15 21 19 15 15 31 38 38 40 35

GFSGBSN_500_spd_090.txt.gz
Wind_Speed
55 56 57 56 55 55 55 55 55 56 57 55 54 55 55 55 55 56 56 57 60 62 63 66 65 67 64 63 58 62 60 60 57 54 53 51 48 44 42 41 40 43 40 38 35 38 39
56 54 53 51 49 51 51 52 50 49 50 51 51 51 52 53 54 54 55 55 56 55 57 61 67 63 65 64 61 58 62 61 59 54 51 52 50 48 47 44 44 43 41 41 38 40 41
48 48 47 47 47 46 44 44 44 46 48 51 54 56 56 58 60 60 59 58 60 56 53 54 55 63 65 55 62 63 61 60 57 55 54 51 50 52 51 45 43 45 45 43 40 40 41
46 45 45 43 42 42 44 46 48 50 52 55 57 58 61 62 64 66 66 65 64 61 59 56 54 51 53 52 52 56 59 59 58 55 53 52 52 53 55 50 43 43 46 46 42 41 41
42 42 42 41 42 44 45 47 50 52 53 55 57 59 62 64 65 66 65 64 64 64 64 60 57 49 43 46 46 51 53 51 56 53 51 53 53 52 52 52 49 46 46 44 44 42 42
39 40 41 42 44 45 46 48 51 53 54 56 58 61 64 63 64 64 63 62 61 61 62 62 59 53 44 43 45 49 46 48 50 49 48 50 50 48 49 50 53 47 42 43 44 45 45
38 39 41 43 44 45 48 50 52 53 55 58 60 62 63 63 66 66 65 64 62 61 59 60 59 52 45 44 45 45 45 43 48 49 47 43 45 43 46 46 44 45 46 46 46 48 48
39 39 41 43 44 46 49 51 52 54 56 58 60 62 63 63 63 66 67 65 61 61 58 56 52 54 43 47 43 46 44 44 46 39 39 43 45 41 40 43 46 48 47 47 47 46 48
38 39 41 43 45 48 50 51 53 56 58 59 60 61 62 60 65 64 60 52 49 49 56 47 48 48 44 46 41 42 43 38 37 37 36 35 34 35 36 38 42 44 44 44 44 44 46
38 39 41 43 45 47 49 52 55 56 58 60 60 59 61 63 60 54 50 42 42 41 46 41 39 43 42 44 43 36 40 37 39 37 36 39 36 34 35 36 38 39 37 39 42 44 44
37 39 41 43 46 47 50 53 55 57 59 60 58 59 63 60 54 48 40 38 35 34 38 18 21 36 39 39 44 35 37 36 37 36 37 35 34 33 33 30 32 32 31 33 34 37 40
37 39 42 43 45 48 51 53 54 57 60 58 58 61 57 55 52 42 33 33 29 29 29 11 17 30 30 37 39 32 36 38 38 38 35 35 34 33 31 29 31 31 30 31 33 32 36
38 40 42 43 45 48 51 53 55 59 59 57 58 59 53 55 47 38 30 28 28 30 17 17 18 23 30 34 36 30 33 34 35 35 35 35 35 30 29 29 28 27 28 30 30 30 33
39 41 41 42 45 48 50 53 56 60 57 58 60 57 53 56 44 35 30 28 30 23 22 22 21 17 25 34 36 30 33 35 33 35 36 34 33 32 29 25 27 30 28 27 30 28 28
41 41 41 42 44 48 50 53 56 59 57 59 62 56 58 55 50 40 32 29 24 18 22 22 17 18 24 29 30 30 32 35 36 35 34 34 34 32 29 29 30 29 26 26 24 22 25
41 41 42 42 44 47 50 54 56 59 58 60 60 57 60 53 41 33 30 26 20 23 23 28 23 15 22 25 27 30 35 36 37 36 34 33 32 30 28 27 25 24 24 22 20 22 23
42 41 42 43 44 47 49 53 57 57 58 60 57 58 49 34 22 20 25 24 21 28 27 25 23 20 26 30 26 28 33 36 35 37 32 30 30 28 27 26 26 26 25 24 19 19 22
42 42 43 43 44 46 48 52 56 55 56 57 53 49 15 13 10 11 11 24 26 32 33 15 28 16 34 31 30 28 29 34 35 32 32 31 29 29 27 26 26 27 24 20 18 12 16
44 44 43 43 44 45 46 51 54 52 54 50 45 28 7 9 10 8 8 20 28 31 33 21 20 22 27 32 33 33 18 31 32 34 28 28 28 27 26 25 27 25 23 21 19 14 11
44 44 44 42 42 43 45 49 51 48 49 43 36 12 7 9 6 6 6 15 22 32 37 28 11 21 10 32 29 34 35 18 34 27 27 25 22 21 23 24 26 26 25 23 20 15 11
45 43 41 40 40 42 43 47 47 44 43 38 29 15 4 6 4 18 15 12 14 19 35 32 19 12 19 19 38 29 33 35 31 22 24 25 24 23 22 23 24 26 23 21 21 19 19
44 40 39 39 38 39 41 44 45 41 36 32 22 16 6 3 9 15 9 10 24 23 29 27 32 25 15 15 15 30 23 28 28 27 24 23 24 26 23 24 26 26 23 24 23 20 21
42 39 38 38 37 37 39 42 41 38 32 26 20 14 7 8 9 13 6 10 7 22 22 23 26 33 24 22 26 26 27 28 28 28 26 24 24 25 25 25 27 27 25 25 24 20 19
40 39 39 36 35 35 37 40 38 36 29 24 17 12 12 13 12 14 15 16 16 16 23 20 21 26 26 28 25 22 23 24 26 28 27 27 27 27 27 26 27 26 26 26 25 20 19
40 39 38 36 34 34 35 38 36 34 26 23 16 12 14 15 18 17 17 18 18 17 17 19 23 24 26 25 25 24 21 22 27 30 29 29 28 30 29 27 28 26 28 27 28 23 20
39 38 37 35 32 33 33 35 33 33 25 21 17 14 15 15 16 20 20 21 19 18 17 17 19 21 25 27 26 26 28 27 30 31 28 26 24 24 25 27 27 27 22 27 31 25 22
37 36 35 33 31 31 33 33 31 29 22 18 18 15 17 16 15 18 22 21 21 22 20 20 22 21 23 26 27 26 26 24 25 23 24 24 23 23 26 27 26 26 27 30 35 30 27
36 34 33 31 29 29 31 30 30 25 20 16 16 15 17 18 16 16 17 18 21 23 22 19 20 22 21 22 24 22 21 21 21 23 21 21 21 23 25 27 24 22 28 30 34 37 34
36 34 32 30 28 28 29 27 27 20 18 13 13 18 16 18 17 16 16 17 18 19 20 20 21 21 20 20 21 21 21 20 21 20 21 19 21 19 21 17 14 14 18 24 32 34 33

GFSGBSN_500_spd_093.txt.gz
Wind_Speed
40 42 44 46 48 50 49 46 47 47 48 49 50 50 49 49 50 51 51 51 52 53 53 53 52 52 55 57 53 64 65 61 59 59 58 60 57 53 51 49 48 49 47 44 40 38 37
45 47 48 48 48 47 45 44 45 45 45 47 48 48 49 51 53 55 56 57 58 60 59 58 57 54 54 50 51 56 60 59 60 59 59 59 58 54 54 53 52 49 47 43 40 38 39
48 48 50 47 44 41 42 41 43 43 45 46 48 50 52 54 56 56 57 61 63 66 66 67 65 62 55 42 53 54 54 56 57 59 58 60 59 57 56 56 55 53 52 48 44 40 38
48 47 42 40 39 38 39 41 43 44 46 48 51 53 54 56 58 58 60 63 66 67 68 69 70 70 59 56 54 52 52 54 58 57 59 59 61 59 60 59 57 53 53 51 45 43 39
43 40 40 39 36 37 39 42 44 45 47 50 52 54 55 57 60 63 65 68 70 67 66 64 63 66 64 60 60 52 50 50 54 56 59 64 60 60 59 60 58 56 55 53 48 41 42
39 38 37 36 36 38 40 44 45 47 48 51 54 56 57 59 63 66 68 67 68 66 63 62 61 60 58 59 57 53 48 48 51 57 56 57 60 59 57 58 58 56 53 50 47 45 45
37 35 35 36 37 39 42 44 45 47 48 53 55 57 58 61 66 69 68 67 65 62 61 62 61 58 53 53 56 51 47 47 52 53 54 55 58 55 54 54 52 51 52 50 50 50 48
35 35 36 38 38 41 42 44 46 48 50 54 56 58 60 64 67 69 67 66 69 70 61 48 47 56 50 52 54 45 45 46 47 46 52 50 48 47 48 51 53 53 52 52 51 50 51
35 36 38 38 40 42 42 45 46 49 52 55 57 60 63 64 66 66 64 65 65 60 59 33 35 40 47 48 48 41 43 46 45 42 44 47 45 42 45 42 42 46 47 47 47 47 48
36 37 38 38 41 41 42 45 47 50 53 56 59 62 65 64 65 61 62 57 59 52 49 30 20 17 32 39 42 41 43 41 43 40 37 38 39 41 43 43 37 35 33 36 40 43 43
35 38 38 39 40 41 42 45 47 50 53 56 59 63 65 67 64 61 53 54 53 46 43 22 7 6 20 33 40 37 40 40 38 39 38 30 31 30 31 31 30 30 28 30 33 35 37
36 39 37 39 40 41 43 45 48 50 53 56 60 63 66 67 62 62 52 52 50 41 37 20 10 4 16 28 34 31 35 37 33 34 31 31 30 30 28 26 25 25 27 27 28 27 31
38 37 38 39 40 42 43 45 47 50 53 56 60 64 68 65 66 59 61 57 45 35 26 16 16 7 11 19 31 27 31 33 34 35 32 28 29 31 28 25 25 24 24 24 26 26 28
37 37 38 40 41 41 43 45 47 49 52 56 60 66 68 69 66 66 60 48 35 26 17 10 20 6 4 18 28 27 29 27 28 29 27 29 29 28 24 25 23 24 26 25 24 24 24
37 38 39 40 41 41 43 44 47 49 52 56 60 66 65 74 68 64 45 25 18 17 13 18 17 7 9 22 23 27 29 27 27 28 28 26 29 29 28 25 26 27 24 23 23 22 21
38 39 40 41 41 41 42 44 46 49 51 55 60 63 69 69 63 45 23 13 12 17 15 21 11 6 5 19 17 26 29 28 28 27 26 26 27 27 26 27 27 24 22 23 25 23 22
39 39 40 41 40 41 42 43 45 47 50 55 60 60 65 59 47 32 23 14 13 19 23 20 5 8 11 23 26 25 27 24 27 28 26 24 24 25 25 27 26 24 25 26 21 22 23
38 38 40 41 41 41 42 42 43 45 49 54 58 57 57 50 39 33 28 5 14 18 23 20 13 8 18 23 31 28 27 25 22 25 25 22 22 21 23 23 23 23 23 23 24 24 21
38 40 41 40 40 41 41 41 42 43 46 52 53 53 49 39 29 19 15 1 12 18 23 19 12 8 22 29 26 24 24 27 25 19 21 21 22 22 22 22 21 22 23 23 25 23 22
40 40 41 39 38 39 38 39 40 40 44 49 49 47 39 30 18 15 13 2 5 20 29 20 16 10 3 23 26 21 21 27 25 19 22 21 22 21 18 21 22 22 23 24 25 22 22
41 40 38 37 37 36 36 37 37 38 41 46 45 40 33 21 7 12 13 7 3 15 25 28 5 11 8 9 32 30 20 22 31 25 21 19 20 21 22 21 21 23 24 25 25 24 21
40 39 37 35 35 35 35 35 35 35 39 41 40 34 25 14 4 8 11 7 6 9 11 24 18 5 3 8 11 26 28 19 18 25 15 19 24 20 26 25 24 22 23 25 23 21 18
40 37 36 34 33 34 34 33 34 33 37 38 38 31 24 12 3 6 3 0 6 9 9 14 17 16 14 10 3 4 22 22 21 23 17 16 15 19 20 20 22 21 22 23 19 19 18
38 37 35 33 32 33 33 32 32 32 35 35 34 28 22 14 8 12 12 8 8 6 8 11 14 18 18 15 9 5 12 15 16 15 15 18 17 20 22 20 17 18 20 21 18 19 19
36 33 32 32 32 32 31 30 30 31 34 32 31 25 20 15 11 13 14 14 12 11 6 9 11 12 15 17 14 12 7 10 12 14 17 20 19 20 21 23 20 20 21 21 19 19 18
35 34 32 31 30 30 29 28 28 30 32 29 29 23 19 15 13 14 17 17 14 11 12 8 9 10 11 14 15 13 15 16 16 20 22 24 21 17 18 20 22 19 20 23 23 17 20
36 34 32 30 29 28 27 25 26 29 30 28 25 22 18 16 13 15 16 20 18 14 11 10 10 11 12 14 15 16 18 18 20 22 22 22 21 19 18 17 16 17 18 20 22 25 22
36 34 32 29 28 26 25 24 26 28 27 26 21 20 17 17 15 14 15 16 17 17 18 16 14 16 18 17 16 17 18 20 21 24 23 20 19 18 17 16 15 16 17 20 23 27 28
36 34 32 29 28 26 25 24 25 26 25 21 19 19 14 14 16 12 15 14 14 15 16 17 17 16 17 17 16 16 17 19 20 19 18 18 17 16 15 15 11 13 16 20 21 26 28

GFSGBSN_500_spd_096.txt.gz
Wind_Speed
43 41 38 39 41 43 43 42 42 44 45 44 43 42 42 43 43 46 48 49 50 50 50 52 54 55 54 52 44 55 56 60 61 62 61 62 64 63 63 60 55 54 51 50 49 44 45
45 44 43 41 42 45 45 44 45 44 44 42 39 40 40 43 46 49 51 51 53 53 54 57 58 58 58 56 54 59 59 60 61 59 57 60 63 64 64 64 61 59 56 55 51 48 46
46 46 47 42 39 42 45 46 44 41 41 38 39 41 43 46 49 51 52 52 53 55 57 60 64 67 69 63 66 65 63 63 60 59 56 57 62 65 66 66 65 63 60 57 53 47 44
47 48 46 44 43 43 43 42 39 39 39 40 42 43 45 49 51 52 53 55 56 57 61 67 71 73 73 70 67 64 69 63 63 56 54 56 59 63 66 65 67 63 63 62 56 51 44
47 46 45 47 47 42 41 40 39 39 39 41 44 46 47 52 54 54 55 57 58 61 66 70 73 72 70 68 65 63 64 63 62 58 54 57 59 60 64 64 64 65 64 62 61 58 48
46 45 46 44 40 38 38 37 37 38 41 44 46 48 49 53 56 57 58 60 62 66 69 70 68 67 64 61 59 58 58 58 57 56 57 56 56 59 61 64 63 65 65 63 62 57 51
45 46 44 38 34 36 36 37 37 39 43 45 47 50 53 55 58 60 62 64 68 73 67 62 61 65 55 53 61 53 52 53 51 54 54 54 55 54 49 57 59 63 66 62 61 59 55
42 43 42 35 34 35 36 36 38 42 44 47 48 51 53 57 60 64 67 70 74 75 68 54 55 51 48 50 50 43 50 50 49 48 50 53 48 49 55 55 61 61 63 63 63 63 57
41 42 36 33 34 34 34 36 40 43 45 48 49 51 54 57 61 66 70 72 72 70 70 49 54 39 32 34 37 28 46 45 43 46 47 46 44 47 55 54 54 55 56 55 57 55 55
41 38 34 33 33 33 35 38 40 43 45 48 50 52 55 58 62 67 70 71 70 72 67 59 41 30 19 19 18 30 39 40 42 43 38 45 39 43 47 48 49 52 47 43 48 51 50
39 34 32 33 32 33 36 38 41 42 45 48 50 53 56 60 64 68 71 70 71 67 65 46 36 23 18 14 15 24 36 41 40 38 41 38 32 37 44 43 40 39 35 33 35 40 46
35 33 32 32 33 34 37 38 40 42 45 48 51 53 57 61 65 69 71 72 69 68 57 35 26 20 19 10 14 20 35 37 34 33 32 32 29 30 34 36 32 27 27 28 27 29 36
32 32 32 33 34 35 37 38 40 43 45 48 51 54 57 61 65 71 72 72 71 48 26 24 11 16 15 11 11 18 30 35 35 36 32 26 27 30 31 34 35 33 29 26 26 28 27
32 32 32 33 34 35 36 37 40 43 44 47 50 52 57 61 67 70 72 72 52 22 14 14 12 20 5 5 12 17 26 29 30 31 28 25 29 27 25 25 20 26 22 21 22 21 25
32 31 32 34 35 35 36 37 40 42 43 46 47 51 56 61 66 69 68 55 39 15 9 9 11 14 5 16 14 19 24 26 28 28 28 22 23 24 25 20 17 19 22 21 20 20 19
31 32 33 33 35 35 36 37 39 41 42 43 44 49 55 60 64 64 59 41 25 5 6 7 7 1 13 12 17 19 21 26 28 28 25 22 24 23 24 25 21 22 21 24 24 24 20
32 33 33 34 34 35 35 36 38 39 40 40 43 47 52 57 60 57 47 26 6 6 15 16 7 7 14 14 19 17 19 23 26 28 24 21 18 18 20 22 22 21 21 23 21 20 18
33 34 34 34 34 34 35 34 36 37 37 38 40 44 49 53 53 49 32 14 5 14 19 16 13 12 12 16 26 21 19 18 21 21 20 20 19 19 21 18 21 24 24 20 20 20 19
35 35 34 33 33 34 34 33 34 34 34 36 39 42 46 48 45 38 21 7 3 20 19 26 22 18 11 19 17 29 27 24 22 22 21 19 17 17 19 23 25 25 22 20 19 18 19
35 34 33 33 33 33 32 32 31 30 32 34 36 39 41 41 39 30 15 5 1 16 9 14 17 16 13 13 13 13 20 14 16 22 18 17 19 21 20 18 17 17 18 19 20 20 20
34 33 32 32 32 33 31 30 28 28 31 32 33 36 38 36 30 23 13 8 6 15 3 6 7 11 13 15 18 15 22 22 17 20 23 24 22 19 19 18 18 18 19 20 19 20 19
34 33 33 33 32 30 29 28 26 27 29 30 31 33 35 31 23 17 10 1 3 11 11 11 5 6 11 14 13 25 26 31 25 21 26 24 21 26 22 21 18 19 22 21 21 21 19
34 33 33 32 31 28 27 25 26 26 27 27 28 30 32 28 18 12 8 4 5 8 10 12 13 15 11 8 10 13 19 24 31 23 20 13 24 23 21 21 22 21 21 20 20 19 16
33 33 32 31 29 27 26 25 25 24 26 25 26 29 29 26 17 11 11 9 8 8 8 8 10 13 9 9 8 9 12 18 18 16 12 8 6 7 12 19 19 19 18 18 18 17 16
33 33 32 29 27 26 25 24 24 23 24 24 25 27 26 24 17 13 13 14 15 12 6 5 5 8 9 8 10 7 4 9 10 8 8 6 9 14 10 14 15 17 14 14 17 16 17
32 31 30 28 26 26 25 24 23 22 22 23 24 26 25 23 16 13 15 16 16 15 10 6 4 5 6 7 7 7 6 4 5 7 8 8 11 16 15 15 19 25 23 18 15 16 19
33 31 30 28 28 26 25 23 22 22 21 22 24 24 23 21 16 14 16 16 18 15 12 10 7 7 7 7 8 8 8 10 9 10 11 13 13 15 17 12 13 17 19 22 19 19 20
35 33 31 30 28 26 24 23 22 21 21 21 24 23 20 18 18 12 16 16 16 16 15 11 10 7 9 8 8 9 11 12 14 15 16 16 16 15 13 13 15 17 18 18 18 19 19
37 35 33 30 28 26 24 23 23 21 20 21 22 22 16 14 16 10 13 14 14 14 13 14 13 11 12 12 11 10 11 13 13 12 14 15 16 14 13 12 14 16 18 18 19 19 21

GFSGBSN_500_spd_099.txt.gz
Wind_Speed
41 41 41 39 40 42 44 43 46 46 43 42 44 43 43 45 46 47 47 48 49 51 48 49 50 52 52 53 49 53 58 60 59 55 55 58 60 62 65 64 67 66 64 58 54 54 54
46 45 45 43 42 40 39 39 36 37 40 44 45 44 44 45 46 45 44 47 49 50 53 55 55 57 59 61 60 61 63 61 61 62 59 58 59 60 65 66 69 67 69 66 63 57 54
51 50 49 46 43 40 41 39 39 41 42 44 44 44 45 44 44 43 45 48 51 52 53 56 58 60 63 62 66 71 74 70 68 67 67 62 62 62 60 67 66 71 73 72 67 61 56
45 48 47 47 44 42 42 42 43 44 44 44 45 44 43 43 44 46 48 51 54 55 56 58 61 66 68 70 75 78 79 79 77 70 68 68 67 66 59 61 68 70 73 74 70 67 59
46 46 50 49 47 44 43 43 44 44 43 41 43 41 41 43 45 48 52 54 55 57 58 63 67 68 73 78 81 81 77 75 75 72 66 65 69 66 62 58 64 68 72 72 70 67 66
50 48 48 48 46 44 43 45 43 40 41 41 41 39 42 45 48 51 54 57 59 61 61 66 68 77 77 75 74 71 62 62 63 62 61 63 65 65 64 60 65 64 67 68 67 61 66
49 48 49 45 46 44 44 43 40 39 39 39 38 40 44 47 50 55 58 61 63 67 67 68 75 81 71 66 62 61 54 53 50 51 56 55 59 65 61 56 50 55 55 42 49 43 51
45 51 49 47 45 45 43 41 38 37 37 37 38 41 45 49 53 57 61 65 69 74 75 74 76 76 71 65 57 45 48 52 43 44 43 51 60 51 49 50 51 51 55 56 56 48 51
45 52 51 46 42 44 43 39 35 36 36 37 39 44 47 50 54 58 63 66 72 79 87 81 81 73 61 45 36 30 37 41 40 39 39 44 43 45 50 51 52 57 50 50 58 57 55
47 47 45 41 42 45 38 33 34 35 36 37 40 44 48 52 55 59 65 70 77 84 84 79 63 42 30 27 27 26 31 31 33 36 38 33 32 32 46 48 46 49 47 48 51 56 55
44 43 40 39 42 40 33 32 33 35 36 38 41 45 48 51 55 59 65 73 80 81 78 48 26 33 27 27 22 22 25 25 29 29 31 30 35 30 38 42 40 39 34 27 37 41 41
42 38 37 40 40 32 30 31 32 34 36 38 41 45 47 51 55 61 68 74 75 79 41 31 38 35 22 19 19 16 20 21 31 35 33 22 27 33 29 29 34 33 38 32 33 34 38
38 35 38 38 33 30 30 30 32 34 35 37 41 43 47 49 54 60 67 70 74 51 45 29 19 5 7 13 6 8 12 15 35 34 25 25 24 31 28 27 27 40 40 31 27 29 35
39 38 36 33 32 29 29 30 32 33 35 37 39 42 45 48 53 60 64 67 65 45 23 11 4 6 13 13 7 5 10 15 28 27 21 21 22 25 25 27 28 31 31 27 22 22 17
38 37 35 32 30 28 29 30 31 32 34 36 37 40 43 46 51 57 59 61 46 18 14 18 11 10 9 4 3 2 10 17 23 28 21 24 23 24 17 24 31 35 32 22 20 20 23
38 36 34 32 29 28 28 29 31 31 33 34 36 38 41 43 48 52 53 51 21 13 18 19 12 21 10 13 10 5 10 17 23 27 20 22 23 18 19 27 28 21 31 30 29 24 17
36 34 33 31 28 28 28 29 29 29 31 32 34 36 37 40 45 48 46 38 11 15 9 13 19 19 13 1 10 11 11 16 28 30 23 26 18 16 25 24 22 32 30 28 26 22 20
35 35 33 30 28 28 28 28 29 28 29 30 30 33 34 36 41 43 40 29 3 14 10 16 15 17 19 11 14 4 11 12 18 24 29 24 18 15 19 21 17 17 17 20 20 18 22
35 35 32 30 28 26 28 28 27 27 27 28 28 30 31 33 37 38 36 22 10 10 8 11 14 18 14 9 12 13 19 18 15 16 18 16 19 20 17 29 20 25 19 20 23 16 20
37 34 31 28 27 27 29 27 25 26 25 25 27 28 27 29 34 33 31 22 14 7 2 9 11 14 19 7 6 17 28 22 18 14 18 17 15 14 12 16 22 21 22 21 18 18 16
36 32 29 26 27 28 27 25 25 25 23 22 25 26 25 26 30 29 27 21 10 20 7 10 6 12 19 11 10 27 24 9 15 16 20 19 15 17 16 15 19 20 19 18 17 18 15
34 31 31 28 29 29 27 24 24 24 22 21 24 24 22 24 27 26 22 18 11 19 21 14 6 3 13 16 10 25 16 18 20 24 22 18 17 18 18 20 16 17 15 15 15 13 12
34 32 31 30 29 27 26 24 22 22 20 20 22 22 21 22 26 23 20 14 12 14 25 19 13 7 10 14 8 14 24 20 12 23 26 26 20 19 18 18 15 14 15 16 15 13 13
34 34 31 30 29 26 25 23 22 20 20 22 22 20 20 21 23 22 18 14 13 12 15 25 20 15 11 7 9 9 23 25 21 19 13 25 22 22 21 20 19 18 16 14 17 16 14
35 33 31 30 28 26 24 22 20 20 21 22 20 20 20 21 22 20 17 15 15 15 12 16 24 18 14 8 3 8 11 9 16 8 3 9 15 17 18 24 15 16 17 15 16 13 14
33 32 30 28 26 25 23 21 20 21 22 21 20 20 20 21 21 19 17 16 16 17 15 13 21 16 11 8 7 4 2 9 11 9 8 6 5 6 7 9 14 15 16 16 14 13 14
30 28 26 26 25 24 22 20 21 21 23 21 20 20 20 21 21 18 17 16 17 17 17 15 15 15 12 7 4 4 2 6 7 8 7 5 3 3 6 12 16 16 20 22 22 19 18
26 26 25 25 24 23 23 22 22 23 22 22 21 20 20 21 21 18 16 16 18 18 17 15 15 15 14 14 11 8 8 6 7 8 7 6 6 8 9 13 16 17 16 16 18 23 22
29 27 27 26 26 25 24 23 24 23 22 22 21 20 20 21 21 15 13 15 15 16 15 14 17 16 16 16 15 11 10 9 7 5 10 11 10 8 12 13 15 16 17 17 18 19 20

GFSGBSN_500_spd_102.txt.gz
Wind_Speed
43 43 43 42 40 42 40 40 40 39 38 39 44 51 49 43 42 45 46 46 48 49 50 51 53 53 54 55 53 54 57 56 57 58 56 56 57 57 58 58 60 65 59 65 63 62 56
45 44 44 44 45 46 46 44 44 43 39 40 37 36 38 41 44 45 46 47 49 50 51 53 56 58 59 59 57 61 61 60 60 61 63 62 62 60 62 62 64 61 63 66 66 67 63
48 46 47 45 45 46 46 42 42 43 43 43 42 40 42 44 43 45 46 47 48 50 51 52 56 60 63 59 64 67 68 69 70 70 70 68 67 67 64 66 62 64 67 67 70 68 70
51 47 49 48 45 43 43 43 43 43 44 46 45 45 46 45 45 46 47 47 47 47 50 54 58 63 63 65 71 72 73 74 75 78 80 79 78 77 73 68 69 69 67 70 64 70 73
55 56 52 46 47 44 45 44 45 46 45 46 45 46 46 45 45 45 46 45 46 50 52 56 62 65 66 70 73 77 79 82 82 82 81 80 78 75 71 69 71 71 74 70 66 70 66
58 52 48 44 45 44 45 47 46 45 45 45 46 44 44 43 43 45 45 47 49 53 56 61 68 72 73 77 80 87 86 84 81 79 70 69 66 66 69 68 71 70 68 65 63 60 63
56 62 52 45 48 46 47 50 46 45 44 44 43 42 41 41 43 45 46 48 52 56 60 63 70 78 79 90 92 83 72 69 68 65 63 58 58 62 64 60 57 58 57 56 49 56 46
54 57 59 45 44 46 48 50 49 44 42 43 39 38 37 39 43 45 48 52 58 63 63 70 79 86 92 91 80 52 47 47 50 51 46 46 47 46 47 47 51 53 51 44 45 43 50
62 57 51 41 44 45 50 53 48 42 41 37 34 35 36 38 42 45 49 54 61 67 72 77 89 88 81 54 21 33 28 28 34 34 34 38 31 28 37 44 46 45 50 44 45 38 44
59 55 55 47 45 47 50 50 42 39 36 31 32 33 36 39 41 46 51 56 62 68 73 71 79 68 46 36 38 31 20 25 25 30 29 29 23 19 19 39 36 33 32 44 42 51 38
59 61 50 49 45 47 49 42 37 36 30 29 31 32 35 37 42 46 51 56 63 69 82 74 61 58 41 37 37 10 24 18 23 29 24 16 23 23 27 29 33 30 28 35 40 46 50
70 51 47 47 49 45 40 36 34 28 27 28 29 32 34 37 41 45 51 56 63 70 63 47 31 24 23 23 17 10 17 21 23 11 17 23 22 23 12 10 27 26 38 34 29 29 43
54 46 45 47 44 37 34 32 26 25 26 27 29 31 33 36 39 43 48 55 62 61 43 28 16 25 28 21 14 13 9 14 8 11 28 28 24 27 21 25 28 40 36 30 31 27 26
40 42 45 40 36 32 30 25 23 25 25 27 28 29 32 34 36 41 48 53 57 46 26 25 21 25 25 17 16 13 10 6 2 26 17 13 11 24 30 27 34 29 32 35 34 28 22
40 45 40 40 34 30 27 24 23 24 25 26 27 29 30 31 34 39 45 48 50 38 23 16 19 21 21 16 13 18 13 10 14 28 24 8 14 22 21 23 25 24 31 31 17 15 17
39 38 39 39 31 27 27 24 24 24 24 25 25 27 28 29 32 36 40 45 41 32 17 14 24 24 13 14 6 10 14 10 8 13 2 7 12 7 13 18 25 24 21 29 24 16 13
37 36 37 33 27 29 26 24 23 24 23 23 24 25 25 27 31 34 36 37 34 27 15 13 17 16 15 11 3 3 10 14 14 12 1 7 1 8 14 13 16 28 35 30 19 14 16
37 37 35 30 29 28 25 23 23 23 21 22 23 22 23 25 29 30 33 33 32 22 14 14 12 17 16 3 9 13 15 13 18 10 9 6 13 7 6 12 20 20 30 18 17 23 20
39 36 32 29 28 27 24 23 23 22 21 21 22 21 21 24 26 27 29 30 27 19 13 10 11 12 11 11 6 10 8 7 17 19 26 20 14 7 11 21 15 25 18 29 16 31 30
38 35 31 29 27 27 26 24 23 22 20 21 21 20 18 22 24 24 26 27 25 23 17 11 8 11 12 8 10 4 15 7 9 13 17 20 17 7 10 19 14 27 9 20 23 10 22
38 32 31 30 28 28 26 23 23 22 20 21 18 18 19 22 22 22 24 25 22 21 19 11 6 6 9 8 11 10 14 8 9 8 10 10 8 15 12 15 18 14 15 15 15 12 11
35 35 33 30 31 28 27 25 23 23 21 18 18 17 18 20 19 21 21 21 20 18 17 20 11 6 7 8 7 13 16 12 3 10 13 13 14 11 19 20 14 19 22 18 15 20 23
35 35 33 32 30 27 24 24 23 22 20 19 18 17 18 18 19 20 21 19 18 17 18 26 22 11 7 9 3 8 7 3 6 12 8 15 9 13 21 22 16 15 8 10 11 11 13
38 37 35 33 30 26 27 25 24 23 20 18 17 17 18 17 19 19 21 18 18 17 17 19 28 24 15 11 7 2 12 8 7 12 12 10 21 14 14 14 15 16 17 16 13 14 16
37 36 34 31 28 29 27 25 23 22 20 17 17 17 19 19 19 20 21 19 20 19 19 18 19 26 23 16 10 4 10 6 9 18 15 20 20 15 16 13 9 9 13 16 12 12 14
36 34 32 30 30 29 28 25 23 22 19 18 18 19 20 20 19 22 22 21 21 19 20 18 18 14 23 14 10 3 3 8 12 12 8 11 13 14 15 9 12 7 10 10 10 11 13
34 34 32 30 30 29 26 23 22 21 18 19 19 22 21 21 20 23 23 21 22 19 20 17 17 17 19 16 12 6 3 6 6 8 8 7 7 5 2 1 7 10 12 15 16 17 15
33 33 31 31 30 27 23 22 22 20 19 20 21 23 22 22 22 23 23 22 22 19 17 14 19 18 18 20 15 12 9 7 8 9 9 8 8 6 7 5 6 9 13 14 16 17 19
31 29 26 25 23 22 21 20 20 20 21 22 22 22 22 22 23 23 22 23 20 16 14 15 17 19 19 21 19 14 13 11 9 3 9 11 9 7 7 8 9 11 13 15 17 17 18

GFSGBSN_500_spd_105.txt.gz
Wind_Speed
48 48 48 46 44 42 40 39 40 40 39 40 39 39 38 36 32 33 36 40 40 45 46 48 49 51 51 50 45 52 56 55 57 56 58 61 62 61 59 58 60 65 61 58 58 60 59
51 51 48 48 47 45 42 41 42 44 45 44 41 39 36 37 36 36 39 42 46 46 47 49 51 49 51 51 53 57 57 58 61 64 62 65 66 67 67 68 66 63 62 62 59 61 61
46 46 42 49 51 46 45 45 43 42 42 42 40 39 39 39 40 41 42 44 44 46 47 48 51 51 49 50 54 57 61 63 66 67 69 70 72 72 70 71 70 69 68 66 65 61 62
50 45 48 47 52 49 49 49 49 44 42 41 42 43 43 43 43 43 44 45 47 46 47 46 50 50 49 53 57 62 66 68 71 76 78 78 79 81 82 81 76 75 73 74 67 65 65
55 55 49 49 47 52 51 46 44 45 43 43 45 43 43 43 45 43 45 46 45 45 46 46 48 50 53 57 61 68 74 79 81 85 87 88 89 91 87 87 84 80 79 75 72 65 67
56 56 52 47 46 43 47 48 45 49 44 45 46 45 44 44 44 44 44 42 41 41 43 47 49 54 60 63 69 76 84 92 96 99 99 93 86 79 80 72 77 71 65 65 65 63 65
56 58 55 44 47 46 50 49 52 49 48 47 50 49 47 44 43 42 38 36 37 39 42 48 55 61 64 70 77 83 90 92 76 63 58 55 60 63 59 56 51 51 52 54 50 46 59
59 57 55 47 52 53 55 48 57 48 48 47 50 50 45 43 38 35 36 37 41 44 47 54 58 64 73 80 84 80 71 55 44 36 32 29 39 35 39 46 44 43 47 47 44 43 45
60 58 55 51 49 53 59 55 53 46 50 48 50 46 39 36 31 32 33 37 41 44 49 54 61 70 74 74 66 58 50 50 35 31 31 31 24 25 28 25 26 36 44 43 40 44 48
61 59 57 53 49 53 57 49 49 47 49 52 47 36 33 27 28 31 33 36 41 45 50 58 64 65 65 54 37 37 38 34 29 31 21 25 18 25 23 21 22 35 32 35 29 40 40
67 64 60 58 51 55 60 59 51 51 48 47 37 27 23 24 28 29 31 36 40 44 51 58 63 64 48 39 38 30 36 34 24 14 25 26 23 20 23 15 13 17 17 19 30 34 38
65 61 57 58 52 56 55 46 48 46 44 39 28 21 21 24 26 27 31 36 40 44 49 55 55 50 33 29 34 34 28 28 24 21 19 9 16 25 14 17 16 22 25 24 26 33 35
59 59 57 54 60 59 46 42 44 42 38 28 20 18 21 23 24 27 32 35 39 44 50 51 47 35 32 32 28 32 28 20 17 12 6 16 18 20 16 11 25 24 24 23 24 29 27
56 67 52 56 54 50 44 39 38 37 30 21 16 20 20 21 23 26 31 35 37 43 46 42 36 28 30 26 28 29 23 12 9 5 16 12 10 19 11 23 26 21 18 21 25 16 19
47 50 53 46 51 54 41 36 35 32 23 18 18 19 18 19 22 25 29 32 37 40 44 40 28 22 28 28 30 25 13 8 7 13 6 5 3 16 17 7 12 19 19 24 28 18 14
54 50 48 44 50 47 37 34 35 26 21 18 18 17 17 18 21 23 26 29 34 38 40 32 28 22 27 24 25 17 10 4 7 3 16 24 10 15 23 14 15 21 20 28 30 24 18
48 47 44 48 46 39 38 37 30 24 20 19 17 16 14 17 20 21 24 25 30 34 35 28 24 20 27 22 23 21 13 7 7 5 13 20 14 6 2 8 11 20 21 22 24 13 11
47 50 45 44 39 39 39 35 28 23 20 18 18 16 14 17 17 20 20 23 27 27 30 27 19 20 26 22 25 24 12 11 11 20 13 8 8 3 1 5 8 18 22 22 21 4 7
42 45 44 39 38 40 37 30 26 22 20 19 17 16 15 16 17 18 19 22 24 24 25 26 20 19 23 27 21 19 11 13 10 15 12 5 2 2 4 12 3 4 21 19 5 10 19
45 43 37 35 38 40 32 28 25 22 21 18 17 16 16 16 17 17 18 20 21 23 23 23 19 18 15 25 27 19 13 10 12 14 17 15 9 7 6 8 10 14 15 16 8 16 10
35 35 35 38 41 36 32 28 25 23 20 19 18 17 15 15 16 16 16 18 19 21 22 20 17 14 13 17 24 24 20 16 10 13 7 3 9 8 1 7 9 23 21 19 21 14 10
32 33 39 42 40 36 30 29 25 23 22 20 18 17 15 17 17 16 16 18 19 21 20 20 16 15 11 13 17 18 15 9 11 7 12 11 2 6 13 11 11 10 27 23 19 16 13
35 40 43 43 40 35 32 29 26 24 22 19 18 16 17 18 17 17 16 18 19 20 21 19 17 15 14 10 11 12 11 11 5 11 10 2 1 11 18 15 17 17 10 12 13 15 14
33 43 46 42 37 34 32 28 25 23 21 21 18 18 18 17 19 16 17 19 20 21 20 21 19 17 20 13 11 7 10 13 7 4 9 5 2 6 13 15 11 13 9 8 8 13 12
44 47 40 40 38 33 30 27 25 24 23 20 20 18 18 19 19 17 18 20 21 21 22 22 19 19 14 20 15 11 3 7 7 7 5 8 5 7 16 15 9 10 12 9 9 9 11
46 44 43 39 34 34 30 28 25 24 23 20 20 19 19 20 18 20 19 22 23 23 24 23 17 18 13 19 19 12 7 6 9 7 8 13 9 13 13 12 7 4 6 7 10 11 10
40 36 35 35 35 32 28 27 27 25 23 21 20 20 19 20 18 20 20 23 25 25 25 21 19 17 14 20 19 13 6 8 6 7 11 15 16 12 9 7 8 7 6 5 7 8 9
33 35 35 37 34 31 29 28 26 25 22 20 21 19 18 21 19 21 22 23 26 26 23 19 19 17 16 23 20 18 11 6 9 11 11 9 6 4 4 3 3 2 7 11 12 14 15
34 35 36 35 33 31 30 27 25 22 20 21 19 17 19 20 20 22 22 23 26 23 17 15 16 16 17 23 21 21 18 13 10 11 13 13 10 8 6 5 3 5 7 9 13 16 17

GFSGBSN_500_spd_108.txt.gz
Wind_Speed
37 35 36 34 35 38 35 37 40 42 41 38 37 40 39 40 38 37 35 32 32 34 35 35 35 40 46 47 48 51 53 54 55 57 59 60 63 61 62 64 64 67 65 60 59 62 62
40 42 40 36 36 34 34 35 37 41 41 41 41 40 42 41 39 37 36 35 36 40 41 42 42 41 44 48 48 49 51 53 55 58 61 61 62 64 69 68 69 70 68 68 65 63 64
43 43 43 43 40 37 38 38 38 32 42 42 43 44 41 40 38 39 39 39 40 40 42 42 43 45 44 50 49 52 49 54 56 61 66 69 72 76 77 77 78 77 79 76 70 65 67
50 46 46 46 46 42 41 42 40 34 35 45 42 42 42 41 42 42 41 41 41 42 44 44 45 45 45 47 49 53 53 57 62 66 70 74 79 82 86 88 87 90 90 87 74 70 67
57 52 48 45 47 47 45 43 44 36 35 37 41 45 47 45 44 41 40 40 41 42 44 44 43 40 42 46 50 55 60 64 66 71 77 85 91 95 97 100 100 99 98 91 85 76 72
61 56 53 50 50 48 45 46 44 39 38 39 43 49 48 47 45 42 45 42 40 40 42 40 37 39 42 46 52 59 64 69 76 83 88 91 89 87 87 79 79 78 71 75 77 73 72
66 61 58 53 44 50 48 48 46 45 43 43 45 48 54 48 46 45 47 40 37 35 36 33 36 39 43 48 54 63 70 76 79 76 80 69 63 53 40 41 43 45 49 58 62 64 66
69 66 59 52 56 50 49 50 46 44 45 47 50 54 52 46 44 42 44 33 31 30 30 31 36 41 46 52 57 64 72 72 62 45 48 49 44 27 30 33 32 40 40 39 44 44 55
72 70 61 52 52 54 54 53 46 46 47 49 49 50 49 45 42 43 37 27 26 28 29 33 38 44 49 55 62 62 61 54 48 39 39 39 16 30 33 33 34 30 34 34 33 37 43
73 70 65 60 52 52 54 53 47 50 48 45 51 53 54 45 42 36 23 21 24 25 28 32 39 45 50 55 50 50 44 43 40 41 37 32 21 26 26 30 30 16 23 22 21 29 35
74 71 64 58 56 58 58 63 47 47 52 51 48 47 44 41 35 22 17 20 22 23 29 33 39 45 53 50 41 39 40 44 37 34 33 23 25 30 28 24 15 4 9 15 18 25 29
75 72 63 61 49 55 59 53 46 49 49 48 53 48 36 36 24 13 16 19 18 23 28 33 38 43 49 28 30 33 40 37 34 30 20 22 19 3 5 5 5 9 16 13 12 22 28
75 72 64 65 58 58 53 55 54 46 45 51 44 40 35 26 14 14 15 16 19 23 28 33 36 42 42 21 26 31 28 33 28 14 10 10 7 4 3 9 16 14 18 15 15 20 19
68 67 64 59 60 62 54 58 42 45 39 42 37 35 31 16 13 15 14 14 18 22 26 31 36 38 27 15 18 24 27 24 16 9 14 11 9 6 8 9 16 15 16 20 0 13 12
62 60 63 67 52 62 55 47 42 42 43 42 36 35 22 14 17 14 12 13 17 22 26 29 34 34 15 18 16 20 23 15 7 17 27 26 6 2 5 13 9 14 11 7 4 8 6
59 53 59 61 48 44 48 48 43 38 47 40 38 28 18 18 16 13 10 13 17 21 25 29 32 33 12 12 14 20 14 9 14 19 31 23 6 6 2 1 5 11 13 11 12 14 9
44 46 45 55 45 46 43 39 36 40 42 38 37 24 21 19 15 11 11 14 17 20 23 27 29 25 18 9 14 18 20 15 14 20 25 16 10 4 3 3 5 13 13 13 15 18 16
41 44 48 42 46 48 49 39 40 42 42 44 30 23 21 18 15 11 11 13 15 18 20 25 25 23 19 12 12 15 23 14 15 18 16 15 14 5 7 9 10 10 17 16 18 20 17
52 49 53 44 46 40 32 42 42 41 44 37 28 24 21 18 14 12 12 13 15 16 19 21 22 22 19 14 11 14 19 15 13 17 19 14 11 9 5 0 6 7 13 13 0 4 6
49 48 41 40 39 38 39 42 41 44 42 32 27 24 22 17 14 13 12 13 14 16 18 19 21 19 15 15 17 17 19 15 19 15 17 17 19 14 9 3 5 2 7 13 5 7 23
39 34 32 38 40 39 40 39 42 47 36 31 27 24 21 18 16 14 13 13 14 17 17 18 20 18 16 10 18 16 19 16 13 12 11 10 8 4 6 6 5 6 10 4 4 18 14
33 35 38 39 37 37 38 44 47 39 34 29 25 23 21 19 18 15 12 15 15 16 18 19 18 18 18 12 12 15 14 6 8 5 7 12 5 6 3 7 3 5 4 3 7 20 21
31 31 31 35 36 38 44 48 42 37 32 27 25 24 21 20 17 14 15 16 16 16 19 19 18 18 18 14 12 12 16 15 9 5 14 8 24 15 17 17 16 18 20 11 17 13 7
30 31 32 33 39 41 48 44 39 35 30 27 27 24 21 19 17 13 16 17 18 18 20 20 19 19 18 14 15 8 12 13 11 7 12 8 11 13 16 18 14 14 8 6 11 6 2
30 31 33 37 44 49 48 43 38 34 31 29 25 24 22 17 15 15 17 19 20 20 21 22 22 20 19 15 17 14 7 9 9 8 7 12 4 12 13 15 13 12 9 8 8 6 5
27 30 36 45 49 49 46 41 37 34 30 28 26 23 21 18 16 17 18 20 21 21 24 25 24 21 19 17 14 17 10 6 5 7 9 7 5 11 17 19 16 14 10 9 7 5 5
26 32 39 46 47 45 42 39 37 32 30 28 25 24 20 19 18 19 20 20 22 22 25 27 26 20 19 16 13 18 15 11 9 8 14 19 21 17 15 14 11 10 7 4 5 6 5
30 38 43 44 42 40 37 36 35 33 29 26 25 23 21 18 18 20 21 22 22 24 26 28 23 19 17 15 16 21 16 13 13 10 16 18 18 16 15 13 8 4 3 5 6 7 8
34 38 37 35 35 36 37 38 33 30 28 26 24 23 20 17 20 20 21 22 22 25 26 25 20 16 13 13 21 25 18 19 14 13 14 14 14 13 11 9 8 6 2 2 4 8 10

GFSGBSN_500_spd_111.txt.gz
Wind_Speed
39 37 33 32 32 32 31 30 26 27 30 27 30 33 33 33 34 34 36 38 39 39 36 35 35 39 41 43 43 45 46 47 50 53 54 55 57 57 61 63 61 66 66 65 69 69 67
43 42 39 37 38 38 36 32 32 29 30 31 30 27 29 33 34 35 37 36 37 38 38 37 38 41 44 45 44 45 47 49 51 53 55 56 57 60 63 66 69 70 69 70 69 70 73
49 47 44 41 41 41 43 39 35 33 33 34 31 31 29 31 35 37 35 37 38 40 41 43 43 40 42 44 45 47 49 52 53 54 58 60 62 65 68 74 76 78 81 79 73 78 79
57 55 54 49 49 45 44 43 43 40 36 34 34 32 33 32 32 34 37 39 41 43 44 43 42 41 43 44 43 45 46 47 50 54 58 62 66 71 75 81 85 87 93 92 79 88 87
66 62 59 57 53 52 48 45 46 43 40 38 35 33 33 33 35 38 41 43 43 43 41 41 41 40 43 42 39 44 47 49 51 55 59 65 72 77 84 89 92 94 97 98 98 94 94
72 70 65 63 58 56 53 51 46 44 42 40 39 37 39 38 34 39 40 45 45 45 45 43 41 38 36 35 38 44 48 52 56 61 68 74 79 83 82 82 89 88 80 78 85 89 91
76 75 71 67 62 59 57 55 49 47 44 42 40 42 41 42 40 38 41 42 43 43 42 41 35 32 30 34 40 45 48 53 61 68 73 77 80 72 69 69 61 51 44 48 48 46 60
81 77 76 72 68 63 60 55 51 47 49 47 44 42 46 43 42 39 41 40 40 39 37 32 26 28 32 34 39 46 52 59 64 67 68 70 63 51 55 50 48 45 42 44 41 40 44
86 82 78 76 74 67 64 58 47 47 56 46 48 45 44 44 43 40 41 39 39 40 30 22 24 29 32 36 43 48 53 58 61 60 60 57 45 45 48 46 44 38 40 37 43 33 41
89 85 80 79 76 70 68 57 49 53 47 50 51 46 43 49 45 45 43 37 34 29 25 23 25 28 33 37 43 48 54 54 48 35 24 28 33 37 38 42 40 40 37 34 27 27 29
88 85 84 80 77 73 69 60 54 47 55 53 50 45 41 46 46 42 38 33 27 18 24 22 24 28 33 38 41 49 48 36 18 21 24 28 27 25 24 22 20 14 18 16 17 23 25
79 80 81 77 75 75 68 61 58 53 57 53 51 48 40 43 43 40 34 30 17 17 20 21 23 27 31 38 42 46 33 26 13 18 24 24 25 20 17 12 13 12 12 5 4 13 18
69 70 73 72 72 70 65 59 52 56 60 58 52 39 37 38 38 35 30 20 17 17 16 16 20 24 30 34 35 31 24 18 12 17 26 31 32 20 18 16 15 6 6 2 9 7 10
61 66 68 68 68 64 61 62 60 53 52 43 42 41 37 35 33 32 28 16 19 16 15 16 19 23 29 30 23 22 21 18 18 21 28 23 12 13 17 11 4 5 7 13 6 7 4
58 58 61 63 64 63 59 60 61 58 53 54 44 36 35 32 31 33 22 19 18 16 14 16 18 23 27 30 28 18 17 18 14 21 23 18 15 10 11 11 6 5 9 10 12 12 2
57 51 51 53 57 59 54 57 58 51 46 44 48 36 37 35 34 28 19 21 20 16 14 14 15 22 25 24 21 16 16 15 15 16 22 19 16 12 10 12 8 10 12 12 14 8 1
51 48 48 47 45 48 51 55 58 48 38 44 43 36 39 37 35 25 24 23 18 14 13 14 15 21 25 21 16 11 12 15 12 20 23 22 24 16 13 12 9 10 12 15 13 11 11
42 43 42 43 47 50 50 50 55 42 43 47 47 39 40 38 32 26 26 22 17 14 12 13 15 20 25 23 16 10 10 16 15 17 19 22 23 17 16 15 10 8 13 17 15 14 9
45 45 41 43 43 49 43 41 54 41 43 41 40 41 44 40 31 28 24 21 15 13 11 12 16 20 23 23 15 13 9 12 12 15 19 21 23 23 17 17 15 7 7 11 7 4 2
48 50 42 47 46 46 39 39 43 44 46 43 40 43 46 35 30 29 24 19 15 12 11 13 16 21 21 24 19 12 8 9 13 15 15 20 20 20 16 11 10 6 3 4 6 13 8
45 43 41 48 48 41 48 47 42 44 42 43 43 45 40 33 30 28 22 19 15 12 13 13 18 21 20 21 21 14 7 10 8 10 11 10 10 9 10 10 3 6 6 3 11 15 15
48 57 43 50 42 37 41 43 43 43 43 45 50 44 36 31 31 26 21 18 14 13 15 14 19 21 23 20 17 17 10 5 9 8 5 2 3 3 2 3 5 2 1 7 21 12 16
45 42 41 39 34 31 36 40 43 43 42 49 45 39 35 33 28 22 20 17 15 15 16 16 20 22 25 22 19 15 15 11 6 7 7 20 14 11 15 8 18 19 23 22 19 17 18
31 29 31 33 33 33 36 38 40 42 49 49 42 38 34 31 26 22 21 18 16 17 18 18 22 24 24 22 19 16 15 12 7 4 15 20 14 14 16 21 14 14 15 11 4 3 7
30 31 30 31 33 35 37 37 41 48 51 46 41 36 33 29 23 20 21 20 17 18 18 21 24 25 22 22 19 16 18 15 11 8 9 15 14 14 8 17 16 9 8 7 5 2 1
32 31 31 35 35 35 35 40 47 53 49 43 38 34 31 27 22 22 23 19 19 18 19 24 26 24 24 21 21 16 19 14 13 12 10 12 16 18 10 16 14 11 5 7 4 4 1
33 31 32 31 30 32 37 45 53 52 45 39 35 31 28 24 23 23 21 21 18 19 23 25 27 25 25 22 22 18 19 18 19 13 10 14 17 15 20 16 15 13 8 5 5 5 6
32 31 32 30 29 32 40 52 54 47 42 37 33 30 26 24 24 22 22 19 17 21 24 25 26 27 24 21 21 19 20 18 18 18 13 22 24 26 23 23 15 9 8 9 6 5 8
28 27 27 28 32 39 45 52 48 43 39 35 32 28 25 23 22 22 21 17 20 22 24 26 25 26 23 21 20 19 23 22 20 16 14 22 25 24 21 17 15 12 8 6 6 7 9

GFSGBSN_500_spd_114.txt.gz
Wind_Speed
41 40 38 37 35 33 32 32 30 28 25 26 26 26 24 28 28 28 30 28 27 29 31 32 33 34 37 39 39 41 43 45 45 45 46 47 48 51 54 56 56 60 62 62 66 69 67
45 42 42 42 39 38 37 35 35 33 32 31 28 30 31 28 28 31 28 31 31 31 30 33 34 35 38 40 42 44 44 46 48 48 49 50 50 51 55 57 58 60 60 63 66 71 76
50 48 47 47 45 41 42 39 37 37 35 36 33 31 31 33 27 29 29 29 31 31 31 33 36 37 41 43 43 45 46 47 48 50 51 49 50 53 55 57 60 62 67 69 68 76 77
59 55 55 54 52 49 47 47 43 42 41 40 38 35 33 30 31 31 32 32 29 29 33 36 39 40 42 43 43 45 47 46 46 48 47 48 51 55 59 63 65 70 73 76 70 83 84
69 65 62 61 59 57 52 52 49 46 45 44 42 40 37 34 33 33 36 35 33 34 34 35 38 40 44 44 45 47 46 43 42 43 46 50 54 59 66 72 73 79 85 89 81 88 93
75 74 70 69 64 63 59 57 55 51 49 47 46 43 40 38 35 37 39 41 38 35 34 32 34 39 42 41 41 44 44 42 42 44 47 53 58 64 71 78 80 85 89 92 94 92 92
83 81 80 76 72 70 66 64 61 58 54 50 49 46 42 39 38 41 42 42 41 38 37 35 34 34 35 37 37 37 37 39 43 47 52 58 63 70 75 78 79 83 78 70 66 56 60
87 87 86 84 80 77 74 67 66 63 59 52 48 46 43 42 43 42 45 43 46 41 39 39 37 37 32 29 30 33 37 40 45 49 55 60 66 69 67 54 51 55 56 56 52 46 49
91 91 90 88 86 82 78 74 69 67 53 54 50 46 41 47 46 44 47 43 43 43 43 39 37 35 25 25 30 33 36 40 44 50 55 59 54 43 41 40 47 41 40 42 43 36 37
91 94 93 90 89 83 80 77 73 69 63 58 54 44 44 55 46 47 45 42 43 41 37 35 34 28 25 25 32 33 36 40 47 48 50 41 36 37 40 38 42 39 36 31 27 36 37
73 78 83 84 88 83 80 75 75 69 64 59 54 45 42 43 48 45 43 40 40 37 35 31 26 22 23 26 30 32 33 42 45 45 36 30 30 32 33 34 38 34 33 30 32 29 31
69 67 69 68 73 77 74 69 69 68 62 61 56 51 51 48 43 47 47 38 36 36 35 27 18 19 25 26 28 31 36 39 40 36 24 27 29 28 21 28 33 26 24 21 22 28 22
72 69 65 62 63 66 70 66 64 61 57 58 56 52 51 47 52 48 40 37 30 32 27 26 21 21 24 25 27 31 34 38 35 27 20 24 29 25 22 23 25 21 21 18 24 24 20
76 72 69 63 58 59 60 62 61 57 57 51 53 52 54 47 49 45 36 36 34 29 26 22 21 22 23 25 26 29 33 36 33 27 22 22 23 17 20 21 22 19 20 28 38 37 22
75 75 72 68 61 54 53 55 57 54 59 53 48 52 51 50 45 42 35 33 32 28 27 24 22 22 23 24 27 27 31 29 31 28 22 18 15 19 23 23 22 21 22 24 27 22 16
75 71 71 70 62 53 50 51 54 51 58 53 56 56 49 49 44 37 36 30 32 30 26 23 22 21 22 23 25 27 28 24 24 25 22 21 14 22 23 20 22 23 21 21 22 24 22
71 67 63 65 60 51 48 50 51 55 57 57 54 60 59 45 51 40 37 33 34 30 27 24 21 20 22 20 22 26 26 25 23 20 24 23 20 18 22 22 26 26 21 21 21 22 19
58 57 56 55 54 48 48 52 49 55 52 56 55 56 50 52 46 43 38 36 35 29 28 24 20 20 21 21 22 23 25 25 24 19 17 25 25 23 22 22 21 19 22 19 18 14 13
41 45 47 48 48 46 52 48 50 44 50 49 43 50 47 49 48 39 38 42 33 30 27 22 19 20 19 20 22 23 24 24 22 19 18 20 20 24 19 16 14 16 16 9 11 12 9
31 35 41 46 48 50 45 46 41 41 52 42 42 47 49 50 44 39 46 40 33 30 25 22 20 19 17 20 22 24 21 18 14 20 19 17 18 18 15 17 16 12 13 8 9 13 7
30 38 41 43 48 46 47 55 53 52 44 47 46 41 42 40 40 45 48 36 32 26 24 20 20 18 17 19 23 24 22 17 10 11 12 15 11 9 9 10 10 8 5 5 8 9 10
40 45 42 48 42 46 53 31 41 42 43 36 41 37 43 36 42 49 42 32 29 25 23 21 21 18 17 18 22 26 22 14 13 8 10 10 5 5 6 8 10 2 3 4 4 16 16
39 39 43 52 47 47 32 44 39 40 44 37 39 43 42 40 45 46 35 31 28 25 23 23 20 18 19 20 23 25 24 18 17 12 10 11 8 6 5 6 11 5 9 13 13 12 12
61 67 61 54 56 51 51 44 39 36 39 42 42 46 42 46 47 38 33 29 28 25 23 22 18 18 21 23 25 25 23 17 15 13 12 12 15 9 13 15 15 21 18 11 7 5 6
25 28 34 41 47 49 47 41 39 40 38 40 43 43 45 46 41 32 31 30 26 23 22 19 19 20 22 25 26 25 23 18 19 18 16 15 21 13 10 12 13 14 7 3 0 2 2
37 36 33 36 35 39 40 38 36 35 35 34 41 47 49 44 37 33 32 26 24 23 21 20 19 21 25 26 26 24 21 20 21 21 20 15 14 16 18 18 15 14 10 9 7 6 5
33 34 36 38 39 39 37 34 33 33 35 40 44 50 45 38 34 32 28 24 23 22 20 19 19 23 26 26 25 24 19 20 22 22 21 14 12 15 18 20 17 17 13 10 8 8 7
36 36 38 39 39 37 33 31 29 35 38 43 49 46 40 36 33 29 24 23 22 21 19 19 23 24 26 25 25 22 20 21 23 25 23 19 18 16 16 21 21 18 16 10 10 9 8
37 37 36 36 31 29 29 29 31 37 41 48 49 42 37 33 30 27 23 22 21 19 18 21 25 27 26 26 25 21 20 21 20 17 22 21 19 22 21 20 23 19 12 10 11 13 12

GFSGBSN_500_spd_117.txt.gz
Wind_Speed
51 51 44 44 44 38 35 31 32 31 29 29 25 24 26 25 23 26 26 26 25 25 27 28 30 29 30 31 32 35 35 36 37 38 40 42 44 46 47 46 45 48 52 53 56 59 60
52 42 46 45 43 40 40 37 35 35 33 32 30 29 28 28 25 26 27 24 23 23 26 28 27 28 30 33 34 35 37 38 40 41 42 43 44 46 49 47 47 51 53 57 58 57 60
57 50 46 45 43 44 44 42 41 40 37 35 35 30 31 30 30 27 27 28 25 26 27 27 28 29 32 33 35 38 38 38 40 41 41 43 44 45 45 46 48 51 56 56 59 64 68
62 67 55 44 42 50 49 48 46 44 44 40 38 37 35 35 33 32 30 29 27 29 28 29 31 31 32 34 36 38 39 41 42 43 43 44 44 43 45 49 53 56 58 60 66 67 76
67 67 64 65 60 57 59 52 53 51 49 49 45 42 42 40 39 37 34 33 30 32 35 34 34 32 33 35 36 35 39 41 41 42 43 43 43 44 48 52 55 60 62 65 65 74 83
72 72 72 68 68 67 65 65 60 58 55 56 54 51 46 44 42 41 39 37 33 36 35 39 37 35 34 36 36 36 37 38 38 39 38 38 42 46 51 56 60 65 68 71 75 76 81
76 75 77 75 72 72 72 72 70 66 64 59 60 57 54 48 46 44 41 40 38 40 41 38 37 39 38 39 40 40 38 36 34 32 35 40 45 51 55 59 63 66 68 72 73 73 80
79 79 78 79 78 77 78 77 77 74 70 70 64 62 59 53 50 47 42 40 42 40 40 41 41 38 38 40 39 36 34 33 30 32 37 41 47 52 56 59 58 55 58 60 62 48 43
79 81 84 83 83 83 81 82 79 79 77 72 71 64 60 56 50 46 41 39 41 45 42 43 38 40 40 36 33 30 28 27 31 35 38 43 46 53 55 49 47 45 50 39 25 21 28
72 76 81 83 87 87 86 82 82 77 77 74 71 64 63 58 53 44 44 42 42 46 40 41 42 42 34 31 31 27 26 29 33 34 38 42 50 47 39 34 38 37 28 16 25 34 35
73 74 72 70 74 80 83 84 77 78 76 72 69 65 60 57 53 49 46 41 37 39 42 40 43 37 33 27 26 26 26 29 31 35 38 46 45 34 30 33 35 24 19 22 33 41 38
72 73 73 70 68 65 64 67 71 68 66 62 66 64 58 50 51 48 48 43 39 40 41 41 38 34 28 24 23 26 27 27 30 36 39 42 35 27 31 29 29 25 21 23 33 33 29
72 70 69 71 69 67 63 60 59 60 60 59 54 62 56 57 49 48 48 50 42 45 40 40 34 30 27 26 26 27 26 28 32 36 37 34 31 28 28 25 27 27 29 29 23 34 40
74 75 73 69 68 68 65 62 55 53 53 54 63 48 56 52 49 49 52 48 45 45 43 36 36 30 27 28 26 26 26 28 32 35 37 32 23 25 25 27 23 23 24 27 33 34 34
82 81 80 76 72 68 65 62 57 50 48 49 58 58 57 49 48 48 50 50 45 39 38 34 34 29 26 29 25 25 27 30 31 35 35 33 18 21 21 26 22 22 24 25 29 31 31
81 81 80 77 73 73 67 63 59 51 45 46 50 45 59 53 50 55 51 49 48 39 39 33 31 30 28 28 25 25 27 29 31 34 33 30 23 19 21 25 24 26 21 23 25 29 27
59 60 63 67 74 76 70 63 58 51 44 48 49 54 52 56 50 48 48 47 47 43 38 32 31 30 29 28 24 26 27 26 29 32 31 27 24 20 23 27 27 21 21 23 23 20 19
56 58 66 70 75 77 73 63 58 53 47 51 50 55 59 61 46 48 44 43 44 39 36 35 35 31 30 26 24 25 25 25 26 29 27 23 24 24 18 23 21 16 16 18 19 15 13
58 75 75 76 71 71 71 61 54 51 50 49 54 58 55 64 50 44 51 46 37 41 37 38 35 31 31 25 24 24 23 24 26 28 22 20 23 26 16 19 15 14 16 15 12 11 11
48 43 44 48 57 63 60 52 50 49 52 51 58 53 51 58 44 46 46 42 46 44 39 40 33 32 28 24 23 22 21 22 24 25 19 18 22 22 16 18 8 10 10 5 11 9 10
20 26 30 36 45 49 48 47 49 53 53 50 54 55 50 47 54 43 45 44 41 45 44 37 32 31 26 23 22 21 20 21 21 20 17 18 18 18 11 13 9 12 9 11 6 4 3
20 20 29 36 39 44 45 48 53 54 48 48 58 52 43 49 46 46 46 42 42 46 41 32 32 28 25 22 21 21 21 20 22 20 15 17 14 13 7 14 14 9 1 1 2 3 6
21 23 29 36 41 45 51 50 48 43 45 51 49 45 36 37 36 41 44 45 45 44 34 32 31 26 23 20 21 20 20 22 20 18 16 17 15 12 6 10 9 7 11 10 11 10 13
19 22 29 34 39 44 44 42 44 51 49 52 45 41 40 43 40 40 41 44 45 38 33 32 27 25 22 20 20 20 22 23 22 14 17 18 17 13 9 14 11 11 13 10 10 8 8
23 32 31 35 40 42 41 43 51 43 35 37 45 46 40 40 43 42 42 44 44 35 31 28 25 23 21 20 20 21 23 24 24 19 15 21 19 19 19 19 16 16 9 6 6 5 3
34 37 28 34 32 38 44 50 45 42 42 39 32 39 37 37 39 42 43 44 35 31 29 26 23 20 20 19 22 23 26 25 26 18 17 23 22 23 27 22 19 16 15 12 8 7 7
21 29 45 41 45 47 43 46 49 41 36 35 32 32 35 36 39 43 45 36 31 29 27 24 20 19 19 21 22 25 27 26 23 20 20 22 23 23 22 25 21 20 19 14 9 8 9
31 35 38 36 33 36 28 32 39 43 35 32 31 30 33 35 41 45 38 32 30 28 24 20 18 19 20 22 23 26 27 25 22 23 24 24 21 21 20 25 25 19 18 15 13 10 9
34 36 38 39 38 41 43 40 35 33 31 30 31 32 36 42 43 40 34 30 28 24 20 18 18 19 21 22 25 27 25 22 22 22 22 21 21 21 17 22 26 26 21 19 18 14 12

GFSGBSN_500_spd_120.txt.gz
Wind_Speed
36 43 44 34 41 41 40 39 38 35 32 32 27 28 25 28 23 24 26 24 21 20 20 21 22 24 27 27 26 28 29 29 30 32 33 34 35 35 35 35 38 39 42 43 46 48 49
40 51 48 40 38 40 37 41 41 36 35 35 31 30 30 29 28 25 30 27 23 21 21 20 22 24 24 26 28 30 31 31 33 34 35 37 37 37 37 36 37 39 40 44 45 49 53
52 52 52 56 61 51 41 36 41 39 39 39 36 34 34 34 31 26 28 30 28 25 23 24 22 23 24 26 27 27 28 31 33 34 36 38 39 39 39 39 40 40 45 46 51 54 59
58 57 57 56 55 54 55 46 45 42 42 41 41 38 37 38 36 32 31 33 33 30 29 26 27 27 28 31 30 32 34 31 32 35 37 39 38 38 40 41 43 44 46 50 55 63 64
63 63 61 60 58 58 55 56 50 40 44 46 44 46 43 42 43 39 38 37 36 37 33 30 30 32 33 33 32 33 33 35 37 38 39 39 38 37 39 40 41 45 46 50 56 67 67
66 67 65 65 64 62 61 60 59 62 60 55 54 51 50 49 49 47 44 43 42 41 40 36 35 34 33 35 33 35 33 36 39 39 37 36 34 34 35 38 43 46 49 52 58 60 65
72 70 69 68 67 65 65 64 65 63 53 62 59 60 59 57 57 56 51 49 49 45 45 42 41 36 35 36 36 35 38 41 42 37 33 30 31 32 38 42 46 49 52 54 56 59 59
71 72 71 71 70 69 69 68 68 67 67 70 68 65 65 64 61 61 59 56 53 52 47 46 44 39 38 40 39 38 40 42 38 32 29 27 30 35 39 44 48 52 53 51 51 40 34
70 70 71 71 71 71 71 71 72 72 74 73 72 72 68 69 64 63 61 58 54 53 51 45 43 38 34 39 38 39 42 41 35 28 25 27 33 37 41 47 50 48 43 41 34 24 28
63 64 65 67 69 70 72 73 74 75 75 77 74 73 72 70 67 66 58 55 50 46 48 45 45 42 39 38 37 39 39 36 30 27 27 29 35 37 41 48 49 40 34 35 25 24 27
60 61 62 64 65 65 67 70 73 74 73 72 73 68 72 64 65 61 52 49 50 45 47 50 45 43 39 37 37 38 37 32 28 27 28 31 34 37 43 47 40 33 33 33 26 27 30
62 63 65 66 67 67 68 67 67 66 66 62 61 60 64 63 61 58 55 59 50 48 47 47 42 36 38 37 37 35 33 29 28 28 28 31 33 37 43 43 30 30 31 34 29 25 26
65 65 65 65 65 66 65 65 64 64 61 58 54 52 57 57 57 57 55 52 53 57 50 46 42 40 38 36 34 34 33 28 30 28 28 30 35 37 42 32 27 28 30 29 26 28 24
65 65 65 65 65 64 63 61 60 61 60 57 53 49 47 48 49 57 47 55 61 48 43 43 43 41 39 36 36 36 32 31 29 27 28 29 35 36 35 27 25 26 26 27 27 26 29
70 70 69 69 71 70 68 67 66 62 56 56 52 50 47 45 52 44 60 60 47 41 41 42 44 39 37 36 35 35 32 31 27 27 28 29 31 32 28 26 22 24 26 29 26 25 31
75 76 76 77 79 79 77 73 70 69 60 53 53 51 47 44 53 67 54 64 46 45 45 46 44 42 38 34 35 35 31 27 27 26 26 28 30 27 24 22 20 24 29 27 23 21 24
68 69 69 71 75 74 71 70 63 69 68 56 55 51 48 47 49 56 60 55 55 49 46 46 46 40 39 33 36 36 30 27 26 24 24 27 28 19 20 20 17 23 27 24 20 16 18
64 67 68 68 64 58 55 56 58 66 69 62 53 53 50 51 55 63 64 50 51 46 48 54 50 46 40 35 36 35 27 25 25 23 24 26 27 17 17 19 16 23 27 22 19 16 16
63 62 60 59 56 52 53 55 58 68 67 62 55 56 55 54 61 57 49 55 57 51 44 49 47 51 37 36 35 30 26 25 24 23 23 24 24 16 16 16 17 23 20 16 14 13 15
63 60 55 57 61 63 63 66 66 71 66 62 59 58 59 54 54 52 49 48 57 51 47 56 49 46 40 36 30 27 27 24 23 22 22 24 23 14 16 16 14 17 20 20 12 12 12
59 56 58 64 68 75 75 73 71 70 64 60 60 61 56 51 47 47 49 49 55 47 40 38 35 40 36 28 27 27 26 23 21 20 22 23 20 15 15 15 14 16 16 11 7 9 5
50 52 64 50 51 57 61 71 77 70 60 59 57 61 53 51 47 52 43 49 54 46 39 38 38 38 31 26 26 25 25 23 19 19 21 21 17 14 15 14 13 13 10 6 5 6 4
43 39 35 34 34 41 50 54 65 70 56 55 59 55 50 45 44 41 40 42 45 32 34 35 39 37 27 24 26 25 23 21 20 20 21 20 17 13 14 13 10 6 7 10 7 6 6
15 16 18 22 25 30 39 46 49 52 53 55 56 48 45 42 42 40 37 35 39 39 39 40 41 32 25 24 26 24 22 20 21 21 21 21 18 17 17 15 14 11 14 13 13 10 11
12 20 22 29 36 43 47 49 52 54 56 58 50 46 43 43 44 44 43 44 44 42 42 40 37 27 25 25 24 22 21 21 21 22 20 18 21 22 20 20 22 18 17 15 14 13 12
18 24 23 36 47 52 56 58 58 58 51 45 43 42 39 42 42 40 39 37 39 39 41 40 31 26 24 23 22 21 22 22 22 24 23 20 23 26 27 25 28 26 21 19 20 17 15
25 27 29 32 36 41 45 46 44 44 44 41 40 43 40 37 39 43 43 40 38 41 42 33 25 23 22 21 20 21 21 22 24 26 26 23 25 28 30 28 31 28 23 21 20 18 16
30 37 32 31 34 34 37 39 43 36 41 39 38 38 36 37 41 36 33 34 36 39 32 25 25 23 21 19 19 19 21 24 27 28 27 27 27 28 28 28 30 31 25 26 24 23 19
33 32 35 37 38 34 32 30 29 35 35 35 33 33 36 37 36 34 35 41 42 34 29 27 22 21 18 17 18 20 23 25 27 26 26 26 26 27 26 27 25 26 28 27 27 24 19